<?xml version="1.0" encoding="UTF-8" standalone="no" ?>
<gpx xmlns="http://www.topografix.com/GPX/1/1" xmlns:xsi="http://www.w3.org/2001/XMLSchema-instance" xsi:schemaLocation="http://www.topografix.com/GPX/1/1 http://www.topografix.com/GPX/1/1/gpx.xsd" version="1.1" creator="VisuGPX - https://www.visugpx.com">
  <metadata>
    <name>Verdon des collines 2013 55km rando d\'or</name>
    <desc><![CDATA[Verdon des collines 2013 55km rando d\'or,
greoux les bains]]></desc>
  </metadata>
  <trk>
    <name><![CDATA[verdon]]></name>
    <desc><![CDATA[<h1>OruxMaps</h1><br /><hr align="center" width="480" style="height: 2px; width: 517px"/><h2>Nom: verdon</h2><br /><p>Temps de départ: 11/11/2013 08:57</p><p>Temps d'arrivée: 11/11/2013 14:19</p><p>Distance: 57 km (05:22)</p><p>Temps déplacement: 04:24</p><p>Vitesse moyenne: 10,6 km/h</p><p>Vitesse moyenne: 12,9 km/h</p><p>Vitess Max.: 49,2 km/h</p><p>Altitude minimale: 299 m</p><p>Altitude maximale: 604 m</p><p>Vitesse d'élévation: 580,1 m/h</p><p>Vitesse de descente: -929,7 m/h</p><p>Gain Altitude: 1662 m</p><p>Perte Altitude: -1625 m</p><p>Temps d'élévation: 02:51</p><p>Temps de descente: 01:44</p><hr align="center" width="480" style="height: 2px; width: 517px"/>]]></desc>
    <trkseg>
      <trkpt lat="43.75789" lon="5.88563">
        <ele>328.04</ele>
        <time>2013-11-11T07:57:03Z</time>
      </trkpt>
      <trkpt lat="43.75778" lon="5.88583">
        <ele>333.54</ele>
        <time>2013-11-11T07:57:05Z</time>
      </trkpt>
      <trkpt lat="43.7576" lon="5.88593">
        <ele>340.96</ele>
        <time>2013-11-11T07:58:14Z</time>
      </trkpt>
      <trkpt lat="43.75742" lon="5.88599">
        <ele>344.71</ele>
        <time>2013-11-11T07:58:24Z</time>
      </trkpt>
      <trkpt lat="43.75722" lon="5.88604">
        <ele>345.72</ele>
        <time>2013-11-11T07:58:32Z</time>
      </trkpt>
      <trkpt lat="43.75704" lon="5.88612">
        <ele>349.4</ele>
        <time>2013-11-11T07:58:40Z</time>
      </trkpt>
      <trkpt lat="43.75683" lon="5.88616">
        <ele>349.11</ele>
        <time>2013-11-11T07:58:42Z</time>
      </trkpt>
      <trkpt lat="43.75665" lon="5.88624">
        <ele>349.75</ele>
        <time>2013-11-11T07:58:45Z</time>
      </trkpt>
      <trkpt lat="43.75647" lon="5.88638">
        <ele>349.47</ele>
        <time>2013-11-11T07:58:55Z</time>
      </trkpt>
      <trkpt lat="43.75631" lon="5.88651">
        <ele>352.03</ele>
        <time>2013-11-11T07:59:03Z</time>
      </trkpt>
      <trkpt lat="43.7562" lon="5.88675">
        <ele>346.78</ele>
        <time>2013-11-11T07:59:25Z</time>
      </trkpt>
      <trkpt lat="43.75608" lon="5.88694">
        <ele>351.36</ele>
        <time>2013-11-11T07:59:29Z</time>
      </trkpt>
      <trkpt lat="43.75594" lon="5.88721">
        <ele>350.2</ele>
        <time>2013-11-11T07:59:31Z</time>
      </trkpt>
      <trkpt lat="43.75589" lon="5.88747">
        <ele>345.31</ele>
        <time>2013-11-11T07:59:34Z</time>
      </trkpt>
      <trkpt lat="43.7558" lon="5.88768">
        <ele>343.11</ele>
        <time>2013-11-11T07:59:36Z</time>
      </trkpt>
      <trkpt lat="43.75568" lon="5.8879">
        <ele>342.48</ele>
        <time>2013-11-11T07:59:39Z</time>
      </trkpt>
      <trkpt lat="43.7556" lon="5.88813">
        <ele>342.15</ele>
        <time>2013-11-11T07:59:42Z</time>
      </trkpt>
      <trkpt lat="43.75551" lon="5.88838">
        <ele>340.52</ele>
        <time>2013-11-11T07:59:45Z</time>
      </trkpt>
      <trkpt lat="43.75545" lon="5.88863">
        <ele>337.94</ele>
        <time>2013-11-11T07:59:47Z</time>
      </trkpt>
      <trkpt lat="43.75533" lon="5.88891">
        <ele>336.25</ele>
        <time>2013-11-11T07:59:50Z</time>
      </trkpt>
      <trkpt lat="43.75519" lon="5.8891">
        <ele>335.74</ele>
        <time>2013-11-11T07:59:53Z</time>
      </trkpt>
      <trkpt lat="43.75502" lon="5.88928">
        <ele>335.64</ele>
        <time>2013-11-11T07:59:56Z</time>
      </trkpt>
      <trkpt lat="43.75484" lon="5.88946">
        <ele>334.22</ele>
        <time>2013-11-11T07:59:59Z</time>
      </trkpt>
      <trkpt lat="43.7547" lon="5.88966">
        <ele>333.85</ele>
        <time>2013-11-11T08:00:03Z</time>
      </trkpt>
      <trkpt lat="43.7545" lon="5.88978">
        <ele>330.37</ele>
        <time>2013-11-11T08:00:08Z</time>
      </trkpt>
      <trkpt lat="43.75429" lon="5.88973">
        <ele>325.32</ele>
        <time>2013-11-11T08:00:13Z</time>
      </trkpt>
      <trkpt lat="43.75409" lon="5.88978">
        <ele>323.43</ele>
        <time>2013-11-11T08:00:19Z</time>
      </trkpt>
      <trkpt lat="43.7539" lon="5.88981">
        <ele>323.42</ele>
        <time>2013-11-11T08:00:24Z</time>
      </trkpt>
      <trkpt lat="43.75371" lon="5.88984">
        <ele>321.74</ele>
        <time>2013-11-11T08:00:28Z</time>
      </trkpt>
      <trkpt lat="43.75348" lon="5.88989">
        <ele>316.69</ele>
        <time>2013-11-11T08:00:33Z</time>
      </trkpt>
      <trkpt lat="43.75331" lon="5.89001">
        <ele>317.61</ele>
        <time>2013-11-11T08:00:40Z</time>
      </trkpt>
      <trkpt lat="43.75331" lon="5.89028">
        <ele>313.56</ele>
        <time>2013-11-11T08:01:33Z</time>
      </trkpt>
      <trkpt lat="43.75323" lon="5.89052">
        <ele>314</ele>
        <time>2013-11-11T08:01:38Z</time>
      </trkpt>
      <trkpt lat="43.75313" lon="5.89075">
        <ele>314.11</ele>
        <time>2013-11-11T08:01:43Z</time>
      </trkpt>
      <trkpt lat="43.75303" lon="5.89099">
        <ele>314.44</ele>
        <time>2013-11-11T08:01:50Z</time>
      </trkpt>
      <trkpt lat="43.75287" lon="5.89116">
        <ele>316.6</ele>
        <time>2013-11-11T08:01:57Z</time>
      </trkpt>
      <trkpt lat="43.75272" lon="5.89137">
        <ele>316.06</ele>
        <time>2013-11-11T08:02:03Z</time>
      </trkpt>
      <trkpt lat="43.75259" lon="5.8916">
        <ele>312.82</ele>
        <time>2013-11-11T08:02:09Z</time>
      </trkpt>
      <trkpt lat="43.75243" lon="5.89178">
        <ele>316.94</ele>
        <time>2013-11-11T08:02:15Z</time>
      </trkpt>
      <trkpt lat="43.7523" lon="5.89198">
        <ele>317.58</ele>
        <time>2013-11-11T08:02:20Z</time>
      </trkpt>
      <trkpt lat="43.75217" lon="5.89219">
        <ele>317.9</ele>
        <time>2013-11-11T08:02:25Z</time>
      </trkpt>
      <trkpt lat="43.75203" lon="5.8924">
        <ele>317.99</ele>
        <time>2013-11-11T08:02:30Z</time>
      </trkpt>
      <trkpt lat="43.75184" lon="5.89241">
        <ele>314.8</ele>
        <time>2013-11-11T08:02:37Z</time>
      </trkpt>
      <trkpt lat="43.75165" lon="5.89244">
        <ele>317.55</ele>
        <time>2013-11-11T08:02:43Z</time>
      </trkpt>
      <trkpt lat="43.75145" lon="5.89246">
        <ele>318.83</ele>
        <time>2013-11-11T08:02:49Z</time>
      </trkpt>
      <trkpt lat="43.75127" lon="5.89246">
        <ele>317.65</ele>
        <time>2013-11-11T08:02:55Z</time>
      </trkpt>
      <trkpt lat="43.75108" lon="5.89245">
        <ele>320.39</ele>
        <time>2013-11-11T08:03:02Z</time>
      </trkpt>
      <trkpt lat="43.7509" lon="5.89243">
        <ele>319.96</ele>
        <time>2013-11-11T08:03:06Z</time>
      </trkpt>
      <trkpt lat="43.75069" lon="5.89244">
        <ele>317.52</ele>
        <time>2013-11-11T08:03:08Z</time>
      </trkpt>
      <trkpt lat="43.75049" lon="5.89252">
        <ele>315.14</ele>
        <time>2013-11-11T08:03:11Z</time>
      </trkpt>
      <trkpt lat="43.75031" lon="5.89261">
        <ele>313.7</ele>
        <time>2013-11-11T08:03:15Z</time>
      </trkpt>
      <trkpt lat="43.75009" lon="5.89275">
        <ele>310.43</ele>
        <time>2013-11-11T08:03:20Z</time>
      </trkpt>
      <trkpt lat="43.74992" lon="5.89286">
        <ele>309.85</ele>
        <time>2013-11-11T08:03:24Z</time>
      </trkpt>
      <trkpt lat="43.74972" lon="5.89298">
        <ele>310.97</ele>
        <time>2013-11-11T08:03:29Z</time>
      </trkpt>
      <trkpt lat="43.74955" lon="5.89306">
        <ele>313.11</ele>
        <time>2013-11-11T08:03:33Z</time>
      </trkpt>
      <trkpt lat="43.74936" lon="5.8932">
        <ele>314.74</ele>
        <time>2013-11-11T08:03:38Z</time>
      </trkpt>
      <trkpt lat="43.74918" lon="5.89332">
        <ele>317.36</ele>
        <time>2013-11-11T08:03:43Z</time>
      </trkpt>
      <trkpt lat="43.74901" lon="5.89344">
        <ele>320.18</ele>
        <time>2013-11-11T08:03:49Z</time>
      </trkpt>
      <trkpt lat="43.74884" lon="5.89357">
        <ele>319.1</ele>
        <time>2013-11-11T08:03:55Z</time>
      </trkpt>
      <trkpt lat="43.74863" lon="5.89366">
        <ele>319.64</ele>
        <time>2013-11-11T08:04:01Z</time>
      </trkpt>
      <trkpt lat="43.74845" lon="5.89381">
        <ele>320.71</ele>
        <time>2013-11-11T08:04:06Z</time>
      </trkpt>
      <trkpt lat="43.74825" lon="5.89408">
        <ele>323.29</ele>
        <time>2013-11-11T08:04:15Z</time>
      </trkpt>
      <trkpt lat="43.74813" lon="5.89433">
        <ele>324.43</ele>
        <time>2013-11-11T08:04:20Z</time>
      </trkpt>
      <trkpt lat="43.74802" lon="5.89459">
        <ele>321.72</ele>
        <time>2013-11-11T08:04:25Z</time>
      </trkpt>
      <trkpt lat="43.74793" lon="5.89482">
        <ele>321.47</ele>
        <time>2013-11-11T08:04:30Z</time>
      </trkpt>
      <trkpt lat="43.7478" lon="5.89502">
        <ele>322.85</ele>
        <time>2013-11-11T08:04:36Z</time>
      </trkpt>
      <trkpt lat="43.74773" lon="5.89526">
        <ele>319.79</ele>
        <time>2013-11-11T08:04:42Z</time>
      </trkpt>
      <trkpt lat="43.74763" lon="5.8955">
        <ele>319.7</ele>
        <time>2013-11-11T08:04:46Z</time>
      </trkpt>
      <trkpt lat="43.74747" lon="5.8957">
        <ele>324.18</ele>
        <time>2013-11-11T08:04:51Z</time>
      </trkpt>
      <trkpt lat="43.74732" lon="5.89586">
        <ele>327.94</ele>
        <time>2013-11-11T08:04:56Z</time>
      </trkpt>
      <trkpt lat="43.74717" lon="5.89602">
        <ele>328.31</ele>
        <time>2013-11-11T08:05:01Z</time>
      </trkpt>
      <trkpt lat="43.74705" lon="5.89621">
        <ele>328.06</ele>
        <time>2013-11-11T08:05:06Z</time>
      </trkpt>
      <trkpt lat="43.74695" lon="5.89643">
        <ele>331.62</ele>
        <time>2013-11-11T08:05:11Z</time>
      </trkpt>
      <trkpt lat="43.74688" lon="5.89667">
        <ele>334.07</ele>
        <time>2013-11-11T08:05:16Z</time>
      </trkpt>
      <trkpt lat="43.74672" lon="5.89681">
        <ele>334.35</ele>
        <time>2013-11-11T08:05:21Z</time>
      </trkpt>
      <trkpt lat="43.74652" lon="5.89688">
        <ele>328.29</ele>
        <time>2013-11-11T08:05:28Z</time>
      </trkpt>
      <trkpt lat="43.74632" lon="5.89692">
        <ele>329.15</ele>
        <time>2013-11-11T08:05:34Z</time>
      </trkpt>
      <trkpt lat="43.74615" lon="5.89704">
        <ele>330.86</ele>
        <time>2013-11-11T08:05:39Z</time>
      </trkpt>
      <trkpt lat="43.74602" lon="5.89721">
        <ele>326.54</ele>
        <time>2013-11-11T08:05:49Z</time>
      </trkpt>
      <trkpt lat="43.74585" lon="5.89733">
        <ele>326.94</ele>
        <time>2013-11-11T08:05:57Z</time>
      </trkpt>
      <trkpt lat="43.74569" lon="5.89747">
        <ele>329.13</ele>
        <time>2013-11-11T08:06:06Z</time>
      </trkpt>
      <trkpt lat="43.74558" lon="5.89768">
        <ele>326.8</ele>
        <time>2013-11-11T08:06:27Z</time>
      </trkpt>
      <trkpt lat="43.74541" lon="5.89778">
        <ele>322.99</ele>
        <time>2013-11-11T08:06:36Z</time>
      </trkpt>
      <trkpt lat="43.74524" lon="5.89788">
        <ele>325.58</ele>
        <time>2013-11-11T08:06:43Z</time>
      </trkpt>
      <trkpt lat="43.74506" lon="5.89792">
        <ele>330.3</ele>
        <time>2013-11-11T08:06:50Z</time>
      </trkpt>
      <trkpt lat="43.7449" lon="5.89805">
        <ele>330.71</ele>
        <time>2013-11-11T08:07:01Z</time>
      </trkpt>
      <trkpt lat="43.74471" lon="5.89809">
        <ele>339.68</ele>
        <time>2013-11-11T08:07:09Z</time>
      </trkpt>
      <trkpt lat="43.74453" lon="5.89808">
        <ele>342.46</ele>
        <time>2013-11-11T08:07:17Z</time>
      </trkpt>
      <trkpt lat="43.74434" lon="5.89805">
        <ele>344.13</ele>
        <time>2013-11-11T08:07:30Z</time>
      </trkpt>
      <trkpt lat="43.7442" lon="5.89789">
        <ele>350.07</ele>
        <time>2013-11-11T08:07:43Z</time>
      </trkpt>
      <trkpt lat="43.74401" lon="5.89787">
        <ele>358.36</ele>
        <time>2013-11-11T08:07:54Z</time>
      </trkpt>
      <trkpt lat="43.74383" lon="5.89788">
        <ele>361.06</ele>
        <time>2013-11-11T08:08:05Z</time>
      </trkpt>
      <trkpt lat="43.74361" lon="5.89792">
        <ele>364.41</ele>
        <time>2013-11-11T08:08:12Z</time>
      </trkpt>
      <trkpt lat="43.74342" lon="5.89792">
        <ele>365.68</ele>
        <time>2013-11-11T08:08:19Z</time>
      </trkpt>
      <trkpt lat="43.74324" lon="5.89784">
        <ele>362.79</ele>
        <time>2013-11-11T08:08:28Z</time>
      </trkpt>
      <trkpt lat="43.74311" lon="5.89764">
        <ele>363.03</ele>
        <time>2013-11-11T08:08:37Z</time>
      </trkpt>
      <trkpt lat="43.74292" lon="5.89755">
        <ele>363.54</ele>
        <time>2013-11-11T08:08:43Z</time>
      </trkpt>
      <trkpt lat="43.74275" lon="5.89744">
        <ele>364.13</ele>
        <time>2013-11-11T08:08:51Z</time>
      </trkpt>
      <trkpt lat="43.74257" lon="5.89734">
        <ele>364.45</ele>
        <time>2013-11-11T08:09:00Z</time>
      </trkpt>
      <trkpt lat="43.74238" lon="5.8973">
        <ele>364.46</ele>
        <time>2013-11-11T08:09:04Z</time>
      </trkpt>
      <trkpt lat="43.74219" lon="5.8973">
        <ele>369.38</ele>
        <time>2013-11-11T08:09:10Z</time>
      </trkpt>
      <trkpt lat="43.74197" lon="5.89726">
        <ele>372.8</ele>
        <time>2013-11-11T08:09:20Z</time>
      </trkpt>
      <trkpt lat="43.74178" lon="5.89732">
        <ele>373.94</ele>
        <time>2013-11-11T08:09:24Z</time>
      </trkpt>
      <trkpt lat="43.74161" lon="5.89745">
        <ele>373.48</ele>
        <time>2013-11-11T08:09:29Z</time>
      </trkpt>
      <trkpt lat="43.74143" lon="5.8975">
        <ele>374.98</ele>
        <time>2013-11-11T08:09:34Z</time>
      </trkpt>
      <trkpt lat="43.74124" lon="5.89744">
        <ele>379.33</ele>
        <time>2013-11-11T08:09:42Z</time>
      </trkpt>
      <trkpt lat="43.74104" lon="5.8975">
        <ele>380.18</ele>
        <time>2013-11-11T08:09:49Z</time>
      </trkpt>
      <trkpt lat="43.74095" lon="5.89772">
        <ele>381.62</ele>
        <time>2013-11-11T08:10:02Z</time>
      </trkpt>
      <trkpt lat="43.74085" lon="5.89798">
        <ele>375.95</ele>
        <time>2013-11-11T08:10:10Z</time>
      </trkpt>
      <trkpt lat="43.74078" lon="5.89823">
        <ele>368.11</ele>
        <time>2013-11-11T08:10:15Z</time>
      </trkpt>
      <trkpt lat="43.74066" lon="5.89843">
        <ele>365.62</ele>
        <time>2013-11-11T08:10:23Z</time>
      </trkpt>
      <trkpt lat="43.74048" lon="5.89844">
        <ele>368.54</ele>
        <time>2013-11-11T08:10:38Z</time>
      </trkpt>
      <trkpt lat="43.74033" lon="5.8986">
        <ele>373.83</ele>
        <time>2013-11-11T08:10:45Z</time>
      </trkpt>
      <trkpt lat="43.74015" lon="5.89874">
        <ele>380.05</ele>
        <time>2013-11-11T08:10:51Z</time>
      </trkpt>
      <trkpt lat="43.73998" lon="5.89885">
        <ele>382.11</ele>
        <time>2013-11-11T08:10:58Z</time>
      </trkpt>
      <trkpt lat="43.73978" lon="5.89892">
        <ele>382.03</ele>
        <time>2013-11-11T08:11:07Z</time>
      </trkpt>
      <trkpt lat="43.7396" lon="5.89884">
        <ele>368.38</ele>
        <time>2013-11-11T08:11:24Z</time>
      </trkpt>
      <trkpt lat="43.73946" lon="5.89899">
        <ele>375.5</ele>
        <time>2013-11-11T08:11:49Z</time>
      </trkpt>
      <trkpt lat="43.73947" lon="5.89924">
        <ele>369.76</ele>
        <time>2013-11-11T08:11:59Z</time>
      </trkpt>
      <trkpt lat="43.73933" lon="5.89941">
        <ele>373.49</ele>
        <time>2013-11-11T08:12:11Z</time>
      </trkpt>
      <trkpt lat="43.73921" lon="5.89961">
        <ele>374.67</ele>
        <time>2013-11-11T08:12:25Z</time>
      </trkpt>
      <trkpt lat="43.73903" lon="5.89975">
        <ele>378.1</ele>
        <time>2013-11-11T08:12:36Z</time>
      </trkpt>
      <trkpt lat="43.73884" lon="5.89978">
        <ele>383.69</ele>
        <time>2013-11-11T08:12:53Z</time>
      </trkpt>
      <trkpt lat="43.7387" lon="5.89997">
        <ele>387.32</ele>
        <time>2013-11-11T08:13:02Z</time>
      </trkpt>
      <trkpt lat="43.73853" lon="5.90011">
        <ele>388.64</ele>
        <time>2013-11-11T08:13:12Z</time>
      </trkpt>
      <trkpt lat="43.73842" lon="5.90035">
        <ele>392.09</ele>
        <time>2013-11-11T08:13:21Z</time>
      </trkpt>
      <trkpt lat="43.7383" lon="5.90054">
        <ele>391.68</ele>
        <time>2013-11-11T08:13:30Z</time>
      </trkpt>
      <trkpt lat="43.73811" lon="5.9006">
        <ele>395.99</ele>
        <time>2013-11-11T08:13:45Z</time>
      </trkpt>
      <trkpt lat="43.738" lon="5.90081">
        <ele>395.89</ele>
        <time>2013-11-11T08:14:01Z</time>
      </trkpt>
      <trkpt lat="43.73786" lon="5.90099">
        <ele>396.52</ele>
        <time>2013-11-11T08:14:37Z</time>
      </trkpt>
      <trkpt lat="43.73768" lon="5.90108">
        <ele>418.11</ele>
        <time>2013-11-11T08:14:55Z</time>
      </trkpt>
      <trkpt lat="43.73749" lon="5.90109">
        <ele>437.05</ele>
        <time>2013-11-11T08:15:01Z</time>
      </trkpt>
      <trkpt lat="43.73733" lon="5.9012">
        <ele>443.53</ele>
        <time>2013-11-11T08:15:09Z</time>
      </trkpt>
      <trkpt lat="43.73717" lon="5.90135">
        <ele>445.34</ele>
        <time>2013-11-11T08:15:18Z</time>
      </trkpt>
      <trkpt lat="43.73699" lon="5.90146">
        <ele>442.73</ele>
        <time>2013-11-11T08:15:44Z</time>
      </trkpt>
      <trkpt lat="43.73685" lon="5.90161">
        <ele>438.65</ele>
        <time>2013-11-11T08:15:53Z</time>
      </trkpt>
      <trkpt lat="43.73667" lon="5.90176">
        <ele>437.97</ele>
        <time>2013-11-11T08:16:06Z</time>
      </trkpt>
      <trkpt lat="43.73648" lon="5.90182">
        <ele>437.1</ele>
        <time>2013-11-11T08:16:14Z</time>
      </trkpt>
      <trkpt lat="43.73631" lon="5.90194">
        <ele>433.62</ele>
        <time>2013-11-11T08:16:36Z</time>
      </trkpt>
      <trkpt lat="43.73612" lon="5.90194">
        <ele>430.89</ele>
        <time>2013-11-11T08:16:43Z</time>
      </trkpt>
      <trkpt lat="43.73594" lon="5.9019">
        <ele>430.21</ele>
        <time>2013-11-11T08:16:50Z</time>
      </trkpt>
      <trkpt lat="43.73579" lon="5.90206">
        <ele>429.02</ele>
        <time>2013-11-11T08:17:02Z</time>
      </trkpt>
      <trkpt lat="43.73562" lon="5.9022">
        <ele>426.7</ele>
        <time>2013-11-11T08:17:18Z</time>
      </trkpt>
      <trkpt lat="43.73545" lon="5.90226">
        <ele>428.66</ele>
        <time>2013-11-11T08:17:28Z</time>
      </trkpt>
      <trkpt lat="43.73528" lon="5.90238">
        <ele>436.5</ele>
        <time>2013-11-11T08:17:40Z</time>
      </trkpt>
      <trkpt lat="43.73514" lon="5.90255">
        <ele>441.01</ele>
        <time>2013-11-11T08:17:53Z</time>
      </trkpt>
      <trkpt lat="43.73506" lon="5.90279">
        <ele>442.38</ele>
        <time>2013-11-11T08:18:09Z</time>
      </trkpt>
      <trkpt lat="43.73491" lon="5.90294">
        <ele>447.63</ele>
        <time>2013-11-11T08:18:20Z</time>
      </trkpt>
      <trkpt lat="43.73476" lon="5.90309">
        <ele>452.55</ele>
        <time>2013-11-11T08:18:35Z</time>
      </trkpt>
      <trkpt lat="43.73465" lon="5.90329">
        <ele>447.94</ele>
        <time>2013-11-11T08:18:50Z</time>
      </trkpt>
      <trkpt lat="43.73447" lon="5.90336">
        <ele>460.61</ele>
        <time>2013-11-11T08:19:32Z</time>
      </trkpt>
      <trkpt lat="43.73432" lon="5.9035">
        <ele>474.86</ele>
        <time>2013-11-11T08:19:48Z</time>
      </trkpt>
      <trkpt lat="43.73423" lon="5.90372">
        <ele>477.11</ele>
        <time>2013-11-11T08:20:01Z</time>
      </trkpt>
      <trkpt lat="43.73408" lon="5.9039">
        <ele>486.43</ele>
        <time>2013-11-11T08:20:15Z</time>
      </trkpt>
      <trkpt lat="43.73391" lon="5.90404">
        <ele>492.08</ele>
        <time>2013-11-11T08:20:33Z</time>
      </trkpt>
      <trkpt lat="43.73382" lon="5.90427">
        <ele>487.3</ele>
        <time>2013-11-11T08:20:45Z</time>
      </trkpt>
      <trkpt lat="43.73372" lon="5.90448">
        <ele>486.38</ele>
        <time>2013-11-11T08:20:55Z</time>
      </trkpt>
      <trkpt lat="43.73364" lon="5.90472">
        <ele>487.25</ele>
        <time>2013-11-11T08:21:06Z</time>
      </trkpt>
      <trkpt lat="43.73353" lon="5.90492">
        <ele>485.04</ele>
        <time>2013-11-11T08:21:15Z</time>
      </trkpt>
      <trkpt lat="43.73339" lon="5.90511">
        <ele>488.57</ele>
        <time>2013-11-11T08:21:25Z</time>
      </trkpt>
      <trkpt lat="43.73322" lon="5.90515">
        <ele>491.57</ele>
        <time>2013-11-11T08:21:39Z</time>
      </trkpt>
      <trkpt lat="43.73303" lon="5.90514">
        <ele>493.66</ele>
        <time>2013-11-11T08:21:59Z</time>
      </trkpt>
      <trkpt lat="43.73285" lon="5.90516">
        <ele>498.83</ele>
        <time>2013-11-11T08:22:17Z</time>
      </trkpt>
      <trkpt lat="43.73272" lon="5.90534">
        <ele>499.81</ele>
        <time>2013-11-11T08:22:35Z</time>
      </trkpt>
      <trkpt lat="43.73254" lon="5.90546">
        <ele>505.05</ele>
        <time>2013-11-11T08:22:54Z</time>
      </trkpt>
      <trkpt lat="43.73237" lon="5.90552">
        <ele>508.2</ele>
        <time>2013-11-11T08:23:06Z</time>
      </trkpt>
      <trkpt lat="43.73218" lon="5.90555">
        <ele>508.94</ele>
        <time>2013-11-11T08:23:13Z</time>
      </trkpt>
      <trkpt lat="43.73201" lon="5.90566">
        <ele>512.37</ele>
        <time>2013-11-11T08:23:20Z</time>
      </trkpt>
      <trkpt lat="43.73185" lon="5.90576">
        <ele>523.63</ele>
        <time>2013-11-11T08:23:31Z</time>
      </trkpt>
      <trkpt lat="43.73166" lon="5.90587">
        <ele>524.73</ele>
        <time>2013-11-11T08:23:41Z</time>
      </trkpt>
      <trkpt lat="43.73149" lon="5.90596">
        <ele>529.98</ele>
        <time>2013-11-11T08:23:47Z</time>
      </trkpt>
      <trkpt lat="43.73139" lon="5.90619">
        <ele>529.71</ele>
        <time>2013-11-11T08:23:56Z</time>
      </trkpt>
      <trkpt lat="43.73128" lon="5.9064">
        <ele>531.97</ele>
        <time>2013-11-11T08:24:05Z</time>
      </trkpt>
      <trkpt lat="43.73121" lon="5.90664">
        <ele>538.35</ele>
        <time>2013-11-11T08:24:13Z</time>
      </trkpt>
      <trkpt lat="43.73116" lon="5.90689">
        <ele>537.06</ele>
        <time>2013-11-11T08:24:19Z</time>
      </trkpt>
      <trkpt lat="43.73108" lon="5.90712">
        <ele>537.66</ele>
        <time>2013-11-11T08:24:26Z</time>
      </trkpt>
      <trkpt lat="43.73114" lon="5.90736">
        <ele>533.06</ele>
        <time>2013-11-11T08:24:40Z</time>
      </trkpt>
      <trkpt lat="43.7313" lon="5.90749">
        <ele>524.22</ele>
        <time>2013-11-11T08:24:47Z</time>
      </trkpt>
      <trkpt lat="43.73152" lon="5.90756">
        <ele>526.23</ele>
        <time>2013-11-11T08:25:00Z</time>
      </trkpt>
      <trkpt lat="43.73171" lon="5.90761">
        <ele>526.52</ele>
        <time>2013-11-11T08:25:06Z</time>
      </trkpt>
      <trkpt lat="43.73189" lon="5.90763">
        <ele>531.68</ele>
        <time>2013-11-11T08:25:15Z</time>
      </trkpt>
      <trkpt lat="43.73208" lon="5.90762">
        <ele>535.28</ele>
        <time>2013-11-11T08:25:30Z</time>
      </trkpt>
      <trkpt lat="43.73225" lon="5.90751">
        <ele>538.13</ele>
        <time>2013-11-11T08:25:42Z</time>
      </trkpt>
      <trkpt lat="43.73244" lon="5.90752">
        <ele>541.33</ele>
        <time>2013-11-11T08:25:52Z</time>
      </trkpt>
      <trkpt lat="43.7326" lon="5.90765">
        <ele>545.7</ele>
        <time>2013-11-11T08:26:04Z</time>
      </trkpt>
      <trkpt lat="43.73268" lon="5.90789">
        <ele>552.54</ele>
        <time>2013-11-11T08:26:17Z</time>
      </trkpt>
      <trkpt lat="43.73277" lon="5.90813">
        <ele>553.15</ele>
        <time>2013-11-11T08:26:28Z</time>
      </trkpt>
      <trkpt lat="43.73295" lon="5.90823">
        <ele>553.99</ele>
        <time>2013-11-11T08:26:38Z</time>
      </trkpt>
      <trkpt lat="43.73312" lon="5.90834">
        <ele>557.63</ele>
        <time>2013-11-11T08:26:48Z</time>
      </trkpt>
      <trkpt lat="43.73328" lon="5.90852">
        <ele>558.49</ele>
        <time>2013-11-11T08:26:57Z</time>
      </trkpt>
      <trkpt lat="43.73337" lon="5.90874">
        <ele>560.97</ele>
        <time>2013-11-11T08:27:09Z</time>
      </trkpt>
      <trkpt lat="43.7335" lon="5.90893">
        <ele>560.71</ele>
        <time>2013-11-11T08:27:20Z</time>
      </trkpt>
      <trkpt lat="43.73364" lon="5.90911">
        <ele>564.47</ele>
        <time>2013-11-11T08:27:32Z</time>
      </trkpt>
      <trkpt lat="43.73381" lon="5.90924">
        <ele>565.94</ele>
        <time>2013-11-11T08:27:43Z</time>
      </trkpt>
      <trkpt lat="43.73396" lon="5.90942">
        <ele>570.87</ele>
        <time>2013-11-11T08:27:52Z</time>
      </trkpt>
      <trkpt lat="43.7341" lon="5.90959">
        <ele>572.81</ele>
        <time>2013-11-11T08:28:01Z</time>
      </trkpt>
      <trkpt lat="43.73425" lon="5.90975">
        <ele>571.39</ele>
        <time>2013-11-11T08:28:10Z</time>
      </trkpt>
      <trkpt lat="43.73441" lon="5.90988">
        <ele>573.1</ele>
        <time>2013-11-11T08:28:19Z</time>
      </trkpt>
      <trkpt lat="43.73458" lon="5.91002">
        <ele>572.15</ele>
        <time>2013-11-11T08:28:28Z</time>
      </trkpt>
      <trkpt lat="43.73473" lon="5.91017">
        <ele>574.45</ele>
        <time>2013-11-11T08:28:37Z</time>
      </trkpt>
      <trkpt lat="43.7349" lon="5.91027">
        <ele>573.52</ele>
        <time>2013-11-11T08:28:46Z</time>
      </trkpt>
      <trkpt lat="43.73505" lon="5.91041">
        <ele>573.05</ele>
        <time>2013-11-11T08:28:52Z</time>
      </trkpt>
      <trkpt lat="43.73522" lon="5.91053">
        <ele>572.19</ele>
        <time>2013-11-11T08:28:58Z</time>
      </trkpt>
      <trkpt lat="43.73536" lon="5.91069">
        <ele>574.49</ele>
        <time>2013-11-11T08:29:04Z</time>
      </trkpt>
      <trkpt lat="43.73553" lon="5.91082">
        <ele>577.39</ele>
        <time>2013-11-11T08:29:11Z</time>
      </trkpt>
      <trkpt lat="43.73565" lon="5.91101">
        <ele>584.28</ele>
        <time>2013-11-11T08:29:19Z</time>
      </trkpt>
      <trkpt lat="43.73563" lon="5.91126">
        <ele>588.79</ele>
        <time>2013-11-11T08:29:30Z</time>
      </trkpt>
      <trkpt lat="43.73552" lon="5.91146">
        <ele>595.04</ele>
        <time>2013-11-11T08:29:41Z</time>
      </trkpt>
      <trkpt lat="43.7354" lon="5.91168">
        <ele>596.35</ele>
        <time>2013-11-11T08:29:49Z</time>
      </trkpt>
      <trkpt lat="43.73536" lon="5.91193">
        <ele>596.7</ele>
        <time>2013-11-11T08:29:56Z</time>
      </trkpt>
      <trkpt lat="43.7353" lon="5.91218">
        <ele>597.3</ele>
        <time>2013-11-11T08:30:04Z</time>
      </trkpt>
      <trkpt lat="43.73526" lon="5.91243">
        <ele>597.99</ele>
        <time>2013-11-11T08:30:11Z</time>
      </trkpt>
      <trkpt lat="43.73513" lon="5.91259">
        <ele>597.33</ele>
        <time>2013-11-11T08:30:20Z</time>
      </trkpt>
      <trkpt lat="43.73504" lon="5.91283">
        <ele>597.17</ele>
        <time>2013-11-11T08:30:27Z</time>
      </trkpt>
      <trkpt lat="43.73494" lon="5.91308">
        <ele>596.57</ele>
        <time>2013-11-11T08:30:34Z</time>
      </trkpt>
      <trkpt lat="43.73488" lon="5.91332">
        <ele>595.16</ele>
        <time>2013-11-11T08:30:39Z</time>
      </trkpt>
      <trkpt lat="43.7348" lon="5.91355">
        <ele>597.64</ele>
        <time>2013-11-11T08:30:46Z</time>
      </trkpt>
      <trkpt lat="43.73472" lon="5.91377">
        <ele>596.99</ele>
        <time>2013-11-11T08:30:51Z</time>
      </trkpt>
      <trkpt lat="43.73458" lon="5.91394">
        <ele>599.08</ele>
        <time>2013-11-11T08:30:56Z</time>
      </trkpt>
      <trkpt lat="43.73443" lon="5.91409">
        <ele>599.05</ele>
        <time>2013-11-11T08:31:01Z</time>
      </trkpt>
      <trkpt lat="43.73431" lon="5.91435">
        <ele>595.99</ele>
        <time>2013-11-11T08:31:06Z</time>
      </trkpt>
      <trkpt lat="43.73424" lon="5.91463">
        <ele>596.08</ele>
        <time>2013-11-11T08:31:11Z</time>
      </trkpt>
      <trkpt lat="43.73415" lon="5.91487">
        <ele>597.29</ele>
        <time>2013-11-11T08:31:16Z</time>
      </trkpt>
      <trkpt lat="43.73405" lon="5.9151">
        <ele>598.39</ele>
        <time>2013-11-11T08:31:22Z</time>
      </trkpt>
      <trkpt lat="43.73395" lon="5.91534">
        <ele>598.29</ele>
        <time>2013-11-11T08:31:27Z</time>
      </trkpt>
      <trkpt lat="43.73383" lon="5.91553">
        <ele>600.44</ele>
        <time>2013-11-11T08:31:32Z</time>
      </trkpt>
      <trkpt lat="43.73366" lon="5.91569">
        <ele>603.55</ele>
        <time>2013-11-11T08:31:38Z</time>
      </trkpt>
      <trkpt lat="43.73355" lon="5.9159">
        <ele>604.86</ele>
        <time>2013-11-11T08:31:43Z</time>
      </trkpt>
      <trkpt lat="43.73344" lon="5.91611">
        <ele>604.01</ele>
        <time>2013-11-11T08:31:47Z</time>
      </trkpt>
      <trkpt lat="43.73335" lon="5.91637">
        <ele>600.86</ele>
        <time>2013-11-11T08:31:51Z</time>
      </trkpt>
      <trkpt lat="43.73322" lon="5.91655">
        <ele>601.45</ele>
        <time>2013-11-11T08:31:56Z</time>
      </trkpt>
      <trkpt lat="43.73313" lon="5.9168">
        <ele>598.91</ele>
        <time>2013-11-11T08:32:00Z</time>
      </trkpt>
      <trkpt lat="43.73302" lon="5.91702">
        <ele>597.43</ele>
        <time>2013-11-11T08:32:05Z</time>
      </trkpt>
      <trkpt lat="43.73285" lon="5.91719">
        <ele>596.66</ele>
        <time>2013-11-11T08:32:10Z</time>
      </trkpt>
      <trkpt lat="43.73273" lon="5.91743">
        <ele>597.11</ele>
        <time>2013-11-11T08:32:15Z</time>
      </trkpt>
      <trkpt lat="43.73256" lon="5.9176">
        <ele>597.17</ele>
        <time>2013-11-11T08:32:20Z</time>
      </trkpt>
      <trkpt lat="43.7324" lon="5.91772">
        <ele>597.64</ele>
        <time>2013-11-11T08:32:26Z</time>
      </trkpt>
      <trkpt lat="43.73222" lon="5.91788">
        <ele>600.6</ele>
        <time>2013-11-11T08:32:34Z</time>
      </trkpt>
      <trkpt lat="43.73208" lon="5.91804">
        <ele>598.99</ele>
        <time>2013-11-11T08:32:39Z</time>
      </trkpt>
      <trkpt lat="43.73189" lon="5.91806">
        <ele>597.14</ele>
        <time>2013-11-11T08:32:46Z</time>
      </trkpt>
      <trkpt lat="43.73171" lon="5.91812">
        <ele>598.26</ele>
        <time>2013-11-11T08:32:52Z</time>
      </trkpt>
      <trkpt lat="43.73152" lon="5.91818">
        <ele>595.5</ele>
        <time>2013-11-11T08:32:59Z</time>
      </trkpt>
      <trkpt lat="43.73134" lon="5.9182">
        <ele>596.69</ele>
        <time>2013-11-11T08:33:05Z</time>
      </trkpt>
      <trkpt lat="43.73114" lon="5.91822">
        <ele>595.34</ele>
        <time>2013-11-11T08:33:11Z</time>
      </trkpt>
      <trkpt lat="43.73095" lon="5.91813">
        <ele>594.85</ele>
        <time>2013-11-11T08:33:17Z</time>
      </trkpt>
      <trkpt lat="43.73077" lon="5.91815">
        <ele>596.9</ele>
        <time>2013-11-11T08:33:22Z</time>
      </trkpt>
      <trkpt lat="43.73057" lon="5.91825">
        <ele>596.51</ele>
        <time>2013-11-11T08:33:27Z</time>
      </trkpt>
      <trkpt lat="43.73041" lon="5.91842">
        <ele>596.52</ele>
        <time>2013-11-11T08:33:31Z</time>
      </trkpt>
      <trkpt lat="43.73026" lon="5.91857">
        <ele>596.8</ele>
        <time>2013-11-11T08:33:35Z</time>
      </trkpt>
      <trkpt lat="43.73012" lon="5.91879">
        <ele>596.91</ele>
        <time>2013-11-11T08:33:40Z</time>
      </trkpt>
      <trkpt lat="43.73019" lon="5.91906">
        <ele>597.86</ele>
        <time>2013-11-11T08:33:45Z</time>
      </trkpt>
      <trkpt lat="43.73039" lon="5.9193">
        <ele>596.44</ele>
        <time>2013-11-11T08:33:49Z</time>
      </trkpt>
      <trkpt lat="43.73059" lon="5.91944">
        <ele>593.22</ele>
        <time>2013-11-11T08:33:54Z</time>
      </trkpt>
      <trkpt lat="43.73067" lon="5.91968">
        <ele>592.1</ele>
        <time>2013-11-11T08:33:59Z</time>
      </trkpt>
      <trkpt lat="43.73064" lon="5.91995">
        <ele>591.01</ele>
        <time>2013-11-11T08:34:03Z</time>
      </trkpt>
      <trkpt lat="43.73055" lon="5.92017">
        <ele>591.15</ele>
        <time>2013-11-11T08:34:07Z</time>
      </trkpt>
      <trkpt lat="43.73047" lon="5.92045">
        <ele>591.07</ele>
        <time>2013-11-11T08:34:11Z</time>
      </trkpt>
      <trkpt lat="43.73043" lon="5.9207">
        <ele>591.26</ele>
        <time>2013-11-11T08:34:15Z</time>
      </trkpt>
      <trkpt lat="43.73042" lon="5.92094">
        <ele>591.49</ele>
        <time>2013-11-11T08:34:19Z</time>
      </trkpt>
      <trkpt lat="43.73034" lon="5.92118">
        <ele>590.65</ele>
        <time>2013-11-11T08:34:23Z</time>
      </trkpt>
      <trkpt lat="43.73023" lon="5.92142">
        <ele>588.98</ele>
        <time>2013-11-11T08:34:27Z</time>
      </trkpt>
      <trkpt lat="43.73008" lon="5.92163">
        <ele>586.58</ele>
        <time>2013-11-11T08:34:32Z</time>
      </trkpt>
      <trkpt lat="43.72992" lon="5.92173">
        <ele>587.21</ele>
        <time>2013-11-11T08:34:36Z</time>
      </trkpt>
      <trkpt lat="43.72974" lon="5.92188">
        <ele>586.43</ele>
        <time>2013-11-11T08:34:40Z</time>
      </trkpt>
      <trkpt lat="43.7296" lon="5.92208">
        <ele>585.05</ele>
        <time>2013-11-11T08:34:44Z</time>
      </trkpt>
      <trkpt lat="43.72945" lon="5.92224">
        <ele>584.34</ele>
        <time>2013-11-11T08:34:48Z</time>
      </trkpt>
      <trkpt lat="43.72929" lon="5.92241">
        <ele>583.34</ele>
        <time>2013-11-11T08:34:52Z</time>
      </trkpt>
      <trkpt lat="43.72911" lon="5.92262">
        <ele>582.67</ele>
        <time>2013-11-11T08:34:56Z</time>
      </trkpt>
      <trkpt lat="43.72895" lon="5.92286">
        <ele>583.04</ele>
        <time>2013-11-11T08:35:00Z</time>
      </trkpt>
      <trkpt lat="43.72882" lon="5.92304">
        <ele>582.52</ele>
        <time>2013-11-11T08:35:03Z</time>
      </trkpt>
      <trkpt lat="43.72865" lon="5.9232">
        <ele>582.4</ele>
        <time>2013-11-11T08:35:06Z</time>
      </trkpt>
      <trkpt lat="43.72848" lon="5.92335">
        <ele>582.07</ele>
        <time>2013-11-11T08:35:09Z</time>
      </trkpt>
      <trkpt lat="43.72832" lon="5.92355">
        <ele>582.11</ele>
        <time>2013-11-11T08:35:12Z</time>
      </trkpt>
      <trkpt lat="43.72817" lon="5.92381">
        <ele>580.14</ele>
        <time>2013-11-11T08:35:15Z</time>
      </trkpt>
      <trkpt lat="43.72803" lon="5.92408">
        <ele>579.17</ele>
        <time>2013-11-11T08:35:18Z</time>
      </trkpt>
      <trkpt lat="43.72789" lon="5.92437">
        <ele>577.85</ele>
        <time>2013-11-11T08:35:21Z</time>
      </trkpt>
      <trkpt lat="43.72778" lon="5.92463">
        <ele>576.53</ele>
        <time>2013-11-11T08:35:24Z</time>
      </trkpt>
      <trkpt lat="43.72763" lon="5.92491">
        <ele>576.52</ele>
        <time>2013-11-11T08:35:27Z</time>
      </trkpt>
      <trkpt lat="43.72754" lon="5.92517">
        <ele>576.19</ele>
        <time>2013-11-11T08:35:30Z</time>
      </trkpt>
      <trkpt lat="43.72747" lon="5.92542">
        <ele>577.2</ele>
        <time>2013-11-11T08:35:33Z</time>
      </trkpt>
      <trkpt lat="43.72741" lon="5.92568">
        <ele>576.22</ele>
        <time>2013-11-11T08:35:36Z</time>
      </trkpt>
      <trkpt lat="43.7273" lon="5.92592">
        <ele>576.51</ele>
        <time>2013-11-11T08:35:39Z</time>
      </trkpt>
      <trkpt lat="43.72724" lon="5.92616">
        <ele>577.21</ele>
        <time>2013-11-11T08:35:42Z</time>
      </trkpt>
      <trkpt lat="43.72715" lon="5.92645">
        <ele>579.08</ele>
        <time>2013-11-11T08:35:46Z</time>
      </trkpt>
      <trkpt lat="43.72706" lon="5.92669">
        <ele>579.41</ele>
        <time>2013-11-11T08:35:49Z</time>
      </trkpt>
      <trkpt lat="43.72699" lon="5.92692">
        <ele>579.6</ele>
        <time>2013-11-11T08:35:52Z</time>
      </trkpt>
      <trkpt lat="43.7269" lon="5.9272">
        <ele>577.51</ele>
        <time>2013-11-11T08:35:55Z</time>
      </trkpt>
      <trkpt lat="43.72678" lon="5.92742">
        <ele>576.43</ele>
        <time>2013-11-11T08:35:58Z</time>
      </trkpt>
      <trkpt lat="43.72669" lon="5.92767">
        <ele>577.94</ele>
        <time>2013-11-11T08:36:02Z</time>
      </trkpt>
      <trkpt lat="43.72652" lon="5.92789">
        <ele>578.94</ele>
        <time>2013-11-11T08:36:06Z</time>
      </trkpt>
      <trkpt lat="43.72641" lon="5.9281">
        <ele>579.25</ele>
        <time>2013-11-11T08:36:09Z</time>
      </trkpt>
      <trkpt lat="43.72626" lon="5.92831">
        <ele>580.06</ele>
        <time>2013-11-11T08:36:12Z</time>
      </trkpt>
      <trkpt lat="43.72614" lon="5.92851">
        <ele>579.84</ele>
        <time>2013-11-11T08:36:15Z</time>
      </trkpt>
      <trkpt lat="43.72597" lon="5.92868">
        <ele>577.92</ele>
        <time>2013-11-11T08:36:18Z</time>
      </trkpt>
      <trkpt lat="43.72581" lon="5.92881">
        <ele>575.98</ele>
        <time>2013-11-11T08:36:21Z</time>
      </trkpt>
      <trkpt lat="43.72562" lon="5.92887">
        <ele>576.41</ele>
        <time>2013-11-11T08:36:24Z</time>
      </trkpt>
      <trkpt lat="43.72541" lon="5.92901">
        <ele>576.23</ele>
        <time>2013-11-11T08:36:28Z</time>
      </trkpt>
      <trkpt lat="43.72523" lon="5.92913">
        <ele>576.45</ele>
        <time>2013-11-11T08:36:32Z</time>
      </trkpt>
      <trkpt lat="43.72502" lon="5.92921">
        <ele>581.88</ele>
        <time>2013-11-11T08:36:37Z</time>
      </trkpt>
      <trkpt lat="43.72486" lon="5.92933">
        <ele>582.55</ele>
        <time>2013-11-11T08:36:40Z</time>
      </trkpt>
      <trkpt lat="43.7247" lon="5.92949">
        <ele>579.59</ele>
        <time>2013-11-11T08:36:44Z</time>
      </trkpt>
      <trkpt lat="43.72451" lon="5.92961">
        <ele>579.56</ele>
        <time>2013-11-11T08:36:48Z</time>
      </trkpt>
      <trkpt lat="43.72431" lon="5.92967">
        <ele>579.41</ele>
        <time>2013-11-11T08:36:55Z</time>
      </trkpt>
      <trkpt lat="43.72424" lon="5.92992">
        <ele>578.9</ele>
        <time>2013-11-11T08:38:46Z</time>
      </trkpt>
      <trkpt lat="43.7244" lon="5.93009">
        <ele>582.22</ele>
        <time>2013-11-11T08:38:57Z</time>
      </trkpt>
      <trkpt lat="43.7244" lon="5.93035">
        <ele>582.04</ele>
        <time>2013-11-11T08:39:05Z</time>
      </trkpt>
      <trkpt lat="43.72421" lon="5.93036">
        <ele>580.05</ele>
        <time>2013-11-11T08:39:18Z</time>
      </trkpt>
      <trkpt lat="43.72405" lon="5.93055">
        <ele>577.12</ele>
        <time>2013-11-11T08:39:26Z</time>
      </trkpt>
      <trkpt lat="43.72385" lon="5.93072">
        <ele>575.51</ele>
        <time>2013-11-11T08:39:28Z</time>
      </trkpt>
      <trkpt lat="43.72368" lon="5.93097">
        <ele>573.38</ele>
        <time>2013-11-11T08:39:31Z</time>
      </trkpt>
      <trkpt lat="43.7236" lon="5.93121">
        <ele>571.21</ele>
        <time>2013-11-11T08:39:34Z</time>
      </trkpt>
      <trkpt lat="43.72352" lon="5.93143">
        <ele>567.9</ele>
        <time>2013-11-11T08:39:37Z</time>
      </trkpt>
      <trkpt lat="43.72339" lon="5.93167">
        <ele>563.11</ele>
        <time>2013-11-11T08:39:42Z</time>
      </trkpt>
      <trkpt lat="43.72323" lon="5.9318">
        <ele>560.64</ele>
        <time>2013-11-11T08:39:53Z</time>
      </trkpt>
      <trkpt lat="43.72323" lon="5.93205">
        <ele>546.64</ele>
        <time>2013-11-11T08:40:05Z</time>
      </trkpt>
      <trkpt lat="43.72307" lon="5.93223">
        <ele>547.28</ele>
        <time>2013-11-11T08:40:12Z</time>
      </trkpt>
      <trkpt lat="43.72328" lon="5.93233">
        <ele>546.6</ele>
        <time>2013-11-11T08:40:18Z</time>
      </trkpt>
      <trkpt lat="43.7235" lon="5.93235">
        <ele>544.02</ele>
        <time>2013-11-11T08:40:23Z</time>
      </trkpt>
      <trkpt lat="43.72371" lon="5.93231">
        <ele>543.08</ele>
        <time>2013-11-11T08:40:27Z</time>
      </trkpt>
      <trkpt lat="43.72389" lon="5.93242">
        <ele>537.17</ele>
        <time>2013-11-11T08:40:30Z</time>
      </trkpt>
      <trkpt lat="43.72409" lon="5.9326">
        <ele>532.07</ele>
        <time>2013-11-11T08:40:37Z</time>
      </trkpt>
      <trkpt lat="43.7243" lon="5.9327">
        <ele>525.78</ele>
        <time>2013-11-11T08:40:41Z</time>
      </trkpt>
      <trkpt lat="43.72447" lon="5.93288">
        <ele>521.65</ele>
        <time>2013-11-11T08:40:44Z</time>
      </trkpt>
      <trkpt lat="43.72466" lon="5.93304">
        <ele>520.29</ele>
        <time>2013-11-11T08:40:48Z</time>
      </trkpt>
      <trkpt lat="43.72476" lon="5.93332">
        <ele>519.29</ele>
        <time>2013-11-11T08:40:52Z</time>
      </trkpt>
      <trkpt lat="43.72494" lon="5.93351">
        <ele>522.86</ele>
        <time>2013-11-11T08:40:58Z</time>
      </trkpt>
      <trkpt lat="43.72518" lon="5.93358">
        <ele>523.63</ele>
        <time>2013-11-11T08:41:01Z</time>
      </trkpt>
      <trkpt lat="43.72536" lon="5.93363">
        <ele>523.57</ele>
        <time>2013-11-11T08:41:04Z</time>
      </trkpt>
      <trkpt lat="43.72554" lon="5.93362">
        <ele>523.52</ele>
        <time>2013-11-11T08:41:07Z</time>
      </trkpt>
      <trkpt lat="43.72576" lon="5.93355">
        <ele>524</ele>
        <time>2013-11-11T08:41:10Z</time>
      </trkpt>
      <trkpt lat="43.72598" lon="5.93349">
        <ele>524.83</ele>
        <time>2013-11-11T08:41:14Z</time>
      </trkpt>
      <trkpt lat="43.72614" lon="5.93334">
        <ele>525.1</ele>
        <time>2013-11-11T08:41:17Z</time>
      </trkpt>
      <trkpt lat="43.72636" lon="5.93336">
        <ele>525.78</ele>
        <time>2013-11-11T08:41:23Z</time>
      </trkpt>
      <trkpt lat="43.7266" lon="5.93343">
        <ele>523.68</ele>
        <time>2013-11-11T08:41:28Z</time>
      </trkpt>
      <trkpt lat="43.72679" lon="5.93349">
        <ele>521.87</ele>
        <time>2013-11-11T08:41:31Z</time>
      </trkpt>
      <trkpt lat="43.727" lon="5.93352">
        <ele>520.17</ele>
        <time>2013-11-11T08:41:34Z</time>
      </trkpt>
      <trkpt lat="43.72724" lon="5.9335">
        <ele>516.01</ele>
        <time>2013-11-11T08:41:37Z</time>
      </trkpt>
      <trkpt lat="43.72748" lon="5.93355">
        <ele>511.29</ele>
        <time>2013-11-11T08:41:41Z</time>
      </trkpt>
      <trkpt lat="43.72766" lon="5.93366">
        <ele>510.42</ele>
        <time>2013-11-11T08:41:44Z</time>
      </trkpt>
      <trkpt lat="43.72781" lon="5.93383">
        <ele>509.88</ele>
        <time>2013-11-11T08:41:47Z</time>
      </trkpt>
      <trkpt lat="43.728" lon="5.934">
        <ele>503.77</ele>
        <time>2013-11-11T08:41:50Z</time>
      </trkpt>
      <trkpt lat="43.72815" lon="5.93422">
        <ele>502.46</ele>
        <time>2013-11-11T08:41:54Z</time>
      </trkpt>
      <trkpt lat="43.7283" lon="5.93441">
        <ele>502.82</ele>
        <time>2013-11-11T08:41:58Z</time>
      </trkpt>
      <trkpt lat="43.72848" lon="5.93446">
        <ele>502.15</ele>
        <time>2013-11-11T08:42:02Z</time>
      </trkpt>
      <trkpt lat="43.72851" lon="5.93472">
        <ele>501.71</ele>
        <time>2013-11-11T08:42:14Z</time>
      </trkpt>
      <trkpt lat="43.72849" lon="5.93497">
        <ele>505.97</ele>
        <time>2013-11-11T08:42:23Z</time>
      </trkpt>
      <trkpt lat="43.72836" lon="5.93516">
        <ele>509.61</ele>
        <time>2013-11-11T08:42:31Z</time>
      </trkpt>
      <trkpt lat="43.72822" lon="5.93537">
        <ele>510.5</ele>
        <time>2013-11-11T08:42:39Z</time>
      </trkpt>
      <trkpt lat="43.72809" lon="5.93559">
        <ele>506.9</ele>
        <time>2013-11-11T08:42:43Z</time>
      </trkpt>
      <trkpt lat="43.72793" lon="5.93572">
        <ele>506.84</ele>
        <time>2013-11-11T08:42:47Z</time>
      </trkpt>
      <trkpt lat="43.72782" lon="5.93592">
        <ele>505.13</ele>
        <time>2013-11-11T08:43:07Z</time>
      </trkpt>
      <trkpt lat="43.72766" lon="5.93604">
        <ele>504.15</ele>
        <time>2013-11-11T08:43:19Z</time>
      </trkpt>
      <trkpt lat="43.72752" lon="5.93619">
        <ele>507.38</ele>
        <time>2013-11-11T08:43:33Z</time>
      </trkpt>
      <trkpt lat="43.72734" lon="5.93625">
        <ele>508</ele>
        <time>2013-11-11T08:43:44Z</time>
      </trkpt>
      <trkpt lat="43.72718" lon="5.93641">
        <ele>510.51</ele>
        <time>2013-11-11T08:43:56Z</time>
      </trkpt>
      <trkpt lat="43.72706" lon="5.93663">
        <ele>509.58</ele>
        <time>2013-11-11T08:44:03Z</time>
      </trkpt>
      <trkpt lat="43.72688" lon="5.93674">
        <ele>510.54</ele>
        <time>2013-11-11T08:44:09Z</time>
      </trkpt>
      <trkpt lat="43.72674" lon="5.93689">
        <ele>507.5</ele>
        <time>2013-11-11T08:44:41Z</time>
      </trkpt>
      <trkpt lat="43.72658" lon="5.93702">
        <ele>507.48</ele>
        <time>2013-11-11T08:44:49Z</time>
      </trkpt>
      <trkpt lat="43.72651" lon="5.93725">
        <ele>507.4</ele>
        <time>2013-11-11T08:45:05Z</time>
      </trkpt>
      <trkpt lat="43.7265" lon="5.93751">
        <ele>511.27</ele>
        <time>2013-11-11T08:45:22Z</time>
      </trkpt>
      <trkpt lat="43.72658" lon="5.93774">
        <ele>516.45</ele>
        <time>2013-11-11T08:45:32Z</time>
      </trkpt>
      <trkpt lat="43.72676" lon="5.9379">
        <ele>516.47</ele>
        <time>2013-11-11T08:47:13Z</time>
      </trkpt>
      <trkpt lat="43.72694" lon="5.93796">
        <ele>515.22</ele>
        <time>2013-11-11T08:47:18Z</time>
      </trkpt>
      <trkpt lat="43.72712" lon="5.93804">
        <ele>515.97</ele>
        <time>2013-11-11T08:47:24Z</time>
      </trkpt>
      <trkpt lat="43.7273" lon="5.93809">
        <ele>515.73</ele>
        <time>2013-11-11T08:47:30Z</time>
      </trkpt>
      <trkpt lat="43.72753" lon="5.93818">
        <ele>512.68</ele>
        <time>2013-11-11T08:47:35Z</time>
      </trkpt>
      <trkpt lat="43.7277" lon="5.93829">
        <ele>510.48</ele>
        <time>2013-11-11T08:47:38Z</time>
      </trkpt>
      <trkpt lat="43.72788" lon="5.93842">
        <ele>508.22</ele>
        <time>2013-11-11T08:47:41Z</time>
      </trkpt>
      <trkpt lat="43.72808" lon="5.93846">
        <ele>506.69</ele>
        <time>2013-11-11T08:47:44Z</time>
      </trkpt>
      <trkpt lat="43.72832" lon="5.93844">
        <ele>505.18</ele>
        <time>2013-11-11T08:47:48Z</time>
      </trkpt>
      <trkpt lat="43.72834" lon="5.93874">
        <ele>500.37</ele>
        <time>2013-11-11T08:47:56Z</time>
      </trkpt>
      <trkpt lat="43.72817" lon="5.93893">
        <ele>498.87</ele>
        <time>2013-11-11T08:48:00Z</time>
      </trkpt>
      <trkpt lat="43.72814" lon="5.93918">
        <ele>497.69</ele>
        <time>2013-11-11T08:48:04Z</time>
      </trkpt>
      <trkpt lat="43.72801" lon="5.93943">
        <ele>498.53</ele>
        <time>2013-11-11T08:48:10Z</time>
      </trkpt>
      <trkpt lat="43.72788" lon="5.93961">
        <ele>496.67</ele>
        <time>2013-11-11T08:48:13Z</time>
      </trkpt>
      <trkpt lat="43.72775" lon="5.93981">
        <ele>493.46</ele>
        <time>2013-11-11T08:48:19Z</time>
      </trkpt>
      <trkpt lat="43.72755" lon="5.9399">
        <ele>485.1</ele>
        <time>2013-11-11T08:48:27Z</time>
      </trkpt>
      <trkpt lat="43.72739" lon="5.94011">
        <ele>482.74</ele>
        <time>2013-11-11T08:48:31Z</time>
      </trkpt>
      <trkpt lat="43.72736" lon="5.9404">
        <ele>482.48</ele>
        <time>2013-11-11T08:48:37Z</time>
      </trkpt>
      <trkpt lat="43.72735" lon="5.94065">
        <ele>494.68</ele>
        <time>2013-11-11T08:48:53Z</time>
      </trkpt>
      <trkpt lat="43.72735" lon="5.94091">
        <ele>498.21</ele>
        <time>2013-11-11T08:49:18Z</time>
      </trkpt>
      <trkpt lat="43.72726" lon="5.94113">
        <ele>497.94</ele>
        <time>2013-11-11T08:49:38Z</time>
      </trkpt>
      <trkpt lat="43.72719" lon="5.94136">
        <ele>493.79</ele>
        <time>2013-11-11T08:50:06Z</time>
      </trkpt>
      <trkpt lat="43.7271" lon="5.94159">
        <ele>489.99</ele>
        <time>2013-11-11T08:50:19Z</time>
      </trkpt>
      <trkpt lat="43.72694" lon="5.94178">
        <ele>490.15</ele>
        <time>2013-11-11T08:50:22Z</time>
      </trkpt>
      <trkpt lat="43.72681" lon="5.94196">
        <ele>488.24</ele>
        <time>2013-11-11T08:50:25Z</time>
      </trkpt>
      <trkpt lat="43.72667" lon="5.94214">
        <ele>485.85</ele>
        <time>2013-11-11T08:50:29Z</time>
      </trkpt>
      <trkpt lat="43.7265" lon="5.94227">
        <ele>486.84</ele>
        <time>2013-11-11T08:50:32Z</time>
      </trkpt>
      <trkpt lat="43.72646" lon="5.94252">
        <ele>498.64</ele>
        <time>2013-11-11T08:50:46Z</time>
      </trkpt>
      <trkpt lat="43.72638" lon="5.94276">
        <ele>502.67</ele>
        <time>2013-11-11T08:51:09Z</time>
      </trkpt>
      <trkpt lat="43.72633" lon="5.94301">
        <ele>500.81</ele>
        <time>2013-11-11T08:51:35Z</time>
      </trkpt>
      <trkpt lat="43.72622" lon="5.94324">
        <ele>500.22</ele>
        <time>2013-11-11T08:51:56Z</time>
      </trkpt>
      <trkpt lat="43.72609" lon="5.94343">
        <ele>501.57</ele>
        <time>2013-11-11T08:52:07Z</time>
      </trkpt>
      <trkpt lat="43.72597" lon="5.94364">
        <ele>496.96</ele>
        <time>2013-11-11T08:52:15Z</time>
      </trkpt>
      <trkpt lat="43.72584" lon="5.94382">
        <ele>496.31</ele>
        <time>2013-11-11T08:52:18Z</time>
      </trkpt>
      <trkpt lat="43.72568" lon="5.94397">
        <ele>494.93</ele>
        <time>2013-11-11T08:52:22Z</time>
      </trkpt>
      <trkpt lat="43.72549" lon="5.94403">
        <ele>491.08</ele>
        <time>2013-11-11T08:52:26Z</time>
      </trkpt>
      <trkpt lat="43.72531" lon="5.94408">
        <ele>486.56</ele>
        <time>2013-11-11T08:52:30Z</time>
      </trkpt>
      <trkpt lat="43.72506" lon="5.94415">
        <ele>481.18</ele>
        <time>2013-11-11T08:52:33Z</time>
      </trkpt>
      <trkpt lat="43.72491" lon="5.94431">
        <ele>477.53</ele>
        <time>2013-11-11T08:52:37Z</time>
      </trkpt>
      <trkpt lat="43.72481" lon="5.94452">
        <ele>483.3</ele>
        <time>2013-11-11T08:53:16Z</time>
      </trkpt>
      <trkpt lat="43.72469" lon="5.94473">
        <ele>488.49</ele>
        <time>2013-11-11T08:53:57Z</time>
      </trkpt>
      <trkpt lat="43.72468" lon="5.94498">
        <ele>485.79</ele>
        <time>2013-11-11T08:54:06Z</time>
      </trkpt>
      <trkpt lat="43.72458" lon="5.94519">
        <ele>487.01</ele>
        <time>2013-11-11T08:54:14Z</time>
      </trkpt>
      <trkpt lat="43.72448" lon="5.94539">
        <ele>483.73</ele>
        <time>2013-11-11T08:54:22Z</time>
      </trkpt>
      <trkpt lat="43.72436" lon="5.94559">
        <ele>480.13</ele>
        <time>2013-11-11T08:54:33Z</time>
      </trkpt>
      <trkpt lat="43.72419" lon="5.94576">
        <ele>476.54</ele>
        <time>2013-11-11T08:54:39Z</time>
      </trkpt>
      <trkpt lat="43.72439" lon="5.94596">
        <ele>476.71</ele>
        <time>2013-11-11T08:54:51Z</time>
      </trkpt>
      <trkpt lat="43.72453" lon="5.94613">
        <ele>475.76</ele>
        <time>2013-11-11T08:54:56Z</time>
      </trkpt>
      <trkpt lat="43.72473" lon="5.94602">
        <ele>476.07</ele>
        <time>2013-11-11T08:55:49Z</time>
      </trkpt>
      <trkpt lat="43.72486" lon="5.94583">
        <ele>474.68</ele>
        <time>2013-11-11T08:55:54Z</time>
      </trkpt>
      <trkpt lat="43.72502" lon="5.94568">
        <ele>483.71</ele>
        <time>2013-11-11T08:56:00Z</time>
      </trkpt>
      <trkpt lat="43.72519" lon="5.94557">
        <ele>483.52</ele>
        <time>2013-11-11T08:56:05Z</time>
      </trkpt>
      <trkpt lat="43.72532" lon="5.94539">
        <ele>483.04</ele>
        <time>2013-11-11T08:56:07Z</time>
      </trkpt>
      <trkpt lat="43.72557" lon="5.94524">
        <ele>483.99</ele>
        <time>2013-11-11T08:56:11Z</time>
      </trkpt>
      <trkpt lat="43.72579" lon="5.94519">
        <ele>484.67</ele>
        <time>2013-11-11T08:56:16Z</time>
      </trkpt>
      <trkpt lat="43.726" lon="5.9451">
        <ele>483.64</ele>
        <time>2013-11-11T08:56:19Z</time>
      </trkpt>
      <trkpt lat="43.72619" lon="5.94509">
        <ele>479.69</ele>
        <time>2013-11-11T08:56:22Z</time>
      </trkpt>
      <trkpt lat="43.72638" lon="5.94521">
        <ele>471.28</ele>
        <time>2013-11-11T08:56:26Z</time>
      </trkpt>
      <trkpt lat="43.72646" lon="5.94548">
        <ele>463.17</ele>
        <time>2013-11-11T08:56:29Z</time>
      </trkpt>
      <trkpt lat="43.72659" lon="5.94576">
        <ele>458.5</ele>
        <time>2013-11-11T08:56:32Z</time>
      </trkpt>
      <trkpt lat="43.72671" lon="5.94599">
        <ele>452.28</ele>
        <time>2013-11-11T08:56:36Z</time>
      </trkpt>
      <trkpt lat="43.72695" lon="5.94607">
        <ele>445.23</ele>
        <time>2013-11-11T08:56:40Z</time>
      </trkpt>
      <trkpt lat="43.72714" lon="5.94609">
        <ele>443.26</ele>
        <time>2013-11-11T08:56:43Z</time>
      </trkpt>
      <trkpt lat="43.72733" lon="5.94615">
        <ele>440.74</ele>
        <time>2013-11-11T08:56:46Z</time>
      </trkpt>
      <trkpt lat="43.72752" lon="5.94626">
        <ele>435.69</ele>
        <time>2013-11-11T08:56:50Z</time>
      </trkpt>
      <trkpt lat="43.72772" lon="5.94624">
        <ele>423.66</ele>
        <time>2013-11-11T08:57:15Z</time>
      </trkpt>
      <trkpt lat="43.7279" lon="5.94636">
        <ele>417.95</ele>
        <time>2013-11-11T08:57:23Z</time>
      </trkpt>
      <trkpt lat="43.72808" lon="5.94647">
        <ele>416.06</ele>
        <time>2013-11-11T08:57:28Z</time>
      </trkpt>
      <trkpt lat="43.7283" lon="5.94653">
        <ele>411.51</ele>
        <time>2013-11-11T08:57:32Z</time>
      </trkpt>
      <trkpt lat="43.72851" lon="5.94651">
        <ele>411.01</ele>
        <time>2013-11-11T08:57:36Z</time>
      </trkpt>
      <trkpt lat="43.72872" lon="5.94648">
        <ele>410.51</ele>
        <time>2013-11-11T08:57:40Z</time>
      </trkpt>
      <trkpt lat="43.72892" lon="5.94649">
        <ele>411.8</ele>
        <time>2013-11-11T08:57:43Z</time>
      </trkpt>
      <trkpt lat="43.72913" lon="5.94649">
        <ele>411.94</ele>
        <time>2013-11-11T08:57:46Z</time>
      </trkpt>
      <trkpt lat="43.72932" lon="5.94646">
        <ele>410.49</ele>
        <time>2013-11-11T08:57:48Z</time>
      </trkpt>
      <trkpt lat="43.72954" lon="5.94645">
        <ele>407.36</ele>
        <time>2013-11-11T08:57:51Z</time>
      </trkpt>
      <trkpt lat="43.72973" lon="5.94648">
        <ele>398.82</ele>
        <time>2013-11-11T08:58:06Z</time>
      </trkpt>
      <trkpt lat="43.72992" lon="5.94661">
        <ele>397.85</ele>
        <time>2013-11-11T08:58:13Z</time>
      </trkpt>
      <trkpt lat="43.73007" lon="5.94675">
        <ele>395.35</ele>
        <time>2013-11-11T08:58:17Z</time>
      </trkpt>
      <trkpt lat="43.73026" lon="5.94682">
        <ele>397.05</ele>
        <time>2013-11-11T08:58:23Z</time>
      </trkpt>
      <trkpt lat="43.73045" lon="5.94687">
        <ele>402.43</ele>
        <time>2013-11-11T08:58:28Z</time>
      </trkpt>
      <trkpt lat="43.73065" lon="5.94695">
        <ele>406.02</ele>
        <time>2013-11-11T08:58:33Z</time>
      </trkpt>
      <trkpt lat="43.73085" lon="5.94701">
        <ele>408.74</ele>
        <time>2013-11-11T08:58:38Z</time>
      </trkpt>
      <trkpt lat="43.73105" lon="5.94709">
        <ele>411.82</ele>
        <time>2013-11-11T08:58:43Z</time>
      </trkpt>
      <trkpt lat="43.73126" lon="5.94718">
        <ele>410.92</ele>
        <time>2013-11-11T08:58:48Z</time>
      </trkpt>
      <trkpt lat="43.73146" lon="5.94723">
        <ele>409.23</ele>
        <time>2013-11-11T08:58:53Z</time>
      </trkpt>
      <trkpt lat="43.73165" lon="5.94731">
        <ele>408.42</ele>
        <time>2013-11-11T08:58:57Z</time>
      </trkpt>
      <trkpt lat="43.73184" lon="5.9474">
        <ele>404.7</ele>
        <time>2013-11-11T08:59:01Z</time>
      </trkpt>
      <trkpt lat="43.73204" lon="5.94752">
        <ele>405.27</ele>
        <time>2013-11-11T08:59:06Z</time>
      </trkpt>
      <trkpt lat="43.73222" lon="5.94771">
        <ele>402.46</ele>
        <time>2013-11-11T08:59:10Z</time>
      </trkpt>
      <trkpt lat="43.73236" lon="5.94792">
        <ele>399.32</ele>
        <time>2013-11-11T08:59:14Z</time>
      </trkpt>
      <trkpt lat="43.73247" lon="5.94814">
        <ele>395.64</ele>
        <time>2013-11-11T08:59:18Z</time>
      </trkpt>
      <trkpt lat="43.73256" lon="5.94837">
        <ele>392.86</ele>
        <time>2013-11-11T08:59:22Z</time>
      </trkpt>
      <trkpt lat="43.73262" lon="5.94865">
        <ele>390.88</ele>
        <time>2013-11-11T08:59:27Z</time>
      </trkpt>
      <trkpt lat="43.73268" lon="5.94895">
        <ele>387.93</ele>
        <time>2013-11-11T08:59:30Z</time>
      </trkpt>
      <trkpt lat="43.7326" lon="5.94919">
        <ele>385.66</ele>
        <time>2013-11-11T08:59:35Z</time>
      </trkpt>
      <trkpt lat="43.73254" lon="5.94944">
        <ele>390.12</ele>
        <time>2013-11-11T08:59:41Z</time>
      </trkpt>
      <trkpt lat="43.73236" lon="5.94955">
        <ele>389.68</ele>
        <time>2013-11-11T08:59:48Z</time>
      </trkpt>
      <trkpt lat="43.73217" lon="5.94951">
        <ele>390.42</ele>
        <time>2013-11-11T08:59:54Z</time>
      </trkpt>
      <trkpt lat="43.73199" lon="5.94951">
        <ele>389.93</ele>
        <time>2013-11-11T09:00:00Z</time>
      </trkpt>
      <trkpt lat="43.73182" lon="5.94963">
        <ele>394.99</ele>
        <time>2013-11-11T09:00:05Z</time>
      </trkpt>
      <trkpt lat="43.73161" lon="5.9498">
        <ele>391.78</ele>
        <time>2013-11-11T09:00:09Z</time>
      </trkpt>
      <trkpt lat="43.73142" lon="5.94991">
        <ele>395.59</ele>
        <time>2013-11-11T09:00:13Z</time>
      </trkpt>
      <trkpt lat="43.73122" lon="5.94988">
        <ele>397.07</ele>
        <time>2013-11-11T09:00:19Z</time>
      </trkpt>
      <trkpt lat="43.73102" lon="5.94981">
        <ele>396.73</ele>
        <time>2013-11-11T09:00:25Z</time>
      </trkpt>
      <trkpt lat="43.73085" lon="5.94985">
        <ele>394.09</ele>
        <time>2013-11-11T09:00:37Z</time>
      </trkpt>
      <trkpt lat="43.73091" lon="5.95009">
        <ele>403.63</ele>
        <time>2013-11-11T09:00:47Z</time>
      </trkpt>
      <trkpt lat="43.73096" lon="5.95038">
        <ele>399.86</ele>
        <time>2013-11-11T09:00:52Z</time>
      </trkpt>
      <trkpt lat="43.73103" lon="5.95065">
        <ele>394.66</ele>
        <time>2013-11-11T09:00:57Z</time>
      </trkpt>
      <trkpt lat="43.73119" lon="5.95083">
        <ele>392.44</ele>
        <time>2013-11-11T09:01:03Z</time>
      </trkpt>
      <trkpt lat="43.73136" lon="5.95073">
        <ele>391.09</ele>
        <time>2013-11-11T09:01:08Z</time>
      </trkpt>
      <trkpt lat="43.73155" lon="5.95066">
        <ele>391.69</ele>
        <time>2013-11-11T09:01:14Z</time>
      </trkpt>
      <trkpt lat="43.73174" lon="5.95058">
        <ele>392.11</ele>
        <time>2013-11-11T09:01:19Z</time>
      </trkpt>
      <trkpt lat="43.73193" lon="5.95073">
        <ele>387.8</ele>
        <time>2013-11-11T09:01:24Z</time>
      </trkpt>
      <trkpt lat="43.73202" lon="5.95101">
        <ele>384.05</ele>
        <time>2013-11-11T09:01:28Z</time>
      </trkpt>
      <trkpt lat="43.73201" lon="5.95131">
        <ele>386.43</ele>
        <time>2013-11-11T09:01:34Z</time>
      </trkpt>
      <trkpt lat="43.73212" lon="5.95153">
        <ele>383.16</ele>
        <time>2013-11-11T09:01:47Z</time>
      </trkpt>
      <trkpt lat="43.7323" lon="5.95166">
        <ele>386.16</ele>
        <time>2013-11-11T09:01:54Z</time>
      </trkpt>
      <trkpt lat="43.73241" lon="5.95185">
        <ele>378.46</ele>
        <time>2013-11-11T09:02:24Z</time>
      </trkpt>
      <trkpt lat="43.7326" lon="5.95191">
        <ele>372.09</ele>
        <time>2013-11-11T09:03:03Z</time>
      </trkpt>
      <trkpt lat="43.73378" lon="5.95801">
        <ele>372.74</ele>
        <time>2013-11-11T09:07:36Z</time>
      </trkpt>
      <trkpt lat="43.73372" lon="5.95895">
        <ele>373.28</ele>
        <time>2013-11-11T09:08:02Z</time>
      </trkpt>
      <trkpt lat="43.73379" lon="5.95921">
        <ele>368.86</ele>
        <time>2013-11-11T09:08:07Z</time>
      </trkpt>
      <trkpt lat="43.73377" lon="5.96028">
        <ele>367.54</ele>
        <time>2013-11-11T09:08:27Z</time>
      </trkpt>
      <trkpt lat="43.73377" lon="5.96053">
        <ele>368.25</ele>
        <time>2013-11-11T09:08:34Z</time>
      </trkpt>
      <trkpt lat="43.73374" lon="5.96079">
        <ele>369.38</ele>
        <time>2013-11-11T09:08:41Z</time>
      </trkpt>
      <trkpt lat="43.73365" lon="5.96103">
        <ele>366.15</ele>
        <time>2013-11-11T09:08:47Z</time>
      </trkpt>
      <trkpt lat="43.73369" lon="5.96129">
        <ele>367.53</ele>
        <time>2013-11-11T09:08:53Z</time>
      </trkpt>
      <trkpt lat="43.73385" lon="5.96146">
        <ele>369.17</ele>
        <time>2013-11-11T09:08:59Z</time>
      </trkpt>
      <trkpt lat="43.73394" lon="5.96168">
        <ele>365.36</ele>
        <time>2013-11-11T09:09:04Z</time>
      </trkpt>
      <trkpt lat="43.73413" lon="5.96175">
        <ele>366.03</ele>
        <time>2013-11-11T09:10:01Z</time>
      </trkpt>
      <trkpt lat="43.73432" lon="5.96179">
        <ele>365.48</ele>
        <time>2013-11-11T09:10:07Z</time>
      </trkpt>
      <trkpt lat="43.73441" lon="5.96202">
        <ele>362.97</ele>
        <time>2013-11-11T09:10:12Z</time>
      </trkpt>
      <trkpt lat="43.73434" lon="5.96226">
        <ele>366.33</ele>
        <time>2013-11-11T09:10:17Z</time>
      </trkpt>
      <trkpt lat="43.73441" lon="5.96254">
        <ele>364.61</ele>
        <time>2013-11-11T09:10:23Z</time>
      </trkpt>
      <trkpt lat="43.73436" lon="5.96281">
        <ele>366.81</ele>
        <time>2013-11-11T09:10:30Z</time>
      </trkpt>
      <trkpt lat="43.73419" lon="5.9629">
        <ele>364.18</ele>
        <time>2013-11-11T09:10:42Z</time>
      </trkpt>
      <trkpt lat="43.73401" lon="5.96286">
        <ele>361.68</ele>
        <time>2013-11-11T09:11:50Z</time>
      </trkpt>
      <trkpt lat="43.73383" lon="5.96272">
        <ele>361.14</ele>
        <time>2013-11-11T09:11:56Z</time>
      </trkpt>
      <trkpt lat="43.73364" lon="5.96268">
        <ele>361.02</ele>
        <time>2013-11-11T09:12:00Z</time>
      </trkpt>
      <trkpt lat="43.73346" lon="5.96268">
        <ele>362.45</ele>
        <time>2013-11-11T09:12:03Z</time>
      </trkpt>
      <trkpt lat="43.7333" lon="5.96282">
        <ele>364.62</ele>
        <time>2013-11-11T09:12:10Z</time>
      </trkpt>
      <trkpt lat="43.73311" lon="5.96289">
        <ele>365.31</ele>
        <time>2013-11-11T09:12:17Z</time>
      </trkpt>
      <trkpt lat="43.73292" lon="5.96286">
        <ele>365.75</ele>
        <time>2013-11-11T09:12:26Z</time>
      </trkpt>
      <trkpt lat="43.73272" lon="5.96277">
        <ele>363.01</ele>
        <time>2013-11-11T09:12:36Z</time>
      </trkpt>
      <trkpt lat="43.73254" lon="5.9628">
        <ele>363.02</ele>
        <time>2013-11-11T09:12:43Z</time>
      </trkpt>
      <trkpt lat="43.73235" lon="5.96296">
        <ele>361.73</ele>
        <time>2013-11-11T09:12:46Z</time>
      </trkpt>
      <trkpt lat="43.73216" lon="5.96301">
        <ele>360.56</ele>
        <time>2013-11-11T09:12:50Z</time>
      </trkpt>
      <trkpt lat="43.73198" lon="5.96299">
        <ele>362.23</ele>
        <time>2013-11-11T09:12:56Z</time>
      </trkpt>
      <trkpt lat="43.73181" lon="5.96305">
        <ele>362.82</ele>
        <time>2013-11-11T09:13:18Z</time>
      </trkpt>
      <trkpt lat="43.73178" lon="5.96276">
        <ele>363.26</ele>
        <time>2013-11-11T09:13:31Z</time>
      </trkpt>
      <trkpt lat="43.73178" lon="5.96251">
        <ele>364.32</ele>
        <time>2013-11-11T09:13:38Z</time>
      </trkpt>
      <trkpt lat="43.73159" lon="5.96244">
        <ele>363.15</ele>
        <time>2013-11-11T09:13:46Z</time>
      </trkpt>
      <trkpt lat="43.73139" lon="5.96245">
        <ele>359.02</ele>
        <time>2013-11-11T09:13:53Z</time>
      </trkpt>
      <trkpt lat="43.73123" lon="5.96263">
        <ele>356.58</ele>
        <time>2013-11-11T09:13:59Z</time>
      </trkpt>
      <trkpt lat="43.73113" lon="5.96285">
        <ele>355.14</ele>
        <time>2013-11-11T09:14:06Z</time>
      </trkpt>
      <trkpt lat="43.73096" lon="5.96299">
        <ele>352.15</ele>
        <time>2013-11-11T09:14:12Z</time>
      </trkpt>
      <trkpt lat="43.73078" lon="5.96305">
        <ele>349.97</ele>
        <time>2013-11-11T09:14:20Z</time>
      </trkpt>
      <trkpt lat="43.73057" lon="5.96311">
        <ele>349.69</ele>
        <time>2013-11-11T09:14:25Z</time>
      </trkpt>
      <trkpt lat="43.7304" lon="5.96318">
        <ele>348.15</ele>
        <time>2013-11-11T09:14:30Z</time>
      </trkpt>
      <trkpt lat="43.73016" lon="5.96326">
        <ele>346.85</ele>
        <time>2013-11-11T09:14:35Z</time>
      </trkpt>
      <trkpt lat="43.72998" lon="5.96332">
        <ele>347.44</ele>
        <time>2013-11-11T09:14:39Z</time>
      </trkpt>
      <trkpt lat="43.72981" lon="5.96347">
        <ele>353.83</ele>
        <time>2013-11-11T09:14:46Z</time>
      </trkpt>
      <trkpt lat="43.72963" lon="5.96354">
        <ele>358.19</ele>
        <time>2013-11-11T09:14:53Z</time>
      </trkpt>
      <trkpt lat="43.72943" lon="5.96358">
        <ele>360.53</ele>
        <time>2013-11-11T09:14:59Z</time>
      </trkpt>
      <trkpt lat="43.72923" lon="5.96359">
        <ele>359.57</ele>
        <time>2013-11-11T09:15:16Z</time>
      </trkpt>
      <trkpt lat="43.729" lon="5.9636">
        <ele>358.56</ele>
        <time>2013-11-11T09:15:20Z</time>
      </trkpt>
      <trkpt lat="43.72866" lon="5.96362">
        <ele>357.79</ele>
        <time>2013-11-11T09:15:24Z</time>
      </trkpt>
      <trkpt lat="43.72848" lon="5.96361">
        <ele>358.48</ele>
        <time>2013-11-11T09:15:28Z</time>
      </trkpt>
      <trkpt lat="43.72829" lon="5.96358">
        <ele>355.39</ele>
        <time>2013-11-11T09:15:32Z</time>
      </trkpt>
      <trkpt lat="43.72811" lon="5.96347">
        <ele>357</ele>
        <time>2013-11-11T09:15:37Z</time>
      </trkpt>
      <trkpt lat="43.7279" lon="5.96338">
        <ele>355.58</ele>
        <time>2013-11-11T09:15:42Z</time>
      </trkpt>
      <trkpt lat="43.72771" lon="5.96334">
        <ele>355.09</ele>
        <time>2013-11-11T09:15:46Z</time>
      </trkpt>
      <trkpt lat="43.72753" lon="5.96318">
        <ele>353.04</ele>
        <time>2013-11-11T09:15:51Z</time>
      </trkpt>
      <trkpt lat="43.72734" lon="5.96319">
        <ele>356.29</ele>
        <time>2013-11-11T09:15:55Z</time>
      </trkpt>
      <trkpt lat="43.72715" lon="5.96328">
        <ele>357.57</ele>
        <time>2013-11-11T09:16:00Z</time>
      </trkpt>
      <trkpt lat="43.72695" lon="5.9633">
        <ele>357.21</ele>
        <time>2013-11-11T09:16:05Z</time>
      </trkpt>
      <trkpt lat="43.72676" lon="5.9632">
        <ele>358.75</ele>
        <time>2013-11-11T09:16:09Z</time>
      </trkpt>
      <trkpt lat="43.72658" lon="5.9631">
        <ele>360.7</ele>
        <time>2013-11-11T09:16:15Z</time>
      </trkpt>
      <trkpt lat="43.72639" lon="5.96301">
        <ele>357.27</ele>
        <time>2013-11-11T09:16:22Z</time>
      </trkpt>
      <trkpt lat="43.7262" lon="5.96294">
        <ele>356.19</ele>
        <time>2013-11-11T09:16:29Z</time>
      </trkpt>
      <trkpt lat="43.726" lon="5.9629">
        <ele>357.11</ele>
        <time>2013-11-11T09:16:36Z</time>
      </trkpt>
      <trkpt lat="43.72583" lon="5.96275">
        <ele>358.71</ele>
        <time>2013-11-11T09:16:44Z</time>
      </trkpt>
      <trkpt lat="43.72572" lon="5.96253">
        <ele>358.55</ele>
        <time>2013-11-11T09:16:50Z</time>
      </trkpt>
      <trkpt lat="43.7256" lon="5.96234">
        <ele>365.94</ele>
        <time>2013-11-11T09:18:05Z</time>
      </trkpt>
      <trkpt lat="43.72541" lon="5.96232">
        <ele>370.36</ele>
        <time>2013-11-11T09:22:03Z</time>
      </trkpt>
      <trkpt lat="43.72521" lon="5.96226">
        <ele>368.16</ele>
        <time>2013-11-11T09:22:15Z</time>
      </trkpt>
      <trkpt lat="43.72506" lon="5.96208">
        <ele>368.85</ele>
        <time>2013-11-11T09:22:21Z</time>
      </trkpt>
      <trkpt lat="43.72491" lon="5.96188">
        <ele>367.75</ele>
        <time>2013-11-11T09:22:27Z</time>
      </trkpt>
      <trkpt lat="43.7248" lon="5.96167">
        <ele>367.99</ele>
        <time>2013-11-11T09:22:34Z</time>
      </trkpt>
      <trkpt lat="43.72477" lon="5.96139">
        <ele>368.71</ele>
        <time>2013-11-11T09:22:41Z</time>
      </trkpt>
      <trkpt lat="43.72473" lon="5.96113">
        <ele>370.71</ele>
        <time>2013-11-11T09:22:49Z</time>
      </trkpt>
      <trkpt lat="43.72471" lon="5.96089">
        <ele>376.05</ele>
        <time>2013-11-11T09:22:57Z</time>
      </trkpt>
      <trkpt lat="43.72468" lon="5.96063">
        <ele>377.92</ele>
        <time>2013-11-11T09:23:05Z</time>
      </trkpt>
      <trkpt lat="43.72459" lon="5.96038">
        <ele>378.42</ele>
        <time>2013-11-11T09:23:13Z</time>
      </trkpt>
      <trkpt lat="43.7245" lon="5.96016">
        <ele>377.67</ele>
        <time>2013-11-11T09:23:21Z</time>
      </trkpt>
      <trkpt lat="43.72439" lon="5.95996">
        <ele>381.74</ele>
        <time>2013-11-11T09:23:29Z</time>
      </trkpt>
      <trkpt lat="43.72431" lon="5.95972">
        <ele>385.18</ele>
        <time>2013-11-11T09:23:37Z</time>
      </trkpt>
      <trkpt lat="43.72416" lon="5.95956">
        <ele>383.68</ele>
        <time>2013-11-11T09:23:46Z</time>
      </trkpt>
      <trkpt lat="43.72398" lon="5.95957">
        <ele>384.75</ele>
        <time>2013-11-11T09:23:56Z</time>
      </trkpt>
      <trkpt lat="43.72379" lon="5.95952">
        <ele>393.18</ele>
        <time>2013-11-11T09:25:14Z</time>
      </trkpt>
      <trkpt lat="43.72361" lon="5.95945">
        <ele>400.45</ele>
        <time>2013-11-11T09:25:33Z</time>
      </trkpt>
      <trkpt lat="43.72345" lon="5.95932">
        <ele>408.06</ele>
        <time>2013-11-11T09:25:42Z</time>
      </trkpt>
      <trkpt lat="43.72331" lon="5.95916">
        <ele>405.3</ele>
        <time>2013-11-11T09:25:52Z</time>
      </trkpt>
      <trkpt lat="43.72316" lon="5.95899">
        <ele>403.29</ele>
        <time>2013-11-11T09:26:03Z</time>
      </trkpt>
      <trkpt lat="43.723" lon="5.95889">
        <ele>401.69</ele>
        <time>2013-11-11T09:26:15Z</time>
      </trkpt>
      <trkpt lat="43.72283" lon="5.95877">
        <ele>405.09</ele>
        <time>2013-11-11T09:26:31Z</time>
      </trkpt>
      <trkpt lat="43.72265" lon="5.95871">
        <ele>412.16</ele>
        <time>2013-11-11T09:27:02Z</time>
      </trkpt>
      <trkpt lat="43.72247" lon="5.95869">
        <ele>417.27</ele>
        <time>2013-11-11T09:27:35Z</time>
      </trkpt>
      <trkpt lat="43.72228" lon="5.95867">
        <ele>421.63</ele>
        <time>2013-11-11T09:27:47Z</time>
      </trkpt>
      <trkpt lat="43.7221" lon="5.95864">
        <ele>425.62</ele>
        <time>2013-11-11T09:27:59Z</time>
      </trkpt>
      <trkpt lat="43.72192" lon="5.95864">
        <ele>434.31</ele>
        <time>2013-11-11T09:28:47Z</time>
      </trkpt>
      <trkpt lat="43.72174" lon="5.95868">
        <ele>436.76</ele>
        <time>2013-11-11T09:29:29Z</time>
      </trkpt>
      <trkpt lat="43.72156" lon="5.95875">
        <ele>440.82</ele>
        <time>2013-11-11T09:30:12Z</time>
      </trkpt>
      <trkpt lat="43.72138" lon="5.95877">
        <ele>446.94</ele>
        <time>2013-11-11T09:30:45Z</time>
      </trkpt>
      <trkpt lat="43.7212" lon="5.95885">
        <ele>445.86</ele>
        <time>2013-11-11T09:31:08Z</time>
      </trkpt>
      <trkpt lat="43.72101" lon="5.95878">
        <ele>446.94</ele>
        <time>2013-11-11T09:31:16Z</time>
      </trkpt>
      <trkpt lat="43.72085" lon="5.95867">
        <ele>449.81</ele>
        <time>2013-11-11T09:31:24Z</time>
      </trkpt>
      <trkpt lat="43.72067" lon="5.95861">
        <ele>456.86</ele>
        <time>2013-11-11T09:31:31Z</time>
      </trkpt>
      <trkpt lat="43.72049" lon="5.95872">
        <ele>465.08</ele>
        <time>2013-11-11T09:31:47Z</time>
      </trkpt>
      <trkpt lat="43.72034" lon="5.95888">
        <ele>464.99</ele>
        <time>2013-11-11T09:31:54Z</time>
      </trkpt>
      <trkpt lat="43.72013" lon="5.95909">
        <ele>463.24</ele>
        <time>2013-11-11T09:31:59Z</time>
      </trkpt>
      <trkpt lat="43.71997" lon="5.95932">
        <ele>459</ele>
        <time>2013-11-11T09:32:04Z</time>
      </trkpt>
      <trkpt lat="43.71986" lon="5.9596">
        <ele>457.92</ele>
        <time>2013-11-11T09:32:08Z</time>
      </trkpt>
      <trkpt lat="43.71974" lon="5.95987">
        <ele>457.2</ele>
        <time>2013-11-11T09:32:11Z</time>
      </trkpt>
      <trkpt lat="43.71963" lon="5.9601">
        <ele>456.62</ele>
        <time>2013-11-11T09:32:14Z</time>
      </trkpt>
      <trkpt lat="43.71947" lon="5.96027">
        <ele>456.29</ele>
        <time>2013-11-11T09:32:17Z</time>
      </trkpt>
      <trkpt lat="43.7193" lon="5.96047">
        <ele>453.75</ele>
        <time>2013-11-11T09:32:21Z</time>
      </trkpt>
      <trkpt lat="43.71922" lon="5.96071">
        <ele>450.23</ele>
        <time>2013-11-11T09:32:26Z</time>
      </trkpt>
      <trkpt lat="43.71912" lon="5.96092">
        <ele>448.3</ele>
        <time>2013-11-11T09:32:30Z</time>
      </trkpt>
      <trkpt lat="43.71896" lon="5.96073">
        <ele>446.39</ele>
        <time>2013-11-11T09:32:36Z</time>
      </trkpt>
      <trkpt lat="43.71903" lon="5.96048">
        <ele>446.65</ele>
        <time>2013-11-11T09:32:41Z</time>
      </trkpt>
      <trkpt lat="43.71908" lon="5.96022">
        <ele>452</ele>
        <time>2013-11-11T09:32:46Z</time>
      </trkpt>
      <trkpt lat="43.71919" lon="5.96">
        <ele>457.34</ele>
        <time>2013-11-11T09:32:51Z</time>
      </trkpt>
      <trkpt lat="43.71931" lon="5.95977">
        <ele>457.71</ele>
        <time>2013-11-11T09:32:58Z</time>
      </trkpt>
      <trkpt lat="43.71936" lon="5.95949">
        <ele>456.66</ele>
        <time>2013-11-11T09:33:05Z</time>
      </trkpt>
      <trkpt lat="43.71938" lon="5.95922">
        <ele>460.94</ele>
        <time>2013-11-11T09:33:10Z</time>
      </trkpt>
      <trkpt lat="43.71933" lon="5.95898">
        <ele>465.16</ele>
        <time>2013-11-11T09:33:16Z</time>
      </trkpt>
      <trkpt lat="43.71919" lon="5.95878">
        <ele>460.72</ele>
        <time>2013-11-11T09:33:25Z</time>
      </trkpt>
      <trkpt lat="43.719" lon="5.95878">
        <ele>456.15</ele>
        <time>2013-11-11T09:33:31Z</time>
      </trkpt>
      <trkpt lat="43.71881" lon="5.95882">
        <ele>453.02</ele>
        <time>2013-11-11T09:33:37Z</time>
      </trkpt>
      <trkpt lat="43.71863" lon="5.95891">
        <ele>450.76</ele>
        <time>2013-11-11T09:33:44Z</time>
      </trkpt>
      <trkpt lat="43.71843" lon="5.959">
        <ele>453.61</ele>
        <time>2013-11-11T09:34:11Z</time>
      </trkpt>
      <trkpt lat="43.71825" lon="5.9591">
        <ele>452.67</ele>
        <time>2013-11-11T09:34:19Z</time>
      </trkpt>
      <trkpt lat="43.71806" lon="5.9591">
        <ele>453.67</ele>
        <time>2013-11-11T09:34:26Z</time>
      </trkpt>
      <trkpt lat="43.71792" lon="5.95891">
        <ele>451.87</ele>
        <time>2013-11-11T09:34:36Z</time>
      </trkpt>
      <trkpt lat="43.71785" lon="5.95867">
        <ele>455.49</ele>
        <time>2013-11-11T09:34:45Z</time>
      </trkpt>
      <trkpt lat="43.71774" lon="5.95844">
        <ele>458.22</ele>
        <time>2013-11-11T09:34:53Z</time>
      </trkpt>
      <trkpt lat="43.71756" lon="5.95835">
        <ele>457.82</ele>
        <time>2013-11-11T09:35:02Z</time>
      </trkpt>
      <trkpt lat="43.7174" lon="5.95846">
        <ele>456.59</ele>
        <time>2013-11-11T09:35:09Z</time>
      </trkpt>
      <trkpt lat="43.71722" lon="5.95856">
        <ele>458.79</ele>
        <time>2013-11-11T09:35:15Z</time>
      </trkpt>
      <trkpt lat="43.71705" lon="5.95865">
        <ele>461.84</ele>
        <time>2013-11-11T09:35:22Z</time>
      </trkpt>
      <trkpt lat="43.71687" lon="5.95862">
        <ele>466.03</ele>
        <time>2013-11-11T09:35:35Z</time>
      </trkpt>
      <trkpt lat="43.71668" lon="5.95853">
        <ele>466.45</ele>
        <time>2013-11-11T09:35:43Z</time>
      </trkpt>
      <trkpt lat="43.71651" lon="5.95835">
        <ele>465.61</ele>
        <time>2013-11-11T09:35:49Z</time>
      </trkpt>
      <trkpt lat="43.71641" lon="5.95812">
        <ele>464.58</ele>
        <time>2013-11-11T09:35:54Z</time>
      </trkpt>
      <trkpt lat="43.71637" lon="5.95785">
        <ele>466.09</ele>
        <time>2013-11-11T09:35:59Z</time>
      </trkpt>
      <trkpt lat="43.71639" lon="5.95761">
        <ele>471.33</ele>
        <time>2013-11-11T09:36:06Z</time>
      </trkpt>
      <trkpt lat="43.71634" lon="5.95737">
        <ele>471.95</ele>
        <time>2013-11-11T09:36:13Z</time>
      </trkpt>
      <trkpt lat="43.7162" lon="5.95718">
        <ele>470.06</ele>
        <time>2013-11-11T09:36:19Z</time>
      </trkpt>
      <trkpt lat="43.71599" lon="5.95716">
        <ele>467.05</ele>
        <time>2013-11-11T09:36:24Z</time>
      </trkpt>
      <trkpt lat="43.7158" lon="5.95726">
        <ele>458.69</ele>
        <time>2013-11-11T09:36:31Z</time>
      </trkpt>
      <trkpt lat="43.71562" lon="5.95734">
        <ele>461.11</ele>
        <time>2013-11-11T09:36:36Z</time>
      </trkpt>
      <trkpt lat="43.71545" lon="5.9574">
        <ele>464.91</ele>
        <time>2013-11-11T09:36:42Z</time>
      </trkpt>
      <trkpt lat="43.71524" lon="5.95741">
        <ele>467.27</ele>
        <time>2013-11-11T09:36:51Z</time>
      </trkpt>
      <trkpt lat="43.71506" lon="5.95722">
        <ele>466.87</ele>
        <time>2013-11-11T09:36:56Z</time>
      </trkpt>
      <trkpt lat="43.71495" lon="5.95699">
        <ele>469.97</ele>
        <time>2013-11-11T09:37:03Z</time>
      </trkpt>
      <trkpt lat="43.71482" lon="5.95681">
        <ele>471.71</ele>
        <time>2013-11-11T09:37:09Z</time>
      </trkpt>
      <trkpt lat="43.71463" lon="5.95683">
        <ele>472.68</ele>
        <time>2013-11-11T09:37:15Z</time>
      </trkpt>
      <trkpt lat="43.7146" lon="5.95708">
        <ele>474.29</ele>
        <time>2013-11-11T09:37:20Z</time>
      </trkpt>
      <trkpt lat="43.71458" lon="5.95735">
        <ele>480.4</ele>
        <time>2013-11-11T09:37:30Z</time>
      </trkpt>
      <trkpt lat="43.71463" lon="5.95761">
        <ele>480.51</ele>
        <time>2013-11-11T09:37:35Z</time>
      </trkpt>
      <trkpt lat="43.71459" lon="5.95786">
        <ele>476.72</ele>
        <time>2013-11-11T09:37:42Z</time>
      </trkpt>
      <trkpt lat="43.71445" lon="5.95802">
        <ele>476.18</ele>
        <time>2013-11-11T09:37:52Z</time>
      </trkpt>
      <trkpt lat="43.71426" lon="5.95799">
        <ele>475.09</ele>
        <time>2013-11-11T09:38:00Z</time>
      </trkpt>
      <trkpt lat="43.71413" lon="5.95779">
        <ele>474.5</ele>
        <time>2013-11-11T09:38:08Z</time>
      </trkpt>
      <trkpt lat="43.71397" lon="5.95764">
        <ele>476.25</ele>
        <time>2013-11-11T09:38:16Z</time>
      </trkpt>
      <trkpt lat="43.71382" lon="5.95745">
        <ele>481.25</ele>
        <time>2013-11-11T09:38:24Z</time>
      </trkpt>
      <trkpt lat="43.71365" lon="5.95759">
        <ele>481.85</ele>
        <time>2013-11-11T09:38:33Z</time>
      </trkpt>
      <trkpt lat="43.71353" lon="5.95782">
        <ele>483.44</ele>
        <time>2013-11-11T09:38:40Z</time>
      </trkpt>
      <trkpt lat="43.7135" lon="5.95807">
        <ele>484.46</ele>
        <time>2013-11-11T09:38:46Z</time>
      </trkpt>
      <trkpt lat="43.71336" lon="5.95824">
        <ele>484.85</ele>
        <time>2013-11-11T09:38:52Z</time>
      </trkpt>
      <trkpt lat="43.71314" lon="5.95822">
        <ele>484.96</ele>
        <time>2013-11-11T09:38:58Z</time>
      </trkpt>
      <trkpt lat="43.71294" lon="5.95812">
        <ele>486.48</ele>
        <time>2013-11-11T09:39:04Z</time>
      </trkpt>
      <trkpt lat="43.71274" lon="5.95804">
        <ele>487.54</ele>
        <time>2013-11-11T09:39:10Z</time>
      </trkpt>
      <trkpt lat="43.71255" lon="5.95796">
        <ele>485.55</ele>
        <time>2013-11-11T09:39:16Z</time>
      </trkpt>
      <trkpt lat="43.71236" lon="5.95794">
        <ele>485.66</ele>
        <time>2013-11-11T09:39:22Z</time>
      </trkpt>
      <trkpt lat="43.71216" lon="5.958">
        <ele>485.8</ele>
        <time>2013-11-11T09:39:28Z</time>
      </trkpt>
      <trkpt lat="43.71198" lon="5.95813">
        <ele>484.61</ele>
        <time>2013-11-11T09:39:34Z</time>
      </trkpt>
      <trkpt lat="43.71185" lon="5.95831">
        <ele>483.81</ele>
        <time>2013-11-11T09:39:41Z</time>
      </trkpt>
      <trkpt lat="43.71167" lon="5.95847">
        <ele>486.79</ele>
        <time>2013-11-11T09:39:49Z</time>
      </trkpt>
      <trkpt lat="43.71151" lon="5.95858">
        <ele>486</ele>
        <time>2013-11-11T09:39:54Z</time>
      </trkpt>
      <trkpt lat="43.71135" lon="5.95875">
        <ele>486.82</ele>
        <time>2013-11-11T09:40:00Z</time>
      </trkpt>
      <trkpt lat="43.71121" lon="5.95891">
        <ele>485.13</ele>
        <time>2013-11-11T09:40:06Z</time>
      </trkpt>
      <trkpt lat="43.71102" lon="5.95907">
        <ele>483.95</ele>
        <time>2013-11-11T09:40:12Z</time>
      </trkpt>
      <trkpt lat="43.71086" lon="5.95923">
        <ele>486.82</ele>
        <time>2013-11-11T09:40:18Z</time>
      </trkpt>
      <trkpt lat="43.71078" lon="5.95947">
        <ele>488.29</ele>
        <time>2013-11-11T09:40:24Z</time>
      </trkpt>
      <trkpt lat="43.71059" lon="5.95954">
        <ele>489.59</ele>
        <time>2013-11-11T09:40:29Z</time>
      </trkpt>
      <trkpt lat="43.71039" lon="5.95956">
        <ele>490.66</ele>
        <time>2013-11-11T09:40:34Z</time>
      </trkpt>
      <trkpt lat="43.7102" lon="5.9596">
        <ele>491.66</ele>
        <time>2013-11-11T09:40:39Z</time>
      </trkpt>
      <trkpt lat="43.71001" lon="5.95962">
        <ele>492.76</ele>
        <time>2013-11-11T09:40:45Z</time>
      </trkpt>
      <trkpt lat="43.70983" lon="5.9597">
        <ele>492.97</ele>
        <time>2013-11-11T09:40:51Z</time>
      </trkpt>
      <trkpt lat="43.70979" lon="5.95997">
        <ele>493.73</ele>
        <time>2013-11-11T09:40:58Z</time>
      </trkpt>
      <trkpt lat="43.70997" lon="5.96006">
        <ele>499.13</ele>
        <time>2013-11-11T09:41:14Z</time>
      </trkpt>
      <trkpt lat="43.71015" lon="5.96016">
        <ele>502.28</ele>
        <time>2013-11-11T09:41:21Z</time>
      </trkpt>
      <trkpt lat="43.71024" lon="5.96039">
        <ele>506.69</ele>
        <time>2013-11-11T09:41:30Z</time>
      </trkpt>
      <trkpt lat="43.71031" lon="5.96063">
        <ele>509.17</ele>
        <time>2013-11-11T09:41:37Z</time>
      </trkpt>
      <trkpt lat="43.71038" lon="5.96087">
        <ele>512.55</ele>
        <time>2013-11-11T09:41:44Z</time>
      </trkpt>
      <trkpt lat="43.71041" lon="5.96114">
        <ele>512.58</ele>
        <time>2013-11-11T09:41:51Z</time>
      </trkpt>
      <trkpt lat="43.71055" lon="5.96133">
        <ele>515.93</ele>
        <time>2013-11-11T09:41:59Z</time>
      </trkpt>
      <trkpt lat="43.71068" lon="5.96151">
        <ele>513.31</ele>
        <time>2013-11-11T09:42:06Z</time>
      </trkpt>
      <trkpt lat="43.7108" lon="5.96173">
        <ele>516.64</ele>
        <time>2013-11-11T09:42:15Z</time>
      </trkpt>
      <trkpt lat="43.71092" lon="5.96193">
        <ele>522.22</ele>
        <time>2013-11-11T09:42:23Z</time>
      </trkpt>
      <trkpt lat="43.71106" lon="5.96211">
        <ele>527.08</ele>
        <time>2013-11-11T09:42:31Z</time>
      </trkpt>
      <trkpt lat="43.71121" lon="5.96229">
        <ele>524.77</ele>
        <time>2013-11-11T09:42:38Z</time>
      </trkpt>
      <trkpt lat="43.71134" lon="5.96249">
        <ele>529.57</ele>
        <time>2013-11-11T09:42:50Z</time>
      </trkpt>
      <trkpt lat="43.71146" lon="5.96267">
        <ele>528.8</ele>
        <time>2013-11-11T09:42:59Z</time>
      </trkpt>
      <trkpt lat="43.71158" lon="5.96286">
        <ele>533.29</ele>
        <time>2013-11-11T09:43:12Z</time>
      </trkpt>
      <trkpt lat="43.7117" lon="5.96306">
        <ele>533.82</ele>
        <time>2013-11-11T09:43:27Z</time>
      </trkpt>
      <trkpt lat="43.71181" lon="5.96327">
        <ele>535.75</ele>
        <time>2013-11-11T09:43:39Z</time>
      </trkpt>
      <trkpt lat="43.71197" lon="5.96339">
        <ele>533.32</ele>
        <time>2013-11-11T09:43:52Z</time>
      </trkpt>
      <trkpt lat="43.71213" lon="5.96351">
        <ele>539.71</ele>
        <time>2013-11-11T09:44:05Z</time>
      </trkpt>
      <trkpt lat="43.71229" lon="5.96365">
        <ele>543.85</ele>
        <time>2013-11-11T09:44:22Z</time>
      </trkpt>
      <trkpt lat="43.71244" lon="5.9638">
        <ele>549.75</ele>
        <time>2013-11-11T09:44:36Z</time>
      </trkpt>
      <trkpt lat="43.71259" lon="5.96392">
        <ele>548.76</ele>
        <time>2013-11-11T09:44:48Z</time>
      </trkpt>
      <trkpt lat="43.71274" lon="5.96406">
        <ele>556.47</ele>
        <time>2013-11-11T09:45:04Z</time>
      </trkpt>
      <trkpt lat="43.7129" lon="5.9642">
        <ele>560.89</ele>
        <time>2013-11-11T09:45:17Z</time>
      </trkpt>
      <trkpt lat="43.71307" lon="5.96432">
        <ele>563.71</ele>
        <time>2013-11-11T09:45:31Z</time>
      </trkpt>
      <trkpt lat="43.71325" lon="5.9644">
        <ele>563.55</ele>
        <time>2013-11-11T09:45:41Z</time>
      </trkpt>
      <trkpt lat="43.71344" lon="5.96448">
        <ele>563.55</ele>
        <time>2013-11-11T09:45:52Z</time>
      </trkpt>
      <trkpt lat="43.71361" lon="5.96457">
        <ele>565.04</ele>
        <time>2013-11-11T09:46:04Z</time>
      </trkpt>
      <trkpt lat="43.71371" lon="5.96478">
        <ele>566.09</ele>
        <time>2013-11-11T09:46:23Z</time>
      </trkpt>
      <trkpt lat="43.71383" lon="5.96497">
        <ele>571.35</ele>
        <time>2013-11-11T09:46:34Z</time>
      </trkpt>
      <trkpt lat="43.714" lon="5.96512">
        <ele>573.21</ele>
        <time>2013-11-11T09:46:45Z</time>
      </trkpt>
      <trkpt lat="43.71418" lon="5.96519">
        <ele>572</ele>
        <time>2013-11-11T09:46:54Z</time>
      </trkpt>
      <trkpt lat="43.71437" lon="5.9653">
        <ele>573.17</ele>
        <time>2013-11-11T09:47:02Z</time>
      </trkpt>
      <trkpt lat="43.71457" lon="5.96537">
        <ele>571.05</ele>
        <time>2013-11-11T09:47:08Z</time>
      </trkpt>
      <trkpt lat="43.71461" lon="5.96562">
        <ele>571.71</ele>
        <time>2013-11-11T09:47:17Z</time>
      </trkpt>
      <trkpt lat="43.71463" lon="5.96588">
        <ele>574.02</ele>
        <time>2013-11-11T09:47:25Z</time>
      </trkpt>
      <trkpt lat="43.71464" lon="5.96616">
        <ele>578.53</ele>
        <time>2013-11-11T09:47:36Z</time>
      </trkpt>
      <trkpt lat="43.71462" lon="5.96642">
        <ele>579.83</ele>
        <time>2013-11-11T09:47:44Z</time>
      </trkpt>
      <trkpt lat="43.71457" lon="5.96666">
        <ele>585.12</ele>
        <time>2013-11-11T09:47:53Z</time>
      </trkpt>
      <trkpt lat="43.71453" lon="5.9669">
        <ele>585.94</ele>
        <time>2013-11-11T09:48:01Z</time>
      </trkpt>
      <trkpt lat="43.71444" lon="5.96713">
        <ele>586.37</ele>
        <time>2013-11-11T09:48:07Z</time>
      </trkpt>
      <trkpt lat="43.71438" lon="5.9674">
        <ele>586.21</ele>
        <time>2013-11-11T09:48:14Z</time>
      </trkpt>
      <trkpt lat="43.71434" lon="5.96768">
        <ele>586.03</ele>
        <time>2013-11-11T09:48:23Z</time>
      </trkpt>
      <trkpt lat="43.71427" lon="5.96796">
        <ele>582.6</ele>
        <time>2013-11-11T09:48:29Z</time>
      </trkpt>
      <trkpt lat="43.71422" lon="5.96822">
        <ele>574.78</ele>
        <time>2013-11-11T09:48:33Z</time>
      </trkpt>
      <trkpt lat="43.71411" lon="5.9685">
        <ele>572.77</ele>
        <time>2013-11-11T09:48:38Z</time>
      </trkpt>
      <trkpt lat="43.71399" lon="5.96875">
        <ele>571.94</ele>
        <time>2013-11-11T09:48:43Z</time>
      </trkpt>
      <trkpt lat="43.71386" lon="5.96893">
        <ele>569.29</ele>
        <time>2013-11-11T09:48:47Z</time>
      </trkpt>
      <trkpt lat="43.71369" lon="5.96913">
        <ele>565.67</ele>
        <time>2013-11-11T09:48:52Z</time>
      </trkpt>
      <trkpt lat="43.71353" lon="5.96928">
        <ele>563.22</ele>
        <time>2013-11-11T09:48:57Z</time>
      </trkpt>
      <trkpt lat="43.7133" lon="5.96933">
        <ele>561.45</ele>
        <time>2013-11-11T09:49:01Z</time>
      </trkpt>
      <trkpt lat="43.71311" lon="5.96938">
        <ele>560.04</ele>
        <time>2013-11-11T09:49:04Z</time>
      </trkpt>
      <trkpt lat="43.71289" lon="5.96943">
        <ele>557.02</ele>
        <time>2013-11-11T09:49:07Z</time>
      </trkpt>
      <trkpt lat="43.71264" lon="5.96948">
        <ele>555.41</ele>
        <time>2013-11-11T09:49:10Z</time>
      </trkpt>
      <trkpt lat="43.71241" lon="5.96963">
        <ele>552.24</ele>
        <time>2013-11-11T09:49:13Z</time>
      </trkpt>
      <trkpt lat="43.71219" lon="5.9697">
        <ele>552.09</ele>
        <time>2013-11-11T09:49:16Z</time>
      </trkpt>
      <trkpt lat="43.71202" lon="5.96978">
        <ele>551.35</ele>
        <time>2013-11-11T09:49:19Z</time>
      </trkpt>
      <trkpt lat="43.71184" lon="5.96984">
        <ele>550.37</ele>
        <time>2013-11-11T09:49:22Z</time>
      </trkpt>
      <trkpt lat="43.71161" lon="5.96987">
        <ele>549.54</ele>
        <time>2013-11-11T09:49:26Z</time>
      </trkpt>
      <trkpt lat="43.71136" lon="5.96991">
        <ele>548.3</ele>
        <time>2013-11-11T09:49:30Z</time>
      </trkpt>
      <trkpt lat="43.71115" lon="5.96991">
        <ele>548.01</ele>
        <time>2013-11-11T09:49:34Z</time>
      </trkpt>
      <trkpt lat="43.711" lon="5.96969">
        <ele>547.65</ele>
        <time>2013-11-11T09:49:38Z</time>
      </trkpt>
      <trkpt lat="43.71087" lon="5.96949">
        <ele>547.63</ele>
        <time>2013-11-11T09:49:41Z</time>
      </trkpt>
      <trkpt lat="43.71075" lon="5.96929">
        <ele>547.9</ele>
        <time>2013-11-11T09:49:44Z</time>
      </trkpt>
      <trkpt lat="43.71059" lon="5.96913">
        <ele>549.96</ele>
        <time>2013-11-11T09:49:48Z</time>
      </trkpt>
      <trkpt lat="43.71045" lon="5.96894">
        <ele>551.08</ele>
        <time>2013-11-11T09:49:53Z</time>
      </trkpt>
      <trkpt lat="43.7103" lon="5.96875">
        <ele>551.23</ele>
        <time>2013-11-11T09:49:58Z</time>
      </trkpt>
      <trkpt lat="43.71015" lon="5.96862">
        <ele>550.5</ele>
        <time>2013-11-11T09:50:02Z</time>
      </trkpt>
      <trkpt lat="43.70996" lon="5.96843">
        <ele>550.7</ele>
        <time>2013-11-11T09:50:06Z</time>
      </trkpt>
      <trkpt lat="43.70979" lon="5.96832">
        <ele>549.65</ele>
        <time>2013-11-11T09:50:09Z</time>
      </trkpt>
      <trkpt lat="43.70958" lon="5.96823">
        <ele>547.21</ele>
        <time>2013-11-11T09:50:12Z</time>
      </trkpt>
      <trkpt lat="43.70935" lon="5.96811">
        <ele>546.14</ele>
        <time>2013-11-11T09:50:15Z</time>
      </trkpt>
      <trkpt lat="43.70919" lon="5.9679">
        <ele>545.84</ele>
        <time>2013-11-11T09:50:18Z</time>
      </trkpt>
      <trkpt lat="43.70907" lon="5.96768">
        <ele>546.09</ele>
        <time>2013-11-11T09:50:21Z</time>
      </trkpt>
      <trkpt lat="43.70896" lon="5.96791">
        <ele>551.3</ele>
        <time>2013-11-11T09:50:37Z</time>
      </trkpt>
      <trkpt lat="43.70895" lon="5.96816">
        <ele>554.9</ele>
        <time>2013-11-11T09:50:45Z</time>
      </trkpt>
      <trkpt lat="43.70892" lon="5.96844">
        <ele>559.5</ele>
        <time>2013-11-11T09:50:54Z</time>
      </trkpt>
      <trkpt lat="43.70885" lon="5.96869">
        <ele>562.4</ele>
        <time>2013-11-11T09:51:01Z</time>
      </trkpt>
      <trkpt lat="43.70883" lon="5.96893">
        <ele>564.51</ele>
        <time>2013-11-11T09:51:07Z</time>
      </trkpt>
      <trkpt lat="43.70883" lon="5.96921">
        <ele>564.63</ele>
        <time>2013-11-11T09:51:13Z</time>
      </trkpt>
      <trkpt lat="43.70879" lon="5.96948">
        <ele>565.43</ele>
        <time>2013-11-11T09:51:19Z</time>
      </trkpt>
      <trkpt lat="43.70869" lon="5.96974">
        <ele>563.4</ele>
        <time>2013-11-11T09:51:24Z</time>
      </trkpt>
      <trkpt lat="43.70861" lon="5.97002">
        <ele>561.97</ele>
        <time>2013-11-11T09:51:29Z</time>
      </trkpt>
      <trkpt lat="43.70849" lon="5.97024">
        <ele>561.16</ele>
        <time>2013-11-11T09:51:34Z</time>
      </trkpt>
      <trkpt lat="43.70836" lon="5.97045">
        <ele>561.35</ele>
        <time>2013-11-11T09:51:39Z</time>
      </trkpt>
      <trkpt lat="43.70823" lon="5.97067">
        <ele>558.82</ele>
        <time>2013-11-11T09:51:44Z</time>
      </trkpt>
      <trkpt lat="43.70812" lon="5.97092">
        <ele>559.25</ele>
        <time>2013-11-11T09:51:49Z</time>
      </trkpt>
      <trkpt lat="43.708" lon="5.97116">
        <ele>557.65</ele>
        <time>2013-11-11T09:51:54Z</time>
      </trkpt>
      <trkpt lat="43.70795" lon="5.97144">
        <ele>556.68</ele>
        <time>2013-11-11T09:51:59Z</time>
      </trkpt>
      <trkpt lat="43.7079" lon="5.97172">
        <ele>554.37</ele>
        <time>2013-11-11T09:52:04Z</time>
      </trkpt>
      <trkpt lat="43.70782" lon="5.972">
        <ele>553.75</ele>
        <time>2013-11-11T09:52:09Z</time>
      </trkpt>
      <trkpt lat="43.70773" lon="5.97226">
        <ele>555.38</ele>
        <time>2013-11-11T09:52:14Z</time>
      </trkpt>
      <trkpt lat="43.70766" lon="5.97251">
        <ele>556.87</ele>
        <time>2013-11-11T09:52:19Z</time>
      </trkpt>
      <trkpt lat="43.70759" lon="5.97276">
        <ele>556.14</ele>
        <time>2013-11-11T09:52:23Z</time>
      </trkpt>
      <trkpt lat="43.70748" lon="5.97303">
        <ele>555.56</ele>
        <time>2013-11-11T09:52:28Z</time>
      </trkpt>
      <trkpt lat="43.70739" lon="5.9733">
        <ele>557.63</ele>
        <time>2013-11-11T09:52:33Z</time>
      </trkpt>
      <trkpt lat="43.70728" lon="5.97356">
        <ele>556.78</ele>
        <time>2013-11-11T09:52:38Z</time>
      </trkpt>
      <trkpt lat="43.70714" lon="5.97377">
        <ele>555.66</ele>
        <time>2013-11-11T09:52:43Z</time>
      </trkpt>
      <trkpt lat="43.70703" lon="5.97404">
        <ele>555.14</ele>
        <time>2013-11-11T09:52:48Z</time>
      </trkpt>
      <trkpt lat="43.70693" lon="5.97426">
        <ele>555.82</ele>
        <time>2013-11-11T09:52:53Z</time>
      </trkpt>
      <trkpt lat="43.70682" lon="5.97448">
        <ele>556.43</ele>
        <time>2013-11-11T09:52:58Z</time>
      </trkpt>
      <trkpt lat="43.70668" lon="5.97469">
        <ele>554.87</ele>
        <time>2013-11-11T09:53:03Z</time>
      </trkpt>
      <trkpt lat="43.70659" lon="5.97495">
        <ele>556.3</ele>
        <time>2013-11-11T09:53:09Z</time>
      </trkpt>
      <trkpt lat="43.70652" lon="5.97518">
        <ele>557.8</ele>
        <time>2013-11-11T09:53:14Z</time>
      </trkpt>
      <trkpt lat="43.70641" lon="5.97538">
        <ele>559.01</ele>
        <time>2013-11-11T09:53:19Z</time>
      </trkpt>
      <trkpt lat="43.70623" lon="5.97539">
        <ele>558.51</ele>
        <time>2013-11-11T09:53:24Z</time>
      </trkpt>
      <trkpt lat="43.70606" lon="5.9755">
        <ele>559.07</ele>
        <time>2013-11-11T09:53:30Z</time>
      </trkpt>
      <trkpt lat="43.70595" lon="5.97575">
        <ele>559.22</ele>
        <time>2013-11-11T09:53:36Z</time>
      </trkpt>
      <trkpt lat="43.70583" lon="5.97594">
        <ele>559.05</ele>
        <time>2013-11-11T09:53:41Z</time>
      </trkpt>
      <trkpt lat="43.70567" lon="5.9761">
        <ele>558.76</ele>
        <time>2013-11-11T09:53:46Z</time>
      </trkpt>
      <trkpt lat="43.70556" lon="5.97631">
        <ele>559.03</ele>
        <time>2013-11-11T09:53:51Z</time>
      </trkpt>
      <trkpt lat="43.70549" lon="5.97659">
        <ele>562.48</ele>
        <time>2013-11-11T09:53:57Z</time>
      </trkpt>
      <trkpt lat="43.70538" lon="5.97685">
        <ele>564.31</ele>
        <time>2013-11-11T09:54:03Z</time>
      </trkpt>
      <trkpt lat="43.70528" lon="5.97706">
        <ele>562.2</ele>
        <time>2013-11-11T09:54:08Z</time>
      </trkpt>
      <trkpt lat="43.70515" lon="5.9773">
        <ele>564.71</ele>
        <time>2013-11-11T09:54:14Z</time>
      </trkpt>
      <trkpt lat="43.70502" lon="5.97752">
        <ele>564.11</ele>
        <time>2013-11-11T09:54:19Z</time>
      </trkpt>
      <trkpt lat="43.7049" lon="5.97774">
        <ele>563.73</ele>
        <time>2013-11-11T09:54:25Z</time>
      </trkpt>
      <trkpt lat="43.70475" lon="5.97794">
        <ele>561.46</ele>
        <time>2013-11-11T09:54:30Z</time>
      </trkpt>
      <trkpt lat="43.70463" lon="5.97814">
        <ele>560.74</ele>
        <time>2013-11-11T09:54:34Z</time>
      </trkpt>
      <trkpt lat="43.7045" lon="5.97839">
        <ele>560.5</ele>
        <time>2013-11-11T09:54:39Z</time>
      </trkpt>
      <trkpt lat="43.70432" lon="5.97851">
        <ele>559.66</ele>
        <time>2013-11-11T09:54:43Z</time>
      </trkpt>
      <trkpt lat="43.70429" lon="5.97881">
        <ele>561.55</ele>
        <time>2013-11-11T09:54:51Z</time>
      </trkpt>
      <trkpt lat="43.7044" lon="5.97906">
        <ele>565.97</ele>
        <time>2013-11-11T09:54:56Z</time>
      </trkpt>
      <trkpt lat="43.70455" lon="5.97922">
        <ele>565.13</ele>
        <time>2013-11-11T09:55:00Z</time>
      </trkpt>
      <trkpt lat="43.70471" lon="5.97934">
        <ele>566.23</ele>
        <time>2013-11-11T09:55:04Z</time>
      </trkpt>
      <trkpt lat="43.70491" lon="5.97945">
        <ele>565.41</ele>
        <time>2013-11-11T09:55:09Z</time>
      </trkpt>
      <trkpt lat="43.70508" lon="5.97956">
        <ele>565.48</ele>
        <time>2013-11-11T09:55:14Z</time>
      </trkpt>
      <trkpt lat="43.70527" lon="5.97962">
        <ele>563.91</ele>
        <time>2013-11-11T09:55:19Z</time>
      </trkpt>
      <trkpt lat="43.70545" lon="5.9797">
        <ele>566.73</ele>
        <time>2013-11-11T09:55:24Z</time>
      </trkpt>
      <trkpt lat="43.70564" lon="5.9798">
        <ele>568.99</ele>
        <time>2013-11-11T09:55:29Z</time>
      </trkpt>
      <trkpt lat="43.70582" lon="5.97996">
        <ele>567.37</ele>
        <time>2013-11-11T09:55:33Z</time>
      </trkpt>
      <trkpt lat="43.70599" lon="5.98009">
        <ele>566.8</ele>
        <time>2013-11-11T09:55:37Z</time>
      </trkpt>
      <trkpt lat="43.70619" lon="5.98018">
        <ele>563.6</ele>
        <time>2013-11-11T09:55:42Z</time>
      </trkpt>
      <trkpt lat="43.70635" lon="5.98028">
        <ele>567.33</ele>
        <time>2013-11-11T09:55:53Z</time>
      </trkpt>
      <trkpt lat="43.70644" lon="5.98053">
        <ele>568.7</ele>
        <time>2013-11-11T09:56:03Z</time>
      </trkpt>
      <trkpt lat="43.70657" lon="5.98072">
        <ele>573.41</ele>
        <time>2013-11-11T09:56:10Z</time>
      </trkpt>
      <trkpt lat="43.70673" lon="5.98088">
        <ele>575.14</ele>
        <time>2013-11-11T09:56:18Z</time>
      </trkpt>
      <trkpt lat="43.70687" lon="5.98107">
        <ele>577.07</ele>
        <time>2013-11-11T09:56:25Z</time>
      </trkpt>
      <trkpt lat="43.70702" lon="5.98122">
        <ele>576.26</ele>
        <time>2013-11-11T09:56:30Z</time>
      </trkpt>
      <trkpt lat="43.70721" lon="5.9813">
        <ele>573.44</ele>
        <time>2013-11-11T09:56:36Z</time>
      </trkpt>
      <trkpt lat="43.70739" lon="5.98117">
        <ele>571.29</ele>
        <time>2013-11-11T09:56:43Z</time>
      </trkpt>
      <trkpt lat="43.70753" lon="5.98097">
        <ele>571.69</ele>
        <time>2013-11-11T09:56:49Z</time>
      </trkpt>
      <trkpt lat="43.70769" lon="5.98076">
        <ele>572.33</ele>
        <time>2013-11-11T09:56:55Z</time>
      </trkpt>
      <trkpt lat="43.70786" lon="5.98063">
        <ele>570.41</ele>
        <time>2013-11-11T09:57:00Z</time>
      </trkpt>
      <trkpt lat="43.70806" lon="5.98067">
        <ele>571.53</ele>
        <time>2013-11-11T09:57:05Z</time>
      </trkpt>
      <trkpt lat="43.70821" lon="5.98082">
        <ele>573.88</ele>
        <time>2013-11-11T09:57:10Z</time>
      </trkpt>
      <trkpt lat="43.70835" lon="5.981">
        <ele>577.53</ele>
        <time>2013-11-11T09:57:19Z</time>
      </trkpt>
      <trkpt lat="43.70848" lon="5.9812">
        <ele>577.77</ele>
        <time>2013-11-11T09:57:27Z</time>
      </trkpt>
      <trkpt lat="43.7086" lon="5.98138">
        <ele>576.01</ele>
        <time>2013-11-11T09:57:32Z</time>
      </trkpt>
      <trkpt lat="43.70874" lon="5.98158">
        <ele>577.39</ele>
        <time>2013-11-11T09:57:37Z</time>
      </trkpt>
      <trkpt lat="43.70889" lon="5.98177">
        <ele>577.49</ele>
        <time>2013-11-11T09:57:42Z</time>
      </trkpt>
      <trkpt lat="43.70903" lon="5.98197">
        <ele>578.74</ele>
        <time>2013-11-11T09:57:47Z</time>
      </trkpt>
      <trkpt lat="43.70915" lon="5.98217">
        <ele>579.04</ele>
        <time>2013-11-11T09:57:52Z</time>
      </trkpt>
      <trkpt lat="43.70909" lon="5.98243">
        <ele>578.99</ele>
        <time>2013-11-11T09:57:58Z</time>
      </trkpt>
      <trkpt lat="43.709" lon="5.98266">
        <ele>579.68</ele>
        <time>2013-11-11T09:58:04Z</time>
      </trkpt>
      <trkpt lat="43.70894" lon="5.98291">
        <ele>581.41</ele>
        <time>2013-11-11T09:58:10Z</time>
      </trkpt>
      <trkpt lat="43.70889" lon="5.98316">
        <ele>581.8</ele>
        <time>2013-11-11T09:58:16Z</time>
      </trkpt>
      <trkpt lat="43.70881" lon="5.98343">
        <ele>580.72</ele>
        <time>2013-11-11T09:58:22Z</time>
      </trkpt>
      <trkpt lat="43.70876" lon="5.98372">
        <ele>583.57</ele>
        <time>2013-11-11T09:58:28Z</time>
      </trkpt>
      <trkpt lat="43.70872" lon="5.98399">
        <ele>585.41</ele>
        <time>2013-11-11T09:58:34Z</time>
      </trkpt>
      <trkpt lat="43.70866" lon="5.98426">
        <ele>585.23</ele>
        <time>2013-11-11T09:58:39Z</time>
      </trkpt>
      <trkpt lat="43.70861" lon="5.98452">
        <ele>585.66</ele>
        <time>2013-11-11T09:58:44Z</time>
      </trkpt>
      <trkpt lat="43.70854" lon="5.98476">
        <ele>584.64</ele>
        <time>2013-11-11T09:58:48Z</time>
      </trkpt>
      <trkpt lat="43.70838" lon="5.98496">
        <ele>583.91</ele>
        <time>2013-11-11T09:58:53Z</time>
      </trkpt>
      <trkpt lat="43.70818" lon="5.98494">
        <ele>581.59</ele>
        <time>2013-11-11T09:58:57Z</time>
      </trkpt>
      <trkpt lat="43.70805" lon="5.98514">
        <ele>583.29</ele>
        <time>2013-11-11T09:59:02Z</time>
      </trkpt>
      <trkpt lat="43.70799" lon="5.98543">
        <ele>581.55</ele>
        <time>2013-11-11T09:59:06Z</time>
      </trkpt>
      <trkpt lat="43.70783" lon="5.98565">
        <ele>579.07</ele>
        <time>2013-11-11T09:59:10Z</time>
      </trkpt>
      <trkpt lat="43.70766" lon="5.98588">
        <ele>576.35</ele>
        <time>2013-11-11T09:59:14Z</time>
      </trkpt>
      <trkpt lat="43.70759" lon="5.98612">
        <ele>575.56</ele>
        <time>2013-11-11T09:59:17Z</time>
      </trkpt>
      <trkpt lat="43.70748" lon="5.9864">
        <ele>574.91</ele>
        <time>2013-11-11T09:59:21Z</time>
      </trkpt>
      <trkpt lat="43.70741" lon="5.9867">
        <ele>575.63</ele>
        <time>2013-11-11T09:59:25Z</time>
      </trkpt>
      <trkpt lat="43.7073" lon="5.9869">
        <ele>575.9</ele>
        <time>2013-11-11T09:59:28Z</time>
      </trkpt>
      <trkpt lat="43.70721" lon="5.98712">
        <ele>576.4</ele>
        <time>2013-11-11T09:59:31Z</time>
      </trkpt>
      <trkpt lat="43.70712" lon="5.98734">
        <ele>576.97</ele>
        <time>2013-11-11T09:59:34Z</time>
      </trkpt>
      <trkpt lat="43.70699" lon="5.98753">
        <ele>575.36</ele>
        <time>2013-11-11T09:59:37Z</time>
      </trkpt>
      <trkpt lat="43.70684" lon="5.98778">
        <ele>573.26</ele>
        <time>2013-11-11T09:59:41Z</time>
      </trkpt>
      <trkpt lat="43.70677" lon="5.98807">
        <ele>572.57</ele>
        <time>2013-11-11T09:59:45Z</time>
      </trkpt>
      <trkpt lat="43.70659" lon="5.98826">
        <ele>572.59</ele>
        <time>2013-11-11T09:59:49Z</time>
      </trkpt>
      <trkpt lat="43.7065" lon="5.98848">
        <ele>571.85</ele>
        <time>2013-11-11T09:59:52Z</time>
      </trkpt>
      <trkpt lat="43.70642" lon="5.98873">
        <ele>569.66</ele>
        <time>2013-11-11T09:59:55Z</time>
      </trkpt>
      <trkpt lat="43.70627" lon="5.98896">
        <ele>568.82</ele>
        <time>2013-11-11T09:59:58Z</time>
      </trkpt>
      <trkpt lat="43.70612" lon="5.98919">
        <ele>566.24</ele>
        <time>2013-11-11T10:00:01Z</time>
      </trkpt>
      <trkpt lat="43.70605" lon="5.98946">
        <ele>564.18</ele>
        <time>2013-11-11T10:00:04Z</time>
      </trkpt>
      <trkpt lat="43.70599" lon="5.98976">
        <ele>562.71</ele>
        <time>2013-11-11T10:00:07Z</time>
      </trkpt>
      <trkpt lat="43.70597" lon="5.99005">
        <ele>561.33</ele>
        <time>2013-11-11T10:00:10Z</time>
      </trkpt>
      <trkpt lat="43.70596" lon="5.99031">
        <ele>560.51</ele>
        <time>2013-11-11T10:00:13Z</time>
      </trkpt>
      <trkpt lat="43.70589" lon="5.99056">
        <ele>558.49</ele>
        <time>2013-11-11T10:00:16Z</time>
      </trkpt>
      <trkpt lat="43.70571" lon="5.99071">
        <ele>550.42</ele>
        <time>2013-11-11T10:00:38Z</time>
      </trkpt>
      <trkpt lat="43.70552" lon="5.99078">
        <ele>550.23</ele>
        <time>2013-11-11T10:00:43Z</time>
      </trkpt>
      <trkpt lat="43.70533" lon="5.99087">
        <ele>548.71</ele>
        <time>2013-11-11T10:00:48Z</time>
      </trkpt>
      <trkpt lat="43.70512" lon="5.99094">
        <ele>547.48</ele>
        <time>2013-11-11T10:00:53Z</time>
      </trkpt>
      <trkpt lat="43.7051" lon="5.9912">
        <ele>545.7</ele>
        <time>2013-11-11T10:00:59Z</time>
      </trkpt>
      <trkpt lat="43.70521" lon="5.9914">
        <ele>543.75</ele>
        <time>2013-11-11T10:01:09Z</time>
      </trkpt>
      <trkpt lat="43.70542" lon="5.99158">
        <ele>541.63</ele>
        <time>2013-11-11T10:01:12Z</time>
      </trkpt>
      <trkpt lat="43.70551" lon="5.9918">
        <ele>541.02</ele>
        <time>2013-11-11T10:01:15Z</time>
      </trkpt>
      <trkpt lat="43.70535" lon="5.99196">
        <ele>539.87</ele>
        <time>2013-11-11T10:01:19Z</time>
      </trkpt>
      <trkpt lat="43.70518" lon="5.99217">
        <ele>536.72</ele>
        <time>2013-11-11T10:01:22Z</time>
      </trkpt>
      <trkpt lat="43.70497" lon="5.99231">
        <ele>532.7</ele>
        <time>2013-11-11T10:01:26Z</time>
      </trkpt>
      <trkpt lat="43.7048" lon="5.99246">
        <ele>529.76</ele>
        <time>2013-11-11T10:01:29Z</time>
      </trkpt>
      <trkpt lat="43.70474" lon="5.9927">
        <ele>530.69</ele>
        <time>2013-11-11T10:01:35Z</time>
      </trkpt>
      <trkpt lat="43.7046" lon="5.99293">
        <ele>525.74</ele>
        <time>2013-11-11T10:01:43Z</time>
      </trkpt>
      <trkpt lat="43.70445" lon="5.99314">
        <ele>518.19</ele>
        <time>2013-11-11T10:01:47Z</time>
      </trkpt>
      <trkpt lat="43.70427" lon="5.99331">
        <ele>511.29</ele>
        <time>2013-11-11T10:01:52Z</time>
      </trkpt>
      <trkpt lat="43.7041" lon="5.99349">
        <ele>507.04</ele>
        <time>2013-11-11T10:01:55Z</time>
      </trkpt>
      <trkpt lat="43.70399" lon="5.99377">
        <ele>500.56</ele>
        <time>2013-11-11T10:01:59Z</time>
      </trkpt>
      <trkpt lat="43.70386" lon="5.99398">
        <ele>495.84</ele>
        <time>2013-11-11T10:02:03Z</time>
      </trkpt>
      <trkpt lat="43.70385" lon="5.99425">
        <ele>493.13</ele>
        <time>2013-11-11T10:02:08Z</time>
      </trkpt>
      <trkpt lat="43.70387" lon="5.99453">
        <ele>493.42</ele>
        <time>2013-11-11T10:02:12Z</time>
      </trkpt>
      <trkpt lat="43.70386" lon="5.99482">
        <ele>493.58</ele>
        <time>2013-11-11T10:02:16Z</time>
      </trkpt>
      <trkpt lat="43.70385" lon="5.99507">
        <ele>492.57</ele>
        <time>2013-11-11T10:02:19Z</time>
      </trkpt>
      <trkpt lat="43.70387" lon="5.99532">
        <ele>490.18</ele>
        <time>2013-11-11T10:02:22Z</time>
      </trkpt>
      <trkpt lat="43.70374" lon="5.99556">
        <ele>488.24</ele>
        <time>2013-11-11T10:02:26Z</time>
      </trkpt>
      <trkpt lat="43.70365" lon="5.9958">
        <ele>486.92</ele>
        <time>2013-11-11T10:02:29Z</time>
      </trkpt>
      <trkpt lat="43.70363" lon="5.99608">
        <ele>485.01</ele>
        <time>2013-11-11T10:02:32Z</time>
      </trkpt>
      <trkpt lat="43.70359" lon="5.99633">
        <ele>484.04</ele>
        <time>2013-11-11T10:02:35Z</time>
      </trkpt>
      <trkpt lat="43.70339" lon="5.99645">
        <ele>481.24</ele>
        <time>2013-11-11T10:02:39Z</time>
      </trkpt>
      <trkpt lat="43.70319" lon="5.99656">
        <ele>479.89</ele>
        <time>2013-11-11T10:02:43Z</time>
      </trkpt>
      <trkpt lat="43.70299" lon="5.9966">
        <ele>478.28</ele>
        <time>2013-11-11T10:02:47Z</time>
      </trkpt>
      <trkpt lat="43.70281" lon="5.99648">
        <ele>478.42</ele>
        <time>2013-11-11T10:02:53Z</time>
      </trkpt>
      <trkpt lat="43.70271" lon="5.99626">
        <ele>481.54</ele>
        <time>2013-11-11T10:03:02Z</time>
      </trkpt>
      <trkpt lat="43.70254" lon="5.99615">
        <ele>483.45</ele>
        <time>2013-11-11T10:03:11Z</time>
      </trkpt>
      <trkpt lat="43.70235" lon="5.99612">
        <ele>483.67</ele>
        <time>2013-11-11T10:03:20Z</time>
      </trkpt>
      <trkpt lat="43.70216" lon="5.99605">
        <ele>485.17</ele>
        <time>2013-11-11T10:03:29Z</time>
      </trkpt>
      <trkpt lat="43.70203" lon="5.99586">
        <ele>487.81</ele>
        <time>2013-11-11T10:03:38Z</time>
      </trkpt>
      <trkpt lat="43.7019" lon="5.99568">
        <ele>488.45</ele>
        <time>2013-11-11T10:03:47Z</time>
      </trkpt>
      <trkpt lat="43.70176" lon="5.9955">
        <ele>491.82</ele>
        <time>2013-11-11T10:03:57Z</time>
      </trkpt>
      <trkpt lat="43.70161" lon="5.99536">
        <ele>493.02</ele>
        <time>2013-11-11T10:04:06Z</time>
      </trkpt>
      <trkpt lat="43.70143" lon="5.99529">
        <ele>493.16</ele>
        <time>2013-11-11T10:04:15Z</time>
      </trkpt>
      <trkpt lat="43.70123" lon="5.99525">
        <ele>494.28</ele>
        <time>2013-11-11T10:04:25Z</time>
      </trkpt>
      <trkpt lat="43.70106" lon="5.99514">
        <ele>496.56</ele>
        <time>2013-11-11T10:04:34Z</time>
      </trkpt>
      <trkpt lat="43.70088" lon="5.99508">
        <ele>498.81</ele>
        <time>2013-11-11T10:04:43Z</time>
      </trkpt>
      <trkpt lat="43.70068" lon="5.99508">
        <ele>499.53</ele>
        <time>2013-11-11T10:04:52Z</time>
      </trkpt>
      <trkpt lat="43.70048" lon="5.99508">
        <ele>502.56</ele>
        <time>2013-11-11T10:05:02Z</time>
      </trkpt>
      <trkpt lat="43.70028" lon="5.99509">
        <ele>506.32</ele>
        <time>2013-11-11T10:05:12Z</time>
      </trkpt>
      <trkpt lat="43.70009" lon="5.99506">
        <ele>508.4</ele>
        <time>2013-11-11T10:05:22Z</time>
      </trkpt>
      <trkpt lat="43.6999" lon="5.99502">
        <ele>510.14</ele>
        <time>2013-11-11T10:05:32Z</time>
      </trkpt>
      <trkpt lat="43.69971" lon="5.99497">
        <ele>512.68</ele>
        <time>2013-11-11T10:05:43Z</time>
      </trkpt>
      <trkpt lat="43.69953" lon="5.99492">
        <ele>515.34</ele>
        <time>2013-11-11T10:05:55Z</time>
      </trkpt>
      <trkpt lat="43.69938" lon="5.99477">
        <ele>516.65</ele>
        <time>2013-11-11T10:06:07Z</time>
      </trkpt>
      <trkpt lat="43.6992" lon="5.99478">
        <ele>519.81</ele>
        <time>2013-11-11T10:06:20Z</time>
      </trkpt>
      <trkpt lat="43.69901" lon="5.99482">
        <ele>521.26</ele>
        <time>2013-11-11T10:06:32Z</time>
      </trkpt>
      <trkpt lat="43.69882" lon="5.99485">
        <ele>526.28</ele>
        <time>2013-11-11T10:06:44Z</time>
      </trkpt>
      <trkpt lat="43.69864" lon="5.99497">
        <ele>528.13</ele>
        <time>2013-11-11T10:06:55Z</time>
      </trkpt>
      <trkpt lat="43.6985" lon="5.99512">
        <ele>530.53</ele>
        <time>2013-11-11T10:07:04Z</time>
      </trkpt>
      <trkpt lat="43.69837" lon="5.9953">
        <ele>533.07</ele>
        <time>2013-11-11T10:07:14Z</time>
      </trkpt>
      <trkpt lat="43.69824" lon="5.99548">
        <ele>536.25</ele>
        <time>2013-11-11T10:07:25Z</time>
      </trkpt>
      <trkpt lat="43.69807" lon="5.99562">
        <ele>539.63</ele>
        <time>2013-11-11T10:07:36Z</time>
      </trkpt>
      <trkpt lat="43.69791" lon="5.99576">
        <ele>542.75</ele>
        <time>2013-11-11T10:07:47Z</time>
      </trkpt>
      <trkpt lat="43.69774" lon="5.99587">
        <ele>544.01</ele>
        <time>2013-11-11T10:07:58Z</time>
      </trkpt>
      <trkpt lat="43.69772" lon="5.99612">
        <ele>552.39</ele>
        <time>2013-11-11T10:08:10Z</time>
      </trkpt>
      <trkpt lat="43.69778" lon="5.99635">
        <ele>556.54</ele>
        <time>2013-11-11T10:08:18Z</time>
      </trkpt>
      <trkpt lat="43.69781" lon="5.99663">
        <ele>559.53</ele>
        <time>2013-11-11T10:08:25Z</time>
      </trkpt>
      <trkpt lat="43.69781" lon="5.9969">
        <ele>562.4</ele>
        <time>2013-11-11T10:08:31Z</time>
      </trkpt>
      <trkpt lat="43.69773" lon="5.99716">
        <ele>561.12</ele>
        <time>2013-11-11T10:08:36Z</time>
      </trkpt>
      <trkpt lat="43.69764" lon="5.99741">
        <ele>559.03</ele>
        <time>2013-11-11T10:08:40Z</time>
      </trkpt>
      <trkpt lat="43.69764" lon="5.99768">
        <ele>558.52</ele>
        <time>2013-11-11T10:08:45Z</time>
      </trkpt>
      <trkpt lat="43.6977" lon="5.99794">
        <ele>556.23</ele>
        <time>2013-11-11T10:08:49Z</time>
      </trkpt>
      <trkpt lat="43.69772" lon="5.99827">
        <ele>555.55</ele>
        <time>2013-11-11T10:08:54Z</time>
      </trkpt>
      <trkpt lat="43.69778" lon="5.99852">
        <ele>554.24</ele>
        <time>2013-11-11T10:08:57Z</time>
      </trkpt>
      <trkpt lat="43.69774" lon="5.99877">
        <ele>554.23</ele>
        <time>2013-11-11T10:09:01Z</time>
      </trkpt>
      <trkpt lat="43.69765" lon="5.99898">
        <ele>553.68</ele>
        <time>2013-11-11T10:09:05Z</time>
      </trkpt>
      <trkpt lat="43.69763" lon="5.99923">
        <ele>554.83</ele>
        <time>2013-11-11T10:09:09Z</time>
      </trkpt>
      <trkpt lat="43.69758" lon="5.99951">
        <ele>555.92</ele>
        <time>2013-11-11T10:09:14Z</time>
      </trkpt>
      <trkpt lat="43.69755" lon="5.99977">
        <ele>556.74</ele>
        <time>2013-11-11T10:09:18Z</time>
      </trkpt>
      <trkpt lat="43.69747" lon="6.00003">
        <ele>555.69</ele>
        <time>2013-11-11T10:09:22Z</time>
      </trkpt>
      <trkpt lat="43.69741" lon="6.00031">
        <ele>555.05</ele>
        <time>2013-11-11T10:09:26Z</time>
      </trkpt>
      <trkpt lat="43.69733" lon="6.00057">
        <ele>555.3</ele>
        <time>2013-11-11T10:09:30Z</time>
      </trkpt>
      <trkpt lat="43.69724" lon="6.00084">
        <ele>556.38</ele>
        <time>2013-11-11T10:09:34Z</time>
      </trkpt>
      <trkpt lat="43.69721" lon="6.0011">
        <ele>556.09</ele>
        <time>2013-11-11T10:09:38Z</time>
      </trkpt>
      <trkpt lat="43.69721" lon="6.0014">
        <ele>555.18</ele>
        <time>2013-11-11T10:09:42Z</time>
      </trkpt>
      <trkpt lat="43.69719" lon="6.0017">
        <ele>553.38</ele>
        <time>2013-11-11T10:09:46Z</time>
      </trkpt>
      <trkpt lat="43.69712" lon="6.00195">
        <ele>553.55</ele>
        <time>2013-11-11T10:09:50Z</time>
      </trkpt>
      <trkpt lat="43.69703" lon="6.00222">
        <ele>552.12</ele>
        <time>2013-11-11T10:09:54Z</time>
      </trkpt>
      <trkpt lat="43.69695" lon="6.00244">
        <ele>552.55</ele>
        <time>2013-11-11T10:09:58Z</time>
      </trkpt>
      <trkpt lat="43.69691" lon="6.00272">
        <ele>551.08</ele>
        <time>2013-11-11T10:10:02Z</time>
      </trkpt>
      <trkpt lat="43.69688" lon="6.003">
        <ele>552.31</ele>
        <time>2013-11-11T10:10:06Z</time>
      </trkpt>
      <trkpt lat="43.69682" lon="6.00332">
        <ele>552.36</ele>
        <time>2013-11-11T10:10:10Z</time>
      </trkpt>
      <trkpt lat="43.69676" lon="6.00356">
        <ele>551.37</ele>
        <time>2013-11-11T10:10:13Z</time>
      </trkpt>
      <trkpt lat="43.69672" lon="6.00384">
        <ele>550.92</ele>
        <time>2013-11-11T10:10:16Z</time>
      </trkpt>
      <trkpt lat="43.69668" lon="6.0041">
        <ele>550.06</ele>
        <time>2013-11-11T10:10:19Z</time>
      </trkpt>
      <trkpt lat="43.69656" lon="6.00431">
        <ele>549.67</ele>
        <time>2013-11-11T10:10:22Z</time>
      </trkpt>
      <trkpt lat="43.69647" lon="6.00454">
        <ele>547.86</ele>
        <time>2013-11-11T10:10:25Z</time>
      </trkpt>
      <trkpt lat="43.6964" lon="6.00485">
        <ele>547.74</ele>
        <time>2013-11-11T10:10:29Z</time>
      </trkpt>
      <trkpt lat="43.69636" lon="6.0051">
        <ele>547.24</ele>
        <time>2013-11-11T10:10:32Z</time>
      </trkpt>
      <trkpt lat="43.69631" lon="6.00535">
        <ele>545.75</ele>
        <time>2013-11-11T10:10:35Z</time>
      </trkpt>
      <trkpt lat="43.6962" lon="6.00555">
        <ele>544.08</ele>
        <time>2013-11-11T10:10:38Z</time>
      </trkpt>
      <trkpt lat="43.69611" lon="6.00578">
        <ele>542.26</ele>
        <time>2013-11-11T10:10:41Z</time>
      </trkpt>
      <trkpt lat="43.69603" lon="6.00602">
        <ele>540.82</ele>
        <time>2013-11-11T10:10:44Z</time>
      </trkpt>
      <trkpt lat="43.69597" lon="6.00626">
        <ele>539.01</ele>
        <time>2013-11-11T10:10:47Z</time>
      </trkpt>
      <trkpt lat="43.69589" lon="6.0065">
        <ele>537.51</ele>
        <time>2013-11-11T10:10:50Z</time>
      </trkpt>
      <trkpt lat="43.6958" lon="6.0068">
        <ele>536.67</ele>
        <time>2013-11-11T10:10:54Z</time>
      </trkpt>
      <trkpt lat="43.69577" lon="6.0071">
        <ele>535.2</ele>
        <time>2013-11-11T10:10:58Z</time>
      </trkpt>
      <trkpt lat="43.69577" lon="6.00737">
        <ele>535.33</ele>
        <time>2013-11-11T10:11:02Z</time>
      </trkpt>
      <trkpt lat="43.69575" lon="6.00768">
        <ele>536.01</ele>
        <time>2013-11-11T10:11:06Z</time>
      </trkpt>
      <trkpt lat="43.69572" lon="6.00798">
        <ele>535.18</ele>
        <time>2013-11-11T10:11:10Z</time>
      </trkpt>
      <trkpt lat="43.69562" lon="6.00827">
        <ele>533.93</ele>
        <time>2013-11-11T10:11:14Z</time>
      </trkpt>
      <trkpt lat="43.69553" lon="6.00857">
        <ele>532.88</ele>
        <time>2013-11-11T10:11:18Z</time>
      </trkpt>
      <trkpt lat="43.69549" lon="6.00887">
        <ele>530.81</ele>
        <time>2013-11-11T10:11:22Z</time>
      </trkpt>
      <trkpt lat="43.69539" lon="6.00916">
        <ele>529.24</ele>
        <time>2013-11-11T10:11:26Z</time>
      </trkpt>
      <trkpt lat="43.69529" lon="6.00944">
        <ele>527.15</ele>
        <time>2013-11-11T10:11:30Z</time>
      </trkpt>
      <trkpt lat="43.6951" lon="6.00957">
        <ele>526.47</ele>
        <time>2013-11-11T10:11:34Z</time>
      </trkpt>
      <trkpt lat="43.69496" lon="6.00981">
        <ele>524.74</ele>
        <time>2013-11-11T10:11:38Z</time>
      </trkpt>
      <trkpt lat="43.69481" lon="6.01003">
        <ele>522.88</ele>
        <time>2013-11-11T10:11:42Z</time>
      </trkpt>
      <trkpt lat="43.6947" lon="6.01024">
        <ele>523</ele>
        <time>2013-11-11T10:12:03Z</time>
      </trkpt>
      <trkpt lat="43.69454" lon="6.01034">
        <ele>520.48</ele>
        <time>2013-11-11T10:12:08Z</time>
      </trkpt>
      <trkpt lat="43.69436" lon="6.01021">
        <ele>514.72</ele>
        <time>2013-11-11T10:12:14Z</time>
      </trkpt>
      <trkpt lat="43.69425" lon="6.01042">
        <ele>511.49</ele>
        <time>2013-11-11T10:12:43Z</time>
      </trkpt>
      <trkpt lat="43.69418" lon="6.01067">
        <ele>508.15</ele>
        <time>2013-11-11T10:12:51Z</time>
      </trkpt>
      <trkpt lat="43.69401" lon="6.01085">
        <ele>504.2</ele>
        <time>2013-11-11T10:12:57Z</time>
      </trkpt>
      <trkpt lat="43.69384" lon="6.01101">
        <ele>501.51</ele>
        <time>2013-11-11T10:13:01Z</time>
      </trkpt>
      <trkpt lat="43.69367" lon="6.01114">
        <ele>499.27</ele>
        <time>2013-11-11T10:13:06Z</time>
      </trkpt>
      <trkpt lat="43.69354" lon="6.01131">
        <ele>497.01</ele>
        <time>2013-11-11T10:13:11Z</time>
      </trkpt>
      <trkpt lat="43.69341" lon="6.0115">
        <ele>493.89</ele>
        <time>2013-11-11T10:13:17Z</time>
      </trkpt>
      <trkpt lat="43.6933" lon="6.01169">
        <ele>490.82</ele>
        <time>2013-11-11T10:13:24Z</time>
      </trkpt>
      <trkpt lat="43.69317" lon="6.01187">
        <ele>487.16</ele>
        <time>2013-11-11T10:13:32Z</time>
      </trkpt>
      <trkpt lat="43.69301" lon="6.01206">
        <ele>485.65</ele>
        <time>2013-11-11T10:13:40Z</time>
      </trkpt>
      <trkpt lat="43.69316" lon="6.01219">
        <ele>487.88</ele>
        <time>2013-11-11T10:13:50Z</time>
      </trkpt>
      <trkpt lat="43.69335" lon="6.01213">
        <ele>485.74</ele>
        <time>2013-11-11T10:13:59Z</time>
      </trkpt>
      <trkpt lat="43.69353" lon="6.01204">
        <ele>484.77</ele>
        <time>2013-11-11T10:14:04Z</time>
      </trkpt>
      <trkpt lat="43.69375" lon="6.01199">
        <ele>480.88</ele>
        <time>2013-11-11T10:14:10Z</time>
      </trkpt>
      <trkpt lat="43.69394" lon="6.01193">
        <ele>480.5</ele>
        <time>2013-11-11T10:14:13Z</time>
      </trkpt>
      <trkpt lat="43.69416" lon="6.01183">
        <ele>481.48</ele>
        <time>2013-11-11T10:14:17Z</time>
      </trkpt>
      <trkpt lat="43.69437" lon="6.01175">
        <ele>482.42</ele>
        <time>2013-11-11T10:14:21Z</time>
      </trkpt>
      <trkpt lat="43.69459" lon="6.01163">
        <ele>484.52</ele>
        <time>2013-11-11T10:14:25Z</time>
      </trkpt>
      <trkpt lat="43.6948" lon="6.01156">
        <ele>485.76</ele>
        <time>2013-11-11T10:14:29Z</time>
      </trkpt>
      <trkpt lat="43.69501" lon="6.01149">
        <ele>484.44</ele>
        <time>2013-11-11T10:14:33Z</time>
      </trkpt>
      <trkpt lat="43.69523" lon="6.01148">
        <ele>480.94</ele>
        <time>2013-11-11T10:14:38Z</time>
      </trkpt>
      <trkpt lat="43.69542" lon="6.01149">
        <ele>482.85</ele>
        <time>2013-11-11T10:14:41Z</time>
      </trkpt>
      <trkpt lat="43.69563" lon="6.01155">
        <ele>486.64</ele>
        <time>2013-11-11T10:14:45Z</time>
      </trkpt>
      <trkpt lat="43.6957" lon="6.01181">
        <ele>489.44</ele>
        <time>2013-11-11T10:14:49Z</time>
      </trkpt>
      <trkpt lat="43.6958" lon="6.01204">
        <ele>488.24</ele>
        <time>2013-11-11T10:14:52Z</time>
      </trkpt>
      <trkpt lat="43.69588" lon="6.01228">
        <ele>487.28</ele>
        <time>2013-11-11T10:14:55Z</time>
      </trkpt>
      <trkpt lat="43.696" lon="6.0125">
        <ele>485.88</ele>
        <time>2013-11-11T10:14:58Z</time>
      </trkpt>
      <trkpt lat="43.69608" lon="6.01272">
        <ele>484.72</ele>
        <time>2013-11-11T10:15:01Z</time>
      </trkpt>
      <trkpt lat="43.69616" lon="6.01296">
        <ele>480.97</ele>
        <time>2013-11-11T10:15:05Z</time>
      </trkpt>
      <trkpt lat="43.69631" lon="6.01318">
        <ele>479.21</ele>
        <time>2013-11-11T10:15:09Z</time>
      </trkpt>
      <trkpt lat="43.69652" lon="6.01319">
        <ele>478.17</ele>
        <time>2013-11-11T10:15:13Z</time>
      </trkpt>
      <trkpt lat="43.69671" lon="6.01325">
        <ele>478.1</ele>
        <time>2013-11-11T10:15:18Z</time>
      </trkpt>
      <trkpt lat="43.69689" lon="6.01329">
        <ele>483.38</ele>
        <time>2013-11-11T10:15:22Z</time>
      </trkpt>
      <trkpt lat="43.69712" lon="6.01338">
        <ele>483.43</ele>
        <time>2013-11-11T10:15:26Z</time>
      </trkpt>
      <trkpt lat="43.69734" lon="6.01349">
        <ele>483.36</ele>
        <time>2013-11-11T10:15:30Z</time>
      </trkpt>
      <trkpt lat="43.69752" lon="6.01362">
        <ele>482.21</ele>
        <time>2013-11-11T10:15:34Z</time>
      </trkpt>
      <trkpt lat="43.69771" lon="6.01372">
        <ele>482.46</ele>
        <time>2013-11-11T10:15:38Z</time>
      </trkpt>
      <trkpt lat="43.69791" lon="6.01376">
        <ele>479.11</ele>
        <time>2013-11-11T10:15:42Z</time>
      </trkpt>
      <trkpt lat="43.69812" lon="6.01374">
        <ele>480.41</ele>
        <time>2013-11-11T10:15:47Z</time>
      </trkpt>
      <trkpt lat="43.69831" lon="6.01361">
        <ele>479.56</ele>
        <time>2013-11-11T10:15:52Z</time>
      </trkpt>
      <trkpt lat="43.69846" lon="6.01347">
        <ele>478.1</ele>
        <time>2013-11-11T10:15:56Z</time>
      </trkpt>
      <trkpt lat="43.69855" lon="6.01322">
        <ele>474.2</ele>
        <time>2013-11-11T10:16:02Z</time>
      </trkpt>
      <trkpt lat="43.69847" lon="6.01294">
        <ele>470.83</ele>
        <time>2013-11-11T10:16:07Z</time>
      </trkpt>
      <trkpt lat="43.6983" lon="6.01276">
        <ele>468.05</ele>
        <time>2013-11-11T10:16:11Z</time>
      </trkpt>
      <trkpt lat="43.6981" lon="6.01266">
        <ele>465.95</ele>
        <time>2013-11-11T10:16:15Z</time>
      </trkpt>
      <trkpt lat="43.69788" lon="6.01263">
        <ele>465.44</ele>
        <time>2013-11-11T10:16:19Z</time>
      </trkpt>
      <trkpt lat="43.69767" lon="6.01261">
        <ele>465.29</ele>
        <time>2013-11-11T10:16:23Z</time>
      </trkpt>
      <trkpt lat="43.69748" lon="6.01255">
        <ele>464.31</ele>
        <time>2013-11-11T10:16:27Z</time>
      </trkpt>
      <trkpt lat="43.69737" lon="6.01228">
        <ele>463.51</ele>
        <time>2013-11-11T10:16:32Z</time>
      </trkpt>
      <trkpt lat="43.69727" lon="6.01201">
        <ele>462.96</ele>
        <time>2013-11-11T10:16:36Z</time>
      </trkpt>
      <trkpt lat="43.69714" lon="6.01175">
        <ele>462.26</ele>
        <time>2013-11-11T10:16:40Z</time>
      </trkpt>
      <trkpt lat="43.69708" lon="6.01148">
        <ele>460.64</ele>
        <time>2013-11-11T10:16:44Z</time>
      </trkpt>
      <trkpt lat="43.69705" lon="6.01121">
        <ele>458.85</ele>
        <time>2013-11-11T10:16:48Z</time>
      </trkpt>
      <trkpt lat="43.69713" lon="6.01095">
        <ele>458.83</ele>
        <time>2013-11-11T10:16:54Z</time>
      </trkpt>
      <trkpt lat="43.69727" lon="6.01071">
        <ele>460.99</ele>
        <time>2013-11-11T10:16:58Z</time>
      </trkpt>
      <trkpt lat="43.69742" lon="6.01053">
        <ele>461.48</ele>
        <time>2013-11-11T10:17:02Z</time>
      </trkpt>
      <trkpt lat="43.69761" lon="6.01047">
        <ele>457.66</ele>
        <time>2013-11-11T10:17:06Z</time>
      </trkpt>
      <trkpt lat="43.69783" lon="6.01052">
        <ele>454.89</ele>
        <time>2013-11-11T10:17:11Z</time>
      </trkpt>
      <trkpt lat="43.69794" lon="6.01073">
        <ele>457.18</ele>
        <time>2013-11-11T10:17:17Z</time>
      </trkpt>
      <trkpt lat="43.69803" lon="6.01095">
        <ele>458.57</ele>
        <time>2013-11-11T10:17:22Z</time>
      </trkpt>
      <trkpt lat="43.69823" lon="6.01101">
        <ele>453.64</ele>
        <time>2013-11-11T10:17:27Z</time>
      </trkpt>
      <trkpt lat="43.69842" lon="6.01099">
        <ele>450.3</ele>
        <time>2013-11-11T10:17:32Z</time>
      </trkpt>
      <trkpt lat="43.69867" lon="6.01093">
        <ele>452.29</ele>
        <time>2013-11-11T10:17:37Z</time>
      </trkpt>
      <trkpt lat="43.69885" lon="6.0109">
        <ele>452.54</ele>
        <time>2013-11-11T10:17:42Z</time>
      </trkpt>
      <trkpt lat="43.69903" lon="6.0109">
        <ele>453.55</ele>
        <time>2013-11-11T10:17:46Z</time>
      </trkpt>
      <trkpt lat="43.69926" lon="6.01093">
        <ele>458.25</ele>
        <time>2013-11-11T10:17:51Z</time>
      </trkpt>
      <trkpt lat="43.69946" lon="6.01106">
        <ele>460.72</ele>
        <time>2013-11-11T10:17:55Z</time>
      </trkpt>
      <trkpt lat="43.69965" lon="6.01116">
        <ele>461.42</ele>
        <time>2013-11-11T10:17:59Z</time>
      </trkpt>
      <trkpt lat="43.6998" lon="6.01137">
        <ele>461.98</ele>
        <time>2013-11-11T10:18:03Z</time>
      </trkpt>
      <trkpt lat="43.69997" lon="6.01158">
        <ele>459.81</ele>
        <time>2013-11-11T10:18:07Z</time>
      </trkpt>
      <trkpt lat="43.70014" lon="6.01174">
        <ele>457.69</ele>
        <time>2013-11-11T10:18:10Z</time>
      </trkpt>
      <trkpt lat="43.7003" lon="6.01189">
        <ele>459.49</ele>
        <time>2013-11-11T10:18:15Z</time>
      </trkpt>
      <trkpt lat="43.7004" lon="6.0121">
        <ele>458.67</ele>
        <time>2013-11-11T10:18:29Z</time>
      </trkpt>
      <trkpt lat="43.70056" lon="6.01224">
        <ele>455.61</ele>
        <time>2013-11-11T10:19:01Z</time>
      </trkpt>
      <trkpt lat="43.70074" lon="6.01235">
        <ele>455.26</ele>
        <time>2013-11-11T10:19:09Z</time>
      </trkpt>
      <trkpt lat="43.70091" lon="6.01242">
        <ele>455.06</ele>
        <time>2013-11-11T10:19:16Z</time>
      </trkpt>
      <trkpt lat="43.7011" lon="6.0124">
        <ele>455.86</ele>
        <time>2013-11-11T10:19:24Z</time>
      </trkpt>
      <trkpt lat="43.70128" lon="6.0123">
        <ele>459.5</ele>
        <time>2013-11-11T10:19:41Z</time>
      </trkpt>
      <trkpt lat="43.70141" lon="6.01213">
        <ele>469.61</ele>
        <time>2013-11-11T10:19:53Z</time>
      </trkpt>
      <trkpt lat="43.70154" lon="6.01231">
        <ele>472.13</ele>
        <time>2013-11-11T10:20:43Z</time>
      </trkpt>
      <trkpt lat="43.70152" lon="6.01257">
        <ele>474.47</ele>
        <time>2013-11-11T10:20:55Z</time>
      </trkpt>
      <trkpt lat="43.70145" lon="6.0128">
        <ele>474.97</ele>
        <time>2013-11-11T10:21:05Z</time>
      </trkpt>
      <trkpt lat="43.70135" lon="6.01302">
        <ele>476.41</ele>
        <time>2013-11-11T10:21:15Z</time>
      </trkpt>
      <trkpt lat="43.70122" lon="6.01319">
        <ele>477.46</ele>
        <time>2013-11-11T10:21:34Z</time>
      </trkpt>
      <trkpt lat="43.70112" lon="6.01343">
        <ele>483.86</ele>
        <time>2013-11-11T10:21:47Z</time>
      </trkpt>
      <trkpt lat="43.70101" lon="6.01363">
        <ele>484.79</ele>
        <time>2013-11-11T10:21:57Z</time>
      </trkpt>
      <trkpt lat="43.70092" lon="6.01385">
        <ele>489.53</ele>
        <time>2013-11-11T10:22:08Z</time>
      </trkpt>
      <trkpt lat="43.70084" lon="6.01408">
        <ele>488.53</ele>
        <time>2013-11-11T10:22:20Z</time>
      </trkpt>
      <trkpt lat="43.70071" lon="6.01427">
        <ele>490.55</ele>
        <time>2013-11-11T10:22:33Z</time>
      </trkpt>
      <trkpt lat="43.70062" lon="6.0145">
        <ele>492.13</ele>
        <time>2013-11-11T10:22:42Z</time>
      </trkpt>
      <trkpt lat="43.70048" lon="6.01467">
        <ele>496.05</ele>
        <time>2013-11-11T10:22:53Z</time>
      </trkpt>
      <trkpt lat="43.70038" lon="6.01488">
        <ele>499.98</ele>
        <time>2013-11-11T10:23:07Z</time>
      </trkpt>
      <trkpt lat="43.70025" lon="6.01507">
        <ele>506.04</ele>
        <time>2013-11-11T10:23:20Z</time>
      </trkpt>
      <trkpt lat="43.70015" lon="6.01528">
        <ele>510.1</ele>
        <time>2013-11-11T10:23:32Z</time>
      </trkpt>
      <trkpt lat="43.70002" lon="6.01549">
        <ele>514.12</ele>
        <time>2013-11-11T10:23:45Z</time>
      </trkpt>
      <trkpt lat="43.69992" lon="6.01572">
        <ele>516.17</ele>
        <time>2013-11-11T10:23:54Z</time>
      </trkpt>
      <trkpt lat="43.6998" lon="6.01593">
        <ele>512.99</ele>
        <time>2013-11-11T10:24:02Z</time>
      </trkpt>
      <trkpt lat="43.69968" lon="6.01612">
        <ele>515.12</ele>
        <time>2013-11-11T10:24:10Z</time>
      </trkpt>
      <trkpt lat="43.69954" lon="6.0163">
        <ele>514.77</ele>
        <time>2013-11-11T10:24:16Z</time>
      </trkpt>
      <trkpt lat="43.69947" lon="6.01658">
        <ele>515.79</ele>
        <time>2013-11-11T10:24:22Z</time>
      </trkpt>
      <trkpt lat="43.69942" lon="6.01686">
        <ele>516.21</ele>
        <time>2013-11-11T10:24:28Z</time>
      </trkpt>
      <trkpt lat="43.69938" lon="6.01711">
        <ele>523.28</ele>
        <time>2013-11-11T10:24:39Z</time>
      </trkpt>
      <trkpt lat="43.69942" lon="6.01736">
        <ele>527.42</ele>
        <time>2013-11-11T10:24:47Z</time>
      </trkpt>
      <trkpt lat="43.69945" lon="6.01763">
        <ele>533.55</ele>
        <time>2013-11-11T10:24:55Z</time>
      </trkpt>
      <trkpt lat="43.69948" lon="6.01788">
        <ele>536.23</ele>
        <time>2013-11-11T10:25:03Z</time>
      </trkpt>
      <trkpt lat="43.69946" lon="6.01814">
        <ele>531.02</ele>
        <time>2013-11-11T10:25:11Z</time>
      </trkpt>
      <trkpt lat="43.69937" lon="6.01835">
        <ele>524.4</ele>
        <time>2013-11-11T10:25:19Z</time>
      </trkpt>
      <trkpt lat="43.6992" lon="6.01849">
        <ele>523.7</ele>
        <time>2013-11-11T10:25:29Z</time>
      </trkpt>
      <trkpt lat="43.69903" lon="6.01858">
        <ele>524.72</ele>
        <time>2013-11-11T10:25:39Z</time>
      </trkpt>
      <trkpt lat="43.69884" lon="6.01862">
        <ele>525.03</ele>
        <time>2013-11-11T10:25:49Z</time>
      </trkpt>
      <trkpt lat="43.69865" lon="6.01861">
        <ele>526.52</ele>
        <time>2013-11-11T10:25:59Z</time>
      </trkpt>
      <trkpt lat="43.69846" lon="6.01862">
        <ele>528.04</ele>
        <time>2013-11-11T10:26:08Z</time>
      </trkpt>
      <trkpt lat="43.69827" lon="6.01867">
        <ele>531.2</ele>
        <time>2013-11-11T10:26:19Z</time>
      </trkpt>
      <trkpt lat="43.69809" lon="6.01877">
        <ele>532.33</ele>
        <time>2013-11-11T10:26:29Z</time>
      </trkpt>
      <trkpt lat="43.69791" lon="6.01879">
        <ele>534.14</ele>
        <time>2013-11-11T10:26:38Z</time>
      </trkpt>
      <trkpt lat="43.69775" lon="6.01896">
        <ele>533.39</ele>
        <time>2013-11-11T10:26:48Z</time>
      </trkpt>
      <trkpt lat="43.69782" lon="6.01919">
        <ele>538.69</ele>
        <time>2013-11-11T10:30:26Z</time>
      </trkpt>
      <trkpt lat="43.69782" lon="6.01945">
        <ele>537.01</ele>
        <time>2013-11-11T10:30:33Z</time>
      </trkpt>
      <trkpt lat="43.69774" lon="6.01971">
        <ele>536.65</ele>
        <time>2013-11-11T10:30:39Z</time>
      </trkpt>
      <trkpt lat="43.69773" lon="6.01996">
        <ele>537.06</ele>
        <time>2013-11-11T10:30:44Z</time>
      </trkpt>
      <trkpt lat="43.69777" lon="6.02022">
        <ele>536.36</ele>
        <time>2013-11-11T10:30:50Z</time>
      </trkpt>
      <trkpt lat="43.69777" lon="6.02052">
        <ele>536.51</ele>
        <time>2013-11-11T10:30:56Z</time>
      </trkpt>
      <trkpt lat="43.6977" lon="6.02077">
        <ele>535.4</ele>
        <time>2013-11-11T10:31:01Z</time>
      </trkpt>
      <trkpt lat="43.69764" lon="6.02105">
        <ele>536.09</ele>
        <time>2013-11-11T10:31:07Z</time>
      </trkpt>
      <trkpt lat="43.69759" lon="6.02133">
        <ele>536.9</ele>
        <time>2013-11-11T10:31:13Z</time>
      </trkpt>
      <trkpt lat="43.69756" lon="6.02162">
        <ele>535</ele>
        <time>2013-11-11T10:31:18Z</time>
      </trkpt>
      <trkpt lat="43.69748" lon="6.02191">
        <ele>534.35</ele>
        <time>2013-11-11T10:31:23Z</time>
      </trkpt>
      <trkpt lat="43.69745" lon="6.02217">
        <ele>532.42</ele>
        <time>2013-11-11T10:31:26Z</time>
      </trkpt>
      <trkpt lat="43.6974" lon="6.02244">
        <ele>530.8</ele>
        <time>2013-11-11T10:31:30Z</time>
      </trkpt>
      <trkpt lat="43.69729" lon="6.02266">
        <ele>529.53</ele>
        <time>2013-11-11T10:31:36Z</time>
      </trkpt>
      <trkpt lat="43.69711" lon="6.02278">
        <ele>531.44</ele>
        <time>2013-11-11T10:31:43Z</time>
      </trkpt>
      <trkpt lat="43.69693" lon="6.02287">
        <ele>534.26</ele>
        <time>2013-11-11T10:31:49Z</time>
      </trkpt>
      <trkpt lat="43.69677" lon="6.02305">
        <ele>535.27</ele>
        <time>2013-11-11T10:31:55Z</time>
      </trkpt>
      <trkpt lat="43.69657" lon="6.02315">
        <ele>535.36</ele>
        <time>2013-11-11T10:32:00Z</time>
      </trkpt>
      <trkpt lat="43.69636" lon="6.02325">
        <ele>537.89</ele>
        <time>2013-11-11T10:32:06Z</time>
      </trkpt>
      <trkpt lat="43.6962" lon="6.02335">
        <ele>537.63</ele>
        <time>2013-11-11T10:32:11Z</time>
      </trkpt>
      <trkpt lat="43.696" lon="6.02345">
        <ele>537.24</ele>
        <time>2013-11-11T10:32:17Z</time>
      </trkpt>
      <trkpt lat="43.69581" lon="6.02357">
        <ele>538.82</ele>
        <time>2013-11-11T10:32:22Z</time>
      </trkpt>
      <trkpt lat="43.69561" lon="6.02366">
        <ele>540.91</ele>
        <time>2013-11-11T10:32:27Z</time>
      </trkpt>
      <trkpt lat="43.69548" lon="6.02385">
        <ele>542.27</ele>
        <time>2013-11-11T10:32:31Z</time>
      </trkpt>
      <trkpt lat="43.6953" lon="6.02401">
        <ele>540.88</ele>
        <time>2013-11-11T10:32:36Z</time>
      </trkpt>
      <trkpt lat="43.69511" lon="6.02404">
        <ele>540.76</ele>
        <time>2013-11-11T10:32:40Z</time>
      </trkpt>
      <trkpt lat="43.69491" lon="6.02419">
        <ele>542.63</ele>
        <time>2013-11-11T10:32:45Z</time>
      </trkpt>
      <trkpt lat="43.69478" lon="6.02439">
        <ele>544.2</ele>
        <time>2013-11-11T10:32:50Z</time>
      </trkpt>
      <trkpt lat="43.69468" lon="6.02464">
        <ele>542.36</ele>
        <time>2013-11-11T10:32:54Z</time>
      </trkpt>
      <trkpt lat="43.69449" lon="6.02471">
        <ele>543.75</ele>
        <time>2013-11-11T10:32:59Z</time>
      </trkpt>
      <trkpt lat="43.69434" lon="6.02488">
        <ele>542.7</ele>
        <time>2013-11-11T10:33:03Z</time>
      </trkpt>
      <trkpt lat="43.69414" lon="6.025">
        <ele>542.33</ele>
        <time>2013-11-11T10:33:08Z</time>
      </trkpt>
      <trkpt lat="43.69396" lon="6.02509">
        <ele>543.67</ele>
        <time>2013-11-11T10:33:12Z</time>
      </trkpt>
      <trkpt lat="43.69378" lon="6.02524">
        <ele>542.07</ele>
        <time>2013-11-11T10:33:17Z</time>
      </trkpt>
      <trkpt lat="43.69363" lon="6.02539">
        <ele>541.97</ele>
        <time>2013-11-11T10:33:21Z</time>
      </trkpt>
      <trkpt lat="43.69348" lon="6.02554">
        <ele>544.83</ele>
        <time>2013-11-11T10:33:25Z</time>
      </trkpt>
      <trkpt lat="43.69331" lon="6.02577">
        <ele>545.89</ele>
        <time>2013-11-11T10:33:29Z</time>
      </trkpt>
      <trkpt lat="43.69313" lon="6.02598">
        <ele>545.98</ele>
        <time>2013-11-11T10:33:33Z</time>
      </trkpt>
      <trkpt lat="43.69297" lon="6.0262">
        <ele>546.81</ele>
        <time>2013-11-11T10:33:37Z</time>
      </trkpt>
      <trkpt lat="43.69284" lon="6.02638">
        <ele>545.24</ele>
        <time>2013-11-11T10:33:40Z</time>
      </trkpt>
      <trkpt lat="43.69265" lon="6.02656">
        <ele>544.72</ele>
        <time>2013-11-11T10:33:44Z</time>
      </trkpt>
      <trkpt lat="43.69248" lon="6.02678">
        <ele>543.94</ele>
        <time>2013-11-11T10:33:48Z</time>
      </trkpt>
      <trkpt lat="43.69238" lon="6.02701">
        <ele>547.29</ele>
        <time>2013-11-11T10:33:52Z</time>
      </trkpt>
      <trkpt lat="43.69223" lon="6.02724">
        <ele>547.2</ele>
        <time>2013-11-11T10:33:56Z</time>
      </trkpt>
      <trkpt lat="43.69211" lon="6.0275">
        <ele>547.47</ele>
        <time>2013-11-11T10:34:00Z</time>
      </trkpt>
      <trkpt lat="43.69197" lon="6.02766">
        <ele>545.52</ele>
        <time>2013-11-11T10:34:03Z</time>
      </trkpt>
      <trkpt lat="43.69178" lon="6.02786">
        <ele>544.03</ele>
        <time>2013-11-11T10:34:07Z</time>
      </trkpt>
      <trkpt lat="43.69165" lon="6.02805">
        <ele>542.29</ele>
        <time>2013-11-11T10:34:10Z</time>
      </trkpt>
      <trkpt lat="43.69145" lon="6.02822">
        <ele>539.53</ele>
        <time>2013-11-11T10:34:14Z</time>
      </trkpt>
      <trkpt lat="43.69127" lon="6.02839">
        <ele>539.35</ele>
        <time>2013-11-11T10:34:18Z</time>
      </trkpt>
      <trkpt lat="43.69108" lon="6.02856">
        <ele>538.82</ele>
        <time>2013-11-11T10:34:22Z</time>
      </trkpt>
      <trkpt lat="43.69089" lon="6.02872">
        <ele>538.57</ele>
        <time>2013-11-11T10:34:26Z</time>
      </trkpt>
      <trkpt lat="43.69068" lon="6.02887">
        <ele>537.32</ele>
        <time>2013-11-11T10:34:30Z</time>
      </trkpt>
      <trkpt lat="43.69049" lon="6.02901">
        <ele>538.6</ele>
        <time>2013-11-11T10:34:34Z</time>
      </trkpt>
      <trkpt lat="43.69027" lon="6.02911">
        <ele>539.86</ele>
        <time>2013-11-11T10:34:38Z</time>
      </trkpt>
      <trkpt lat="43.69007" lon="6.02924">
        <ele>539.37</ele>
        <time>2013-11-11T10:34:42Z</time>
      </trkpt>
      <trkpt lat="43.68993" lon="6.02939">
        <ele>538.76</ele>
        <time>2013-11-11T10:34:45Z</time>
      </trkpt>
      <trkpt lat="43.68979" lon="6.02965">
        <ele>538.42</ele>
        <time>2013-11-11T10:34:49Z</time>
      </trkpt>
      <trkpt lat="43.68974" lon="6.02998">
        <ele>536.42</ele>
        <time>2013-11-11T10:34:53Z</time>
      </trkpt>
      <trkpt lat="43.68967" lon="6.03023">
        <ele>534.53</ele>
        <time>2013-11-11T10:34:56Z</time>
      </trkpt>
      <trkpt lat="43.68951" lon="6.03044">
        <ele>534.13</ele>
        <time>2013-11-11T10:35:00Z</time>
      </trkpt>
      <trkpt lat="43.6894" lon="6.0307">
        <ele>535.46</ele>
        <time>2013-11-11T10:35:05Z</time>
      </trkpt>
      <trkpt lat="43.68935" lon="6.03099">
        <ele>537.66</ele>
        <time>2013-11-11T10:35:11Z</time>
      </trkpt>
      <trkpt lat="43.68925" lon="6.0312">
        <ele>538.54</ele>
        <time>2013-11-11T10:35:17Z</time>
      </trkpt>
      <trkpt lat="43.68913" lon="6.03141">
        <ele>539.72</ele>
        <time>2013-11-11T10:35:24Z</time>
      </trkpt>
      <trkpt lat="43.68905" lon="6.03167">
        <ele>540.67</ele>
        <time>2013-11-11T10:35:31Z</time>
      </trkpt>
      <trkpt lat="43.68899" lon="6.03192">
        <ele>539.64</ele>
        <time>2013-11-11T10:35:36Z</time>
      </trkpt>
      <trkpt lat="43.68893" lon="6.03219">
        <ele>539.97</ele>
        <time>2013-11-11T10:35:40Z</time>
      </trkpt>
      <trkpt lat="43.68894" lon="6.03247">
        <ele>538.01</ele>
        <time>2013-11-11T10:35:43Z</time>
      </trkpt>
      <trkpt lat="43.68886" lon="6.03278">
        <ele>537.13</ele>
        <time>2013-11-11T10:35:47Z</time>
      </trkpt>
      <trkpt lat="43.68881" lon="6.0331">
        <ele>537.62</ele>
        <time>2013-11-11T10:35:51Z</time>
      </trkpt>
      <trkpt lat="43.68866" lon="6.03331">
        <ele>537.8</ele>
        <time>2013-11-11T10:35:55Z</time>
      </trkpt>
      <trkpt lat="43.68844" lon="6.03342">
        <ele>535.98</ele>
        <time>2013-11-11T10:35:59Z</time>
      </trkpt>
      <trkpt lat="43.68827" lon="6.03348">
        <ele>536.21</ele>
        <time>2013-11-11T10:36:02Z</time>
      </trkpt>
      <trkpt lat="43.68805" lon="6.03359">
        <ele>536.43</ele>
        <time>2013-11-11T10:36:06Z</time>
      </trkpt>
      <trkpt lat="43.68788" lon="6.0337">
        <ele>535.93</ele>
        <time>2013-11-11T10:36:09Z</time>
      </trkpt>
      <trkpt lat="43.68771" lon="6.0338">
        <ele>535.5</ele>
        <time>2013-11-11T10:36:12Z</time>
      </trkpt>
      <trkpt lat="43.68754" lon="6.03394">
        <ele>534.67</ele>
        <time>2013-11-11T10:36:15Z</time>
      </trkpt>
      <trkpt lat="43.68731" lon="6.03408">
        <ele>533.52</ele>
        <time>2013-11-11T10:36:19Z</time>
      </trkpt>
      <trkpt lat="43.68713" lon="6.03419">
        <ele>533.36</ele>
        <time>2013-11-11T10:36:22Z</time>
      </trkpt>
      <trkpt lat="43.68696" lon="6.03433">
        <ele>532.26</ele>
        <time>2013-11-11T10:36:25Z</time>
      </trkpt>
      <trkpt lat="43.68677" lon="6.03451">
        <ele>531.41</ele>
        <time>2013-11-11T10:36:29Z</time>
      </trkpt>
      <trkpt lat="43.68668" lon="6.03478">
        <ele>528.98</ele>
        <time>2013-11-11T10:36:33Z</time>
      </trkpt>
      <trkpt lat="43.68672" lon="6.03503">
        <ele>526.66</ele>
        <time>2013-11-11T10:36:36Z</time>
      </trkpt>
      <trkpt lat="43.68674" lon="6.03534">
        <ele>524.84</ele>
        <time>2013-11-11T10:36:40Z</time>
      </trkpt>
      <trkpt lat="43.68675" lon="6.03561">
        <ele>522.78</ele>
        <time>2013-11-11T10:36:44Z</time>
      </trkpt>
      <trkpt lat="43.68656" lon="6.03568">
        <ele>523.82</ele>
        <time>2013-11-11T10:36:50Z</time>
      </trkpt>
      <trkpt lat="43.68662" lon="6.03595">
        <ele>519.93</ele>
        <time>2013-11-11T10:37:01Z</time>
      </trkpt>
      <trkpt lat="43.68678" lon="6.03612">
        <ele>516.04</ele>
        <time>2013-11-11T10:37:06Z</time>
      </trkpt>
      <trkpt lat="43.68696" lon="6.03628">
        <ele>512.09</ele>
        <time>2013-11-11T10:37:12Z</time>
      </trkpt>
      <trkpt lat="43.68716" lon="6.03626">
        <ele>512.62</ele>
        <time>2013-11-11T10:37:15Z</time>
      </trkpt>
      <trkpt lat="43.68733" lon="6.0361">
        <ele>514.02</ele>
        <time>2013-11-11T10:37:20Z</time>
      </trkpt>
      <trkpt lat="43.68731" lon="6.03636">
        <ele>513.08</ele>
        <time>2013-11-11T10:37:29Z</time>
      </trkpt>
      <trkpt lat="43.68722" lon="6.03659">
        <ele>511.78</ele>
        <time>2013-11-11T10:37:31Z</time>
      </trkpt>
      <trkpt lat="43.68703" lon="6.0368">
        <ele>508.43</ele>
        <time>2013-11-11T10:37:35Z</time>
      </trkpt>
      <trkpt lat="43.68684" lon="6.03693">
        <ele>506.87</ele>
        <time>2013-11-11T10:37:39Z</time>
      </trkpt>
      <trkpt lat="43.68665" lon="6.03695">
        <ele>505.89</ele>
        <time>2013-11-11T10:37:42Z</time>
      </trkpt>
      <trkpt lat="43.68644" lon="6.03696">
        <ele>503.72</ele>
        <time>2013-11-11T10:37:45Z</time>
      </trkpt>
      <trkpt lat="43.6862" lon="6.03702">
        <ele>501.49</ele>
        <time>2013-11-11T10:37:48Z</time>
      </trkpt>
      <trkpt lat="43.68601" lon="6.03717">
        <ele>500.34</ele>
        <time>2013-11-11T10:37:51Z</time>
      </trkpt>
      <trkpt lat="43.68586" lon="6.03731">
        <ele>499.74</ele>
        <time>2013-11-11T10:37:53Z</time>
      </trkpt>
      <trkpt lat="43.68563" lon="6.03743">
        <ele>496.93</ele>
        <time>2013-11-11T10:37:56Z</time>
      </trkpt>
      <trkpt lat="43.68539" lon="6.03751">
        <ele>495.05</ele>
        <time>2013-11-11T10:37:59Z</time>
      </trkpt>
      <trkpt lat="43.68521" lon="6.0376">
        <ele>494.47</ele>
        <time>2013-11-11T10:38:01Z</time>
      </trkpt>
      <trkpt lat="43.68504" lon="6.03776">
        <ele>490.47</ele>
        <time>2013-11-11T10:38:03Z</time>
      </trkpt>
      <trkpt lat="43.68487" lon="6.03791">
        <ele>487.97</ele>
        <time>2013-11-11T10:38:05Z</time>
      </trkpt>
      <trkpt lat="43.68466" lon="6.0381">
        <ele>486.26</ele>
        <time>2013-11-11T10:38:08Z</time>
      </trkpt>
      <trkpt lat="43.68447" lon="6.03817">
        <ele>484.34</ele>
        <time>2013-11-11T10:38:11Z</time>
      </trkpt>
      <trkpt lat="43.68465" lon="6.03826">
        <ele>478.28</ele>
        <time>2013-11-11T10:38:19Z</time>
      </trkpt>
      <trkpt lat="43.68487" lon="6.03828">
        <ele>476.57</ele>
        <time>2013-11-11T10:38:24Z</time>
      </trkpt>
      <trkpt lat="43.68507" lon="6.03822">
        <ele>473.58</ele>
        <time>2013-11-11T10:38:27Z</time>
      </trkpt>
      <trkpt lat="43.68527" lon="6.03829">
        <ele>471.51</ele>
        <time>2013-11-11T10:38:30Z</time>
      </trkpt>
      <trkpt lat="43.68549" lon="6.03849">
        <ele>469.49</ele>
        <time>2013-11-11T10:38:33Z</time>
      </trkpt>
      <trkpt lat="43.68566" lon="6.03861">
        <ele>468</ele>
        <time>2013-11-11T10:38:35Z</time>
      </trkpt>
      <trkpt lat="43.68588" lon="6.03874">
        <ele>464.55</ele>
        <time>2013-11-11T10:38:38Z</time>
      </trkpt>
      <trkpt lat="43.68607" lon="6.0387">
        <ele>462.76</ele>
        <time>2013-11-11T10:38:41Z</time>
      </trkpt>
      <trkpt lat="43.68627" lon="6.03858">
        <ele>462.41</ele>
        <time>2013-11-11T10:38:44Z</time>
      </trkpt>
      <trkpt lat="43.68648" lon="6.03868">
        <ele>460.51</ele>
        <time>2013-11-11T10:38:47Z</time>
      </trkpt>
      <trkpt lat="43.6866" lon="6.0389">
        <ele>458.56</ele>
        <time>2013-11-11T10:38:50Z</time>
      </trkpt>
      <trkpt lat="43.6868" lon="6.03906">
        <ele>455.2</ele>
        <time>2013-11-11T10:38:54Z</time>
      </trkpt>
      <trkpt lat="43.68699" lon="6.03897">
        <ele>453.82</ele>
        <time>2013-11-11T10:38:57Z</time>
      </trkpt>
      <trkpt lat="43.68717" lon="6.03893">
        <ele>451.23</ele>
        <time>2013-11-11T10:39:00Z</time>
      </trkpt>
      <trkpt lat="43.68741" lon="6.03891">
        <ele>448.07</ele>
        <time>2013-11-11T10:39:03Z</time>
      </trkpt>
      <trkpt lat="43.6876" lon="6.0389">
        <ele>444.9</ele>
        <time>2013-11-11T10:39:05Z</time>
      </trkpt>
      <trkpt lat="43.68779" lon="6.03887">
        <ele>441.47</ele>
        <time>2013-11-11T10:39:08Z</time>
      </trkpt>
      <trkpt lat="43.68795" lon="6.03875">
        <ele>438.15</ele>
        <time>2013-11-11T10:39:10Z</time>
      </trkpt>
      <trkpt lat="43.68817" lon="6.0386">
        <ele>432.96</ele>
        <time>2013-11-11T10:39:13Z</time>
      </trkpt>
      <trkpt lat="43.6884" lon="6.03859">
        <ele>429.31</ele>
        <time>2013-11-11T10:39:16Z</time>
      </trkpt>
      <trkpt lat="43.68861" lon="6.03863">
        <ele>427.29</ele>
        <time>2013-11-11T10:39:19Z</time>
      </trkpt>
      <trkpt lat="43.68884" lon="6.03864">
        <ele>423.64</ele>
        <time>2013-11-11T10:39:23Z</time>
      </trkpt>
      <trkpt lat="43.68905" lon="6.03855">
        <ele>421.99</ele>
        <time>2013-11-11T10:39:26Z</time>
      </trkpt>
      <trkpt lat="43.68928" lon="6.03846">
        <ele>419.95</ele>
        <time>2013-11-11T10:39:29Z</time>
      </trkpt>
      <trkpt lat="43.68949" lon="6.03839">
        <ele>417.42</ele>
        <time>2013-11-11T10:39:32Z</time>
      </trkpt>
      <trkpt lat="43.68969" lon="6.0384">
        <ele>416.4</ele>
        <time>2013-11-11T10:39:35Z</time>
      </trkpt>
      <trkpt lat="43.68991" lon="6.03837">
        <ele>414.59</ele>
        <time>2013-11-11T10:39:38Z</time>
      </trkpt>
      <trkpt lat="43.69015" lon="6.03828">
        <ele>412.32</ele>
        <time>2013-11-11T10:39:41Z</time>
      </trkpt>
      <trkpt lat="43.69036" lon="6.03805">
        <ele>409.66</ele>
        <time>2013-11-11T10:39:44Z</time>
      </trkpt>
      <trkpt lat="43.69058" lon="6.03786">
        <ele>405.46</ele>
        <time>2013-11-11T10:39:47Z</time>
      </trkpt>
      <trkpt lat="43.69076" lon="6.03784">
        <ele>402.7</ele>
        <time>2013-11-11T10:39:49Z</time>
      </trkpt>
      <trkpt lat="43.69102" lon="6.03786">
        <ele>397.12</ele>
        <time>2013-11-11T10:39:52Z</time>
      </trkpt>
      <trkpt lat="43.69124" lon="6.03799">
        <ele>394.59</ele>
        <time>2013-11-11T10:39:55Z</time>
      </trkpt>
      <trkpt lat="43.69147" lon="6.0381">
        <ele>392.9</ele>
        <time>2013-11-11T10:39:58Z</time>
      </trkpt>
      <trkpt lat="43.69173" lon="6.03809">
        <ele>390.32</ele>
        <time>2013-11-11T10:40:01Z</time>
      </trkpt>
      <trkpt lat="43.69194" lon="6.03808">
        <ele>387.28</ele>
        <time>2013-11-11T10:40:04Z</time>
      </trkpt>
      <trkpt lat="43.69215" lon="6.03812">
        <ele>384.14</ele>
        <time>2013-11-11T10:40:09Z</time>
      </trkpt>
      <trkpt lat="43.69234" lon="6.03798">
        <ele>381.17</ele>
        <time>2013-11-11T10:40:13Z</time>
      </trkpt>
      <trkpt lat="43.69249" lon="6.0378">
        <ele>379.6</ele>
        <time>2013-11-11T10:40:16Z</time>
      </trkpt>
      <trkpt lat="43.69266" lon="6.0376">
        <ele>378.47</ele>
        <time>2013-11-11T10:40:19Z</time>
      </trkpt>
      <trkpt lat="43.69283" lon="6.03735">
        <ele>376.01</ele>
        <time>2013-11-11T10:40:22Z</time>
      </trkpt>
      <trkpt lat="43.69299" lon="6.03711">
        <ele>374.79</ele>
        <time>2013-11-11T10:40:25Z</time>
      </trkpt>
      <trkpt lat="43.69311" lon="6.03685">
        <ele>373.64</ele>
        <time>2013-11-11T10:40:28Z</time>
      </trkpt>
      <trkpt lat="43.69319" lon="6.03658">
        <ele>372.39</ele>
        <time>2013-11-11T10:40:31Z</time>
      </trkpt>
      <trkpt lat="43.69322" lon="6.03627">
        <ele>372.34</ele>
        <time>2013-11-11T10:40:34Z</time>
      </trkpt>
      <trkpt lat="43.69329" lon="6.036">
        <ele>372.63</ele>
        <time>2013-11-11T10:40:37Z</time>
      </trkpt>
      <trkpt lat="43.69336" lon="6.03574">
        <ele>372.34</ele>
        <time>2013-11-11T10:40:40Z</time>
      </trkpt>
      <trkpt lat="43.69347" lon="6.03548">
        <ele>371.72</ele>
        <time>2013-11-11T10:40:43Z</time>
      </trkpt>
      <trkpt lat="43.69362" lon="6.03528">
        <ele>371.34</ele>
        <time>2013-11-11T10:40:46Z</time>
      </trkpt>
      <trkpt lat="43.6938" lon="6.0351">
        <ele>371.45</ele>
        <time>2013-11-11T10:40:49Z</time>
      </trkpt>
      <trkpt lat="43.69399" lon="6.03493">
        <ele>370.51</ele>
        <time>2013-11-11T10:40:52Z</time>
      </trkpt>
      <trkpt lat="43.6942" lon="6.03485">
        <ele>367.88</ele>
        <time>2013-11-11T10:40:55Z</time>
      </trkpt>
      <trkpt lat="43.69442" lon="6.03487">
        <ele>366.15</ele>
        <time>2013-11-11T10:40:58Z</time>
      </trkpt>
      <trkpt lat="43.69455" lon="6.03506">
        <ele>365.23</ele>
        <time>2013-11-11T10:41:01Z</time>
      </trkpt>
      <trkpt lat="43.69466" lon="6.03532">
        <ele>364.53</ele>
        <time>2013-11-11T10:41:05Z</time>
      </trkpt>
      <trkpt lat="43.6948" lon="6.03557">
        <ele>364.7</ele>
        <time>2013-11-11T10:41:08Z</time>
      </trkpt>
      <trkpt lat="43.695" lon="6.03566">
        <ele>367.96</ele>
        <time>2013-11-11T10:41:11Z</time>
      </trkpt>
      <trkpt lat="43.69522" lon="6.03569">
        <ele>368.82</ele>
        <time>2013-11-11T10:41:14Z</time>
      </trkpt>
      <trkpt lat="43.69543" lon="6.03575">
        <ele>366.96</ele>
        <time>2013-11-11T10:41:17Z</time>
      </trkpt>
      <trkpt lat="43.69561" lon="6.03586">
        <ele>365.36</ele>
        <time>2013-11-11T10:41:20Z</time>
      </trkpt>
      <trkpt lat="43.69577" lon="6.0361">
        <ele>363.54</ele>
        <time>2013-11-11T10:41:24Z</time>
      </trkpt>
      <trkpt lat="43.69591" lon="6.03633">
        <ele>361.2</ele>
        <time>2013-11-11T10:41:27Z</time>
      </trkpt>
      <trkpt lat="43.69603" lon="6.03652">
        <ele>360.64</ele>
        <time>2013-11-11T10:41:30Z</time>
      </trkpt>
      <trkpt lat="43.69609" lon="6.03682">
        <ele>360.9</ele>
        <time>2013-11-11T10:41:34Z</time>
      </trkpt>
      <trkpt lat="43.69618" lon="6.03707">
        <ele>359.82</ele>
        <time>2013-11-11T10:41:37Z</time>
      </trkpt>
      <trkpt lat="43.69635" lon="6.03697">
        <ele>365.32</ele>
        <time>2013-11-11T10:41:50Z</time>
      </trkpt>
      <trkpt lat="43.69646" lon="6.03677">
        <ele>367.51</ele>
        <time>2013-11-11T10:49:27Z</time>
      </trkpt>
      <trkpt lat="43.69663" lon="6.03668">
        <ele>368.81</ele>
        <time>2013-11-11T10:49:36Z</time>
      </trkpt>
      <trkpt lat="43.69683" lon="6.03664">
        <ele>370.66</ele>
        <time>2013-11-11T10:49:44Z</time>
      </trkpt>
      <trkpt lat="43.69701" lon="6.03661">
        <ele>372.14</ele>
        <time>2013-11-11T10:49:51Z</time>
      </trkpt>
      <trkpt lat="43.6972" lon="6.03656">
        <ele>374.68</ele>
        <time>2013-11-11T10:49:59Z</time>
      </trkpt>
      <trkpt lat="43.69739" lon="6.03649">
        <ele>374.48</ele>
        <time>2013-11-11T10:50:06Z</time>
      </trkpt>
      <trkpt lat="43.69758" lon="6.03643">
        <ele>376.04</ele>
        <time>2013-11-11T10:50:14Z</time>
      </trkpt>
      <trkpt lat="43.69776" lon="6.03634">
        <ele>376.26</ele>
        <time>2013-11-11T10:50:21Z</time>
      </trkpt>
      <trkpt lat="43.69793" lon="6.03625">
        <ele>376.1</ele>
        <time>2013-11-11T10:50:29Z</time>
      </trkpt>
      <trkpt lat="43.69811" lon="6.03613">
        <ele>378.55</ele>
        <time>2013-11-11T10:50:38Z</time>
      </trkpt>
      <trkpt lat="43.69829" lon="6.036">
        <ele>381.52</ele>
        <time>2013-11-11T10:50:47Z</time>
      </trkpt>
      <trkpt lat="43.69844" lon="6.03586">
        <ele>382.02</ele>
        <time>2013-11-11T10:50:55Z</time>
      </trkpt>
      <trkpt lat="43.69858" lon="6.03571">
        <ele>383.04</ele>
        <time>2013-11-11T10:51:05Z</time>
      </trkpt>
      <trkpt lat="43.69872" lon="6.03555">
        <ele>385.18</ele>
        <time>2013-11-11T10:51:19Z</time>
      </trkpt>
      <trkpt lat="43.69883" lon="6.03535">
        <ele>387.14</ele>
        <time>2013-11-11T10:51:31Z</time>
      </trkpt>
      <trkpt lat="43.69899" lon="6.03521">
        <ele>390.6</ele>
        <time>2013-11-11T10:51:44Z</time>
      </trkpt>
      <trkpt lat="43.69916" lon="6.03508">
        <ele>392.88</ele>
        <time>2013-11-11T10:51:57Z</time>
      </trkpt>
      <trkpt lat="43.6993" lon="6.03493">
        <ele>396.67</ele>
        <time>2013-11-11T10:52:11Z</time>
      </trkpt>
      <trkpt lat="43.69948" lon="6.03484">
        <ele>400.01</ele>
        <time>2013-11-11T10:52:25Z</time>
      </trkpt>
      <trkpt lat="43.69963" lon="6.03469">
        <ele>402.99</ele>
        <time>2013-11-11T10:52:42Z</time>
      </trkpt>
      <trkpt lat="43.69975" lon="6.03449">
        <ele>410.88</ele>
        <time>2013-11-11T10:52:56Z</time>
      </trkpt>
      <trkpt lat="43.69987" lon="6.0343">
        <ele>415.32</ele>
        <time>2013-11-11T10:53:10Z</time>
      </trkpt>
      <trkpt lat="43.70001" lon="6.03412">
        <ele>418.43</ele>
        <time>2013-11-11T10:53:23Z</time>
      </trkpt>
      <trkpt lat="43.70014" lon="6.03395">
        <ele>421.11</ele>
        <time>2013-11-11T10:53:37Z</time>
      </trkpt>
      <trkpt lat="43.70031" lon="6.03381">
        <ele>423.72</ele>
        <time>2013-11-11T10:53:50Z</time>
      </trkpt>
      <trkpt lat="43.70046" lon="6.03365">
        <ele>425.68</ele>
        <time>2013-11-11T10:54:03Z</time>
      </trkpt>
      <trkpt lat="43.70062" lon="6.03351">
        <ele>428.27</ele>
        <time>2013-11-11T10:54:16Z</time>
      </trkpt>
      <trkpt lat="43.70078" lon="6.03338">
        <ele>429.53</ele>
        <time>2013-11-11T10:54:27Z</time>
      </trkpt>
      <trkpt lat="43.70094" lon="6.03322">
        <ele>432.33</ele>
        <time>2013-11-11T10:54:37Z</time>
      </trkpt>
      <trkpt lat="43.70108" lon="6.03306">
        <ele>432.33</ele>
        <time>2013-11-11T10:54:46Z</time>
      </trkpt>
      <trkpt lat="43.70123" lon="6.0329">
        <ele>432.91</ele>
        <time>2013-11-11T10:54:55Z</time>
      </trkpt>
      <trkpt lat="43.70138" lon="6.03276">
        <ele>434.91</ele>
        <time>2013-11-11T10:55:04Z</time>
      </trkpt>
      <trkpt lat="43.7015" lon="6.03257">
        <ele>436.14</ele>
        <time>2013-11-11T10:55:13Z</time>
      </trkpt>
      <trkpt lat="43.70164" lon="6.03238">
        <ele>438.49</ele>
        <time>2013-11-11T10:55:23Z</time>
      </trkpt>
      <trkpt lat="43.70173" lon="6.03214">
        <ele>441.08</ele>
        <time>2013-11-11T10:55:33Z</time>
      </trkpt>
      <trkpt lat="43.70186" lon="6.03195">
        <ele>442.4</ele>
        <time>2013-11-11T10:55:43Z</time>
      </trkpt>
      <trkpt lat="43.702" lon="6.03178">
        <ele>444.25</ele>
        <time>2013-11-11T10:55:55Z</time>
      </trkpt>
      <trkpt lat="43.70216" lon="6.03165">
        <ele>447.16</ele>
        <time>2013-11-11T10:56:08Z</time>
      </trkpt>
      <trkpt lat="43.70234" lon="6.0316">
        <ele>450.31</ele>
        <time>2013-11-11T10:56:23Z</time>
      </trkpt>
      <trkpt lat="43.70252" lon="6.03153">
        <ele>451.37</ele>
        <time>2013-11-11T10:57:00Z</time>
      </trkpt>
      <trkpt lat="43.70264" lon="6.03134">
        <ele>457.31</ele>
        <time>2013-11-11T10:57:46Z</time>
      </trkpt>
      <trkpt lat="43.70267" lon="6.03109">
        <ele>466.87</ele>
        <time>2013-11-11T10:58:22Z</time>
      </trkpt>
      <trkpt lat="43.70264" lon="6.03084">
        <ele>471.99</ele>
        <time>2013-11-11T10:59:02Z</time>
      </trkpt>
      <trkpt lat="43.70251" lon="6.03065">
        <ele>482.57</ele>
        <time>2013-11-11T10:59:44Z</time>
      </trkpt>
      <trkpt lat="43.70239" lon="6.03047">
        <ele>490.13</ele>
        <time>2013-11-11T11:00:20Z</time>
      </trkpt>
      <trkpt lat="43.70222" lon="6.03038">
        <ele>502.63</ele>
        <time>2013-11-11T11:01:06Z</time>
      </trkpt>
      <trkpt lat="43.70204" lon="6.03033">
        <ele>516.28</ele>
        <time>2013-11-11T11:02:16Z</time>
      </trkpt>
      <trkpt lat="43.70186" lon="6.03042">
        <ele>522.26</ele>
        <time>2013-11-11T11:02:42Z</time>
      </trkpt>
      <trkpt lat="43.70167" lon="6.03044">
        <ele>515.71</ele>
        <time>2013-11-11T11:02:54Z</time>
      </trkpt>
      <trkpt lat="43.70151" lon="6.03053">
        <ele>523.34</ele>
        <time>2013-11-11T11:03:22Z</time>
      </trkpt>
      <trkpt lat="43.70134" lon="6.0304">
        <ele>525.5</ele>
        <time>2013-11-11T11:04:27Z</time>
      </trkpt>
      <trkpt lat="43.70131" lon="6.03016">
        <ele>527.03</ele>
        <time>2013-11-11T11:04:46Z</time>
      </trkpt>
      <trkpt lat="43.70119" lon="6.02996">
        <ele>528.32</ele>
        <time>2013-11-11T11:05:07Z</time>
      </trkpt>
      <trkpt lat="43.70104" lon="6.02981">
        <ele>529.59</ele>
        <time>2013-11-11T11:05:18Z</time>
      </trkpt>
      <trkpt lat="43.7012" lon="6.02965">
        <ele>527.18</ele>
        <time>2013-11-11T11:07:11Z</time>
      </trkpt>
      <trkpt lat="43.7014" lon="6.02953">
        <ele>526.5</ele>
        <time>2013-11-11T11:07:16Z</time>
      </trkpt>
      <trkpt lat="43.7016" lon="6.02948">
        <ele>527.72</ele>
        <time>2013-11-11T11:07:22Z</time>
      </trkpt>
      <trkpt lat="43.70179" lon="6.02946">
        <ele>528.83</ele>
        <time>2013-11-11T11:07:29Z</time>
      </trkpt>
      <trkpt lat="43.70196" lon="6.02934">
        <ele>529.56</ele>
        <time>2013-11-11T11:07:36Z</time>
      </trkpt>
      <trkpt lat="43.70211" lon="6.0292">
        <ele>530.88</ele>
        <time>2013-11-11T11:07:43Z</time>
      </trkpt>
      <trkpt lat="43.70229" lon="6.02912">
        <ele>532.97</ele>
        <time>2013-11-11T11:07:50Z</time>
      </trkpt>
      <trkpt lat="43.70248" lon="6.02904">
        <ele>533.85</ele>
        <time>2013-11-11T11:07:57Z</time>
      </trkpt>
      <trkpt lat="43.70268" lon="6.02899">
        <ele>533.38</ele>
        <time>2013-11-11T11:08:03Z</time>
      </trkpt>
      <trkpt lat="43.70285" lon="6.02889">
        <ele>533.11</ele>
        <time>2013-11-11T11:08:08Z</time>
      </trkpt>
      <trkpt lat="43.70303" lon="6.0288">
        <ele>534.11</ele>
        <time>2013-11-11T11:08:13Z</time>
      </trkpt>
      <trkpt lat="43.70322" lon="6.02873">
        <ele>533.64</ele>
        <time>2013-11-11T11:08:18Z</time>
      </trkpt>
      <trkpt lat="43.70343" lon="6.02872">
        <ele>533.49</ele>
        <time>2013-11-11T11:08:22Z</time>
      </trkpt>
      <trkpt lat="43.70361" lon="6.0287">
        <ele>533.63</ele>
        <time>2013-11-11T11:08:26Z</time>
      </trkpt>
      <trkpt lat="43.70383" lon="6.0287">
        <ele>533.39</ele>
        <time>2013-11-11T11:08:31Z</time>
      </trkpt>
      <trkpt lat="43.70403" lon="6.0287">
        <ele>532.58</ele>
        <time>2013-11-11T11:08:36Z</time>
      </trkpt>
      <trkpt lat="43.70421" lon="6.02856">
        <ele>532.51</ele>
        <time>2013-11-11T11:08:41Z</time>
      </trkpt>
      <trkpt lat="43.70438" lon="6.02841">
        <ele>532.43</ele>
        <time>2013-11-11T11:08:46Z</time>
      </trkpt>
      <trkpt lat="43.70452" lon="6.02825">
        <ele>532.21</ele>
        <time>2013-11-11T11:08:51Z</time>
      </trkpt>
      <trkpt lat="43.70466" lon="6.02804">
        <ele>533.38</ele>
        <time>2013-11-11T11:08:57Z</time>
      </trkpt>
      <trkpt lat="43.70482" lon="6.02786">
        <ele>534.72</ele>
        <time>2013-11-11T11:09:03Z</time>
      </trkpt>
      <trkpt lat="43.705" lon="6.0278">
        <ele>534.76</ele>
        <time>2013-11-11T11:09:08Z</time>
      </trkpt>
      <trkpt lat="43.70517" lon="6.02768">
        <ele>535.76</ele>
        <time>2013-11-11T11:09:13Z</time>
      </trkpt>
      <trkpt lat="43.70535" lon="6.02755">
        <ele>537.73</ele>
        <time>2013-11-11T11:09:19Z</time>
      </trkpt>
      <trkpt lat="43.70554" lon="6.02756">
        <ele>537.92</ele>
        <time>2013-11-11T11:09:24Z</time>
      </trkpt>
      <trkpt lat="43.70574" lon="6.02754">
        <ele>538.09</ele>
        <time>2013-11-11T11:09:29Z</time>
      </trkpt>
      <trkpt lat="43.70593" lon="6.02755">
        <ele>541.71</ele>
        <time>2013-11-11T11:09:34Z</time>
      </trkpt>
      <trkpt lat="43.70613" lon="6.02761">
        <ele>543.15</ele>
        <time>2013-11-11T11:09:39Z</time>
      </trkpt>
      <trkpt lat="43.70635" lon="6.02758">
        <ele>542.01</ele>
        <time>2013-11-11T11:09:44Z</time>
      </trkpt>
      <trkpt lat="43.70655" lon="6.02758">
        <ele>540</ele>
        <time>2013-11-11T11:09:48Z</time>
      </trkpt>
      <trkpt lat="43.70672" lon="6.02744">
        <ele>538.98</ele>
        <time>2013-11-11T11:09:53Z</time>
      </trkpt>
      <trkpt lat="43.70688" lon="6.02723">
        <ele>537.74</ele>
        <time>2013-11-11T11:09:58Z</time>
      </trkpt>
      <trkpt lat="43.70705" lon="6.02706">
        <ele>539.36</ele>
        <time>2013-11-11T11:10:03Z</time>
      </trkpt>
      <trkpt lat="43.70727" lon="6.02702">
        <ele>539.1</ele>
        <time>2013-11-11T11:10:08Z</time>
      </trkpt>
      <trkpt lat="43.70741" lon="6.02685">
        <ele>539.29</ele>
        <time>2013-11-11T11:10:12Z</time>
      </trkpt>
      <trkpt lat="43.70755" lon="6.02667">
        <ele>539.09</ele>
        <time>2013-11-11T11:10:17Z</time>
      </trkpt>
      <trkpt lat="43.70776" lon="6.02668">
        <ele>539.5</ele>
        <time>2013-11-11T11:10:22Z</time>
      </trkpt>
      <trkpt lat="43.70797" lon="6.02664">
        <ele>538.73</ele>
        <time>2013-11-11T11:10:27Z</time>
      </trkpt>
      <trkpt lat="43.70815" lon="6.0266">
        <ele>540.08</ele>
        <time>2013-11-11T11:10:32Z</time>
      </trkpt>
      <trkpt lat="43.70835" lon="6.02654">
        <ele>540.41</ele>
        <time>2013-11-11T11:10:38Z</time>
      </trkpt>
      <trkpt lat="43.70853" lon="6.02645">
        <ele>540.58</ele>
        <time>2013-11-11T11:10:43Z</time>
      </trkpt>
      <trkpt lat="43.70871" lon="6.02635">
        <ele>540.42</ele>
        <time>2013-11-11T11:10:48Z</time>
      </trkpt>
      <trkpt lat="43.70889" lon="6.02625">
        <ele>540.18</ele>
        <time>2013-11-11T11:10:53Z</time>
      </trkpt>
      <trkpt lat="43.70908" lon="6.02614">
        <ele>539.43</ele>
        <time>2013-11-11T11:10:58Z</time>
      </trkpt>
      <trkpt lat="43.70927" lon="6.02604">
        <ele>540.02</ele>
        <time>2013-11-11T11:11:03Z</time>
      </trkpt>
      <trkpt lat="43.70946" lon="6.02592">
        <ele>540.35</ele>
        <time>2013-11-11T11:11:08Z</time>
      </trkpt>
      <trkpt lat="43.70966" lon="6.02579">
        <ele>541.09</ele>
        <time>2013-11-11T11:11:13Z</time>
      </trkpt>
      <trkpt lat="43.70983" lon="6.02567">
        <ele>542.04</ele>
        <time>2013-11-11T11:11:17Z</time>
      </trkpt>
      <trkpt lat="43.71003" lon="6.02554">
        <ele>541.94</ele>
        <time>2013-11-11T11:11:22Z</time>
      </trkpt>
      <trkpt lat="43.71022" lon="6.0254">
        <ele>541.99</ele>
        <time>2013-11-11T11:11:27Z</time>
      </trkpt>
      <trkpt lat="43.71042" lon="6.02527">
        <ele>543.11</ele>
        <time>2013-11-11T11:11:32Z</time>
      </trkpt>
      <trkpt lat="43.71058" lon="6.02517">
        <ele>544.18</ele>
        <time>2013-11-11T11:11:36Z</time>
      </trkpt>
      <trkpt lat="43.71075" lon="6.02505">
        <ele>545.44</ele>
        <time>2013-11-11T11:11:40Z</time>
      </trkpt>
      <trkpt lat="43.71091" lon="6.02493">
        <ele>545.41</ele>
        <time>2013-11-11T11:11:44Z</time>
      </trkpt>
      <trkpt lat="43.71109" lon="6.02476">
        <ele>545.04</ele>
        <time>2013-11-11T11:11:50Z</time>
      </trkpt>
      <trkpt lat="43.71123" lon="6.02453">
        <ele>545.22</ele>
        <time>2013-11-11T11:11:54Z</time>
      </trkpt>
      <trkpt lat="43.71136" lon="6.02431">
        <ele>546.11</ele>
        <time>2013-11-11T11:11:58Z</time>
      </trkpt>
      <trkpt lat="43.7115" lon="6.0241">
        <ele>545.98</ele>
        <time>2013-11-11T11:12:02Z</time>
      </trkpt>
      <trkpt lat="43.71164" lon="6.02392">
        <ele>547.13</ele>
        <time>2013-11-11T11:12:06Z</time>
      </trkpt>
      <trkpt lat="43.71181" lon="6.02378">
        <ele>546.81</ele>
        <time>2013-11-11T11:12:10Z</time>
      </trkpt>
      <trkpt lat="43.71197" lon="6.02363">
        <ele>546.2</ele>
        <time>2013-11-11T11:12:14Z</time>
      </trkpt>
      <trkpt lat="43.71213" lon="6.02347">
        <ele>545.06</ele>
        <time>2013-11-11T11:12:18Z</time>
      </trkpt>
      <trkpt lat="43.71229" lon="6.0233">
        <ele>544.67</ele>
        <time>2013-11-11T11:12:22Z</time>
      </trkpt>
      <trkpt lat="43.71242" lon="6.0231">
        <ele>543.14</ele>
        <time>2013-11-11T11:12:27Z</time>
      </trkpt>
      <trkpt lat="43.71235" lon="6.02283">
        <ele>541.21</ele>
        <time>2013-11-11T11:12:32Z</time>
      </trkpt>
      <trkpt lat="43.71228" lon="6.02259">
        <ele>540.91</ele>
        <time>2013-11-11T11:12:36Z</time>
      </trkpt>
      <trkpt lat="43.71222" lon="6.02235">
        <ele>540.94</ele>
        <time>2013-11-11T11:12:40Z</time>
      </trkpt>
      <trkpt lat="43.71214" lon="6.0221">
        <ele>541.1</ele>
        <time>2013-11-11T11:12:44Z</time>
      </trkpt>
      <trkpt lat="43.71207" lon="6.02184">
        <ele>540.28</ele>
        <time>2013-11-11T11:12:48Z</time>
      </trkpt>
      <trkpt lat="43.71198" lon="6.02161">
        <ele>541.18</ele>
        <time>2013-11-11T11:12:52Z</time>
      </trkpt>
      <trkpt lat="43.71189" lon="6.02136">
        <ele>540.91</ele>
        <time>2013-11-11T11:12:56Z</time>
      </trkpt>
      <trkpt lat="43.71181" lon="6.02112">
        <ele>541.16</ele>
        <time>2013-11-11T11:13:00Z</time>
      </trkpt>
      <trkpt lat="43.71171" lon="6.02086">
        <ele>541.01</ele>
        <time>2013-11-11T11:13:04Z</time>
      </trkpt>
      <trkpt lat="43.71162" lon="6.02058">
        <ele>540.7</ele>
        <time>2013-11-11T11:13:08Z</time>
      </trkpt>
      <trkpt lat="43.71152" lon="6.0203">
        <ele>540.17</ele>
        <time>2013-11-11T11:13:12Z</time>
      </trkpt>
      <trkpt lat="43.71142" lon="6.02008">
        <ele>540.22</ele>
        <time>2013-11-11T11:13:15Z</time>
      </trkpt>
      <trkpt lat="43.71125" lon="6.01986">
        <ele>540.05</ele>
        <time>2013-11-11T11:13:19Z</time>
      </trkpt>
      <trkpt lat="43.71113" lon="6.01956">
        <ele>540.54</ele>
        <time>2013-11-11T11:13:23Z</time>
      </trkpt>
      <trkpt lat="43.71104" lon="6.01934">
        <ele>542.44</ele>
        <time>2013-11-11T11:13:26Z</time>
      </trkpt>
      <trkpt lat="43.71095" lon="6.01912">
        <ele>543.2</ele>
        <time>2013-11-11T11:13:29Z</time>
      </trkpt>
      <trkpt lat="43.71085" lon="6.01883">
        <ele>543.25</ele>
        <time>2013-11-11T11:13:33Z</time>
      </trkpt>
      <trkpt lat="43.71073" lon="6.01854">
        <ele>541.68</ele>
        <time>2013-11-11T11:13:37Z</time>
      </trkpt>
      <trkpt lat="43.71063" lon="6.01829">
        <ele>539.87</ele>
        <time>2013-11-11T11:13:40Z</time>
      </trkpt>
      <trkpt lat="43.71056" lon="6.01806">
        <ele>537.97</ele>
        <time>2013-11-11T11:13:43Z</time>
      </trkpt>
      <trkpt lat="43.71047" lon="6.01783">
        <ele>536.77</ele>
        <time>2013-11-11T11:13:46Z</time>
      </trkpt>
      <trkpt lat="43.71037" lon="6.01759">
        <ele>535.06</ele>
        <time>2013-11-11T11:13:49Z</time>
      </trkpt>
      <trkpt lat="43.71037" lon="6.01733">
        <ele>533.17</ele>
        <time>2013-11-11T11:13:56Z</time>
      </trkpt>
      <trkpt lat="43.71053" lon="6.01716">
        <ele>533.8</ele>
        <time>2013-11-11T11:14:03Z</time>
      </trkpt>
      <trkpt lat="43.71068" lon="6.01697">
        <ele>536.03</ele>
        <time>2013-11-11T11:14:10Z</time>
      </trkpt>
      <trkpt lat="43.71081" lon="6.01679">
        <ele>540.77</ele>
        <time>2013-11-11T11:14:18Z</time>
      </trkpt>
      <trkpt lat="43.71094" lon="6.01661">
        <ele>540.95</ele>
        <time>2013-11-11T11:14:27Z</time>
      </trkpt>
      <trkpt lat="43.71099" lon="6.01637">
        <ele>541.56</ele>
        <time>2013-11-11T11:14:33Z</time>
      </trkpt>
      <trkpt lat="43.71101" lon="6.0161">
        <ele>541.87</ele>
        <time>2013-11-11T11:14:39Z</time>
      </trkpt>
      <trkpt lat="43.7111" lon="6.01585">
        <ele>542.76</ele>
        <time>2013-11-11T11:14:45Z</time>
      </trkpt>
      <trkpt lat="43.71114" lon="6.01558">
        <ele>542.95</ele>
        <time>2013-11-11T11:14:51Z</time>
      </trkpt>
      <trkpt lat="43.71119" lon="6.01531">
        <ele>541.48</ele>
        <time>2013-11-11T11:14:56Z</time>
      </trkpt>
      <trkpt lat="43.71123" lon="6.01504">
        <ele>541.68</ele>
        <time>2013-11-11T11:15:00Z</time>
      </trkpt>
      <trkpt lat="43.71118" lon="6.01472">
        <ele>543.08</ele>
        <time>2013-11-11T11:15:05Z</time>
      </trkpt>
      <trkpt lat="43.71111" lon="6.01443">
        <ele>540.89</ele>
        <time>2013-11-11T11:15:09Z</time>
      </trkpt>
      <trkpt lat="43.71103" lon="6.01413">
        <ele>539.86</ele>
        <time>2013-11-11T11:15:13Z</time>
      </trkpt>
      <trkpt lat="43.71097" lon="6.01389">
        <ele>539.87</ele>
        <time>2013-11-11T11:15:16Z</time>
      </trkpt>
      <trkpt lat="43.71089" lon="6.0136">
        <ele>538.22</ele>
        <time>2013-11-11T11:15:20Z</time>
      </trkpt>
      <trkpt lat="43.71081" lon="6.01334">
        <ele>537.15</ele>
        <time>2013-11-11T11:15:24Z</time>
      </trkpt>
      <trkpt lat="43.71072" lon="6.01307">
        <ele>537.29</ele>
        <time>2013-11-11T11:15:29Z</time>
      </trkpt>
      <trkpt lat="43.71059" lon="6.01291">
        <ele>536.45</ele>
        <time>2013-11-11T11:15:33Z</time>
      </trkpt>
      <trkpt lat="43.71044" lon="6.01275">
        <ele>536.29</ele>
        <time>2013-11-11T11:15:37Z</time>
      </trkpt>
      <trkpt lat="43.71029" lon="6.01257">
        <ele>535.5</ele>
        <time>2013-11-11T11:15:42Z</time>
      </trkpt>
      <trkpt lat="43.71027" lon="6.01228">
        <ele>536.64</ele>
        <time>2013-11-11T11:15:47Z</time>
      </trkpt>
      <trkpt lat="43.71023" lon="6.01203">
        <ele>538.27</ele>
        <time>2013-11-11T11:15:52Z</time>
      </trkpt>
      <trkpt lat="43.71018" lon="6.01176">
        <ele>537.15</ele>
        <time>2013-11-11T11:15:58Z</time>
      </trkpt>
      <trkpt lat="43.71023" lon="6.01151">
        <ele>535.82</ele>
        <time>2013-11-11T11:16:05Z</time>
      </trkpt>
      <trkpt lat="43.71031" lon="6.01123">
        <ele>535.19</ele>
        <time>2013-11-11T11:16:11Z</time>
      </trkpt>
      <trkpt lat="43.7104" lon="6.01099">
        <ele>534.25</ele>
        <time>2013-11-11T11:16:16Z</time>
      </trkpt>
      <trkpt lat="43.71051" lon="6.01079">
        <ele>533.59</ele>
        <time>2013-11-11T11:16:21Z</time>
      </trkpt>
      <trkpt lat="43.71064" lon="6.01057">
        <ele>532.8</ele>
        <time>2013-11-11T11:16:26Z</time>
      </trkpt>
      <trkpt lat="43.7107" lon="6.0103">
        <ele>533.45</ele>
        <time>2013-11-11T11:16:31Z</time>
      </trkpt>
      <trkpt lat="43.71079" lon="6.01006">
        <ele>532.92</ele>
        <time>2013-11-11T11:16:36Z</time>
      </trkpt>
      <trkpt lat="43.71091" lon="6.00982">
        <ele>532.07</ele>
        <time>2013-11-11T11:16:42Z</time>
      </trkpt>
      <trkpt lat="43.711" lon="6.0096">
        <ele>532.54</ele>
        <time>2013-11-11T11:16:48Z</time>
      </trkpt>
      <trkpt lat="43.7111" lon="6.00938">
        <ele>532.9</ele>
        <time>2013-11-11T11:16:54Z</time>
      </trkpt>
      <trkpt lat="43.71123" lon="6.00915">
        <ele>532.6</ele>
        <time>2013-11-11T11:17:00Z</time>
      </trkpt>
      <trkpt lat="43.71135" lon="6.00893">
        <ele>533.29</ele>
        <time>2013-11-11T11:17:06Z</time>
      </trkpt>
      <trkpt lat="43.71146" lon="6.00868">
        <ele>532.91</ele>
        <time>2013-11-11T11:17:12Z</time>
      </trkpt>
      <trkpt lat="43.71159" lon="6.0085">
        <ele>533.46</ele>
        <time>2013-11-11T11:17:17Z</time>
      </trkpt>
      <trkpt lat="43.71173" lon="6.00828">
        <ele>533.22</ele>
        <time>2013-11-11T11:17:22Z</time>
      </trkpt>
      <trkpt lat="43.71176" lon="6.00795">
        <ele>533.46</ele>
        <time>2013-11-11T11:17:27Z</time>
      </trkpt>
      <trkpt lat="43.71179" lon="6.00767">
        <ele>533.37</ele>
        <time>2013-11-11T11:17:31Z</time>
      </trkpt>
      <trkpt lat="43.71176" lon="6.0074">
        <ele>532.84</ele>
        <time>2013-11-11T11:17:35Z</time>
      </trkpt>
      <trkpt lat="43.71173" lon="6.00713">
        <ele>532.5</ele>
        <time>2013-11-11T11:17:39Z</time>
      </trkpt>
      <trkpt lat="43.71172" lon="6.00685">
        <ele>532.8</ele>
        <time>2013-11-11T11:17:44Z</time>
      </trkpt>
      <trkpt lat="43.7117" lon="6.0066">
        <ele>532.46</ele>
        <time>2013-11-11T11:17:49Z</time>
      </trkpt>
      <trkpt lat="43.71175" lon="6.00635">
        <ele>532.55</ele>
        <time>2013-11-11T11:17:53Z</time>
      </trkpt>
      <trkpt lat="43.71175" lon="6.00609">
        <ele>532.72</ele>
        <time>2013-11-11T11:17:57Z</time>
      </trkpt>
      <trkpt lat="43.71174" lon="6.00582">
        <ele>531.6</ele>
        <time>2013-11-11T11:18:01Z</time>
      </trkpt>
      <trkpt lat="43.71173" lon="6.00554">
        <ele>530.45</ele>
        <time>2013-11-11T11:18:05Z</time>
      </trkpt>
      <trkpt lat="43.71162" lon="6.00529">
        <ele>529.75</ele>
        <time>2013-11-11T11:18:09Z</time>
      </trkpt>
      <trkpt lat="43.71151" lon="6.00505">
        <ele>528.87</ele>
        <time>2013-11-11T11:18:13Z</time>
      </trkpt>
      <trkpt lat="43.7114" lon="6.00486">
        <ele>527.45</ele>
        <time>2013-11-11T11:18:18Z</time>
      </trkpt>
      <trkpt lat="43.71138" lon="6.00458">
        <ele>525.12</ele>
        <time>2013-11-11T11:18:38Z</time>
      </trkpt>
      <trkpt lat="43.71149" lon="6.00436">
        <ele>524.54</ele>
        <time>2013-11-11T11:18:43Z</time>
      </trkpt>
      <trkpt lat="43.71169" lon="6.00429">
        <ele>523.83</ele>
        <time>2013-11-11T11:18:48Z</time>
      </trkpt>
      <trkpt lat="43.71189" lon="6.00432">
        <ele>523.31</ele>
        <time>2013-11-11T11:18:53Z</time>
      </trkpt>
      <trkpt lat="43.71204" lon="6.00418">
        <ele>523.08</ele>
        <time>2013-11-11T11:18:58Z</time>
      </trkpt>
      <trkpt lat="43.7121" lon="6.00391">
        <ele>521.59</ele>
        <time>2013-11-11T11:19:02Z</time>
      </trkpt>
      <trkpt lat="43.71216" lon="6.00366">
        <ele>520.91</ele>
        <time>2013-11-11T11:19:06Z</time>
      </trkpt>
      <trkpt lat="43.71219" lon="6.0034">
        <ele>521</ele>
        <time>2013-11-11T11:19:10Z</time>
      </trkpt>
      <trkpt lat="43.71232" lon="6.00319">
        <ele>522.45</ele>
        <time>2013-11-11T11:19:16Z</time>
      </trkpt>
      <trkpt lat="43.7124" lon="6.00296">
        <ele>523.91</ele>
        <time>2013-11-11T11:19:22Z</time>
      </trkpt>
      <trkpt lat="43.71252" lon="6.00274">
        <ele>525.04</ele>
        <time>2013-11-11T11:19:28Z</time>
      </trkpt>
      <trkpt lat="43.71267" lon="6.00259">
        <ele>525.4</ele>
        <time>2013-11-11T11:19:35Z</time>
      </trkpt>
      <trkpt lat="43.71285" lon="6.00263">
        <ele>526.16</ele>
        <time>2013-11-11T11:19:44Z</time>
      </trkpt>
      <trkpt lat="43.71303" lon="6.00273">
        <ele>528.19</ele>
        <time>2013-11-11T11:19:54Z</time>
      </trkpt>
      <trkpt lat="43.71322" lon="6.00267">
        <ele>528</ele>
        <time>2013-11-11T11:20:01Z</time>
      </trkpt>
      <trkpt lat="43.71342" lon="6.00264">
        <ele>527.97</ele>
        <time>2013-11-11T11:20:08Z</time>
      </trkpt>
      <trkpt lat="43.71362" lon="6.00261">
        <ele>527.32</ele>
        <time>2013-11-11T11:20:14Z</time>
      </trkpt>
      <trkpt lat="43.71382" lon="6.00253">
        <ele>527.4</ele>
        <time>2013-11-11T11:20:19Z</time>
      </trkpt>
      <trkpt lat="43.71401" lon="6.00242">
        <ele>527.21</ele>
        <time>2013-11-11T11:20:24Z</time>
      </trkpt>
      <trkpt lat="43.7142" lon="6.00238">
        <ele>526.31</ele>
        <time>2013-11-11T11:20:29Z</time>
      </trkpt>
      <trkpt lat="43.71439" lon="6.00233">
        <ele>525.21</ele>
        <time>2013-11-11T11:20:34Z</time>
      </trkpt>
      <trkpt lat="43.71456" lon="6.00223">
        <ele>524.01</ele>
        <time>2013-11-11T11:20:39Z</time>
      </trkpt>
      <trkpt lat="43.71457" lon="6.00194">
        <ele>524.29</ele>
        <time>2013-11-11T11:20:44Z</time>
      </trkpt>
      <trkpt lat="43.71456" lon="6.00168">
        <ele>524.15</ele>
        <time>2013-11-11T11:20:48Z</time>
      </trkpt>
      <trkpt lat="43.71465" lon="6.00144">
        <ele>524.02</ele>
        <time>2013-11-11T11:20:52Z</time>
      </trkpt>
      <trkpt lat="43.71472" lon="6.00119">
        <ele>523.68</ele>
        <time>2013-11-11T11:20:56Z</time>
      </trkpt>
      <trkpt lat="43.71484" lon="6.00095">
        <ele>523.79</ele>
        <time>2013-11-11T11:21:00Z</time>
      </trkpt>
      <trkpt lat="43.71494" lon="6.0007">
        <ele>523.97</ele>
        <time>2013-11-11T11:21:04Z</time>
      </trkpt>
      <trkpt lat="43.71506" lon="6.00046">
        <ele>523.01</ele>
        <time>2013-11-11T11:21:08Z</time>
      </trkpt>
      <trkpt lat="43.71524" lon="6.00034">
        <ele>522.35</ele>
        <time>2013-11-11T11:21:12Z</time>
      </trkpt>
      <trkpt lat="43.71542" lon="6.00022">
        <ele>522</ele>
        <time>2013-11-11T11:21:16Z</time>
      </trkpt>
      <trkpt lat="43.71561" lon="6.00014">
        <ele>521.4</ele>
        <time>2013-11-11T11:21:20Z</time>
      </trkpt>
      <trkpt lat="43.71568" lon="5.99989">
        <ele>521.56</ele>
        <time>2013-11-11T11:21:24Z</time>
      </trkpt>
      <trkpt lat="43.7158" lon="5.99967">
        <ele>521.89</ele>
        <time>2013-11-11T11:21:28Z</time>
      </trkpt>
      <trkpt lat="43.71591" lon="5.99942">
        <ele>521.69</ele>
        <time>2013-11-11T11:21:33Z</time>
      </trkpt>
      <trkpt lat="43.71608" lon="5.99922">
        <ele>521.75</ele>
        <time>2013-11-11T11:21:38Z</time>
      </trkpt>
      <trkpt lat="43.71617" lon="5.99899">
        <ele>521.58</ele>
        <time>2013-11-11T11:21:42Z</time>
      </trkpt>
      <trkpt lat="43.71624" lon="5.99875">
        <ele>521.2</ele>
        <time>2013-11-11T11:21:46Z</time>
      </trkpt>
      <trkpt lat="43.71635" lon="5.99853">
        <ele>520.27</ele>
        <time>2013-11-11T11:21:50Z</time>
      </trkpt>
      <trkpt lat="43.7164" lon="5.99827">
        <ele>520.62</ele>
        <time>2013-11-11T11:21:54Z</time>
      </trkpt>
      <trkpt lat="43.71636" lon="5.99803">
        <ele>519.53</ele>
        <time>2013-11-11T11:21:58Z</time>
      </trkpt>
      <trkpt lat="43.71637" lon="5.99775">
        <ele>518.47</ele>
        <time>2013-11-11T11:22:02Z</time>
      </trkpt>
      <trkpt lat="43.71639" lon="5.99746">
        <ele>519.81</ele>
        <time>2013-11-11T11:22:07Z</time>
      </trkpt>
      <trkpt lat="43.71633" lon="5.99721">
        <ele>518.55</ele>
        <time>2013-11-11T11:22:11Z</time>
      </trkpt>
      <trkpt lat="43.71624" lon="5.99697">
        <ele>519.17</ele>
        <time>2013-11-11T11:22:15Z</time>
      </trkpt>
      <trkpt lat="43.71605" lon="5.99686">
        <ele>520.97</ele>
        <time>2013-11-11T11:22:19Z</time>
      </trkpt>
      <trkpt lat="43.71587" lon="5.99676">
        <ele>520.98</ele>
        <time>2013-11-11T11:22:23Z</time>
      </trkpt>
      <trkpt lat="43.71573" lon="5.99657">
        <ele>520.33</ele>
        <time>2013-11-11T11:22:27Z</time>
      </trkpt>
      <trkpt lat="43.71569" lon="5.9963">
        <ele>519.84</ele>
        <time>2013-11-11T11:22:31Z</time>
      </trkpt>
      <trkpt lat="43.71563" lon="5.996">
        <ele>519.34</ele>
        <time>2013-11-11T11:22:35Z</time>
      </trkpt>
      <trkpt lat="43.71557" lon="5.99571">
        <ele>519.77</ele>
        <time>2013-11-11T11:22:39Z</time>
      </trkpt>
      <trkpt lat="43.7155" lon="5.99542">
        <ele>519.33</ele>
        <time>2013-11-11T11:22:43Z</time>
      </trkpt>
      <trkpt lat="43.71543" lon="5.99515">
        <ele>518.78</ele>
        <time>2013-11-11T11:22:47Z</time>
      </trkpt>
      <trkpt lat="43.71535" lon="5.99489">
        <ele>518.73</ele>
        <time>2013-11-11T11:22:51Z</time>
      </trkpt>
      <trkpt lat="43.7153" lon="5.99462">
        <ele>518.15</ele>
        <time>2013-11-11T11:22:55Z</time>
      </trkpt>
      <trkpt lat="43.71523" lon="5.99438">
        <ele>517.71</ele>
        <time>2013-11-11T11:22:59Z</time>
      </trkpt>
      <trkpt lat="43.7152" lon="5.99412">
        <ele>518.83</ele>
        <time>2013-11-11T11:23:03Z</time>
      </trkpt>
      <trkpt lat="43.71526" lon="5.99387">
        <ele>517.99</ele>
        <time>2013-11-11T11:23:07Z</time>
      </trkpt>
      <trkpt lat="43.71533" lon="5.99362">
        <ele>517.89</ele>
        <time>2013-11-11T11:23:11Z</time>
      </trkpt>
      <trkpt lat="43.71547" lon="5.99348">
        <ele>516.51</ele>
        <time>2013-11-11T11:23:15Z</time>
      </trkpt>
      <trkpt lat="43.71564" lon="5.99337">
        <ele>516.33</ele>
        <time>2013-11-11T11:23:19Z</time>
      </trkpt>
      <trkpt lat="43.71579" lon="5.9932">
        <ele>515.83</ele>
        <time>2013-11-11T11:23:23Z</time>
      </trkpt>
      <trkpt lat="43.71595" lon="5.993">
        <ele>515.73</ele>
        <time>2013-11-11T11:23:28Z</time>
      </trkpt>
      <trkpt lat="43.7161" lon="5.99281">
        <ele>515.95</ele>
        <time>2013-11-11T11:23:32Z</time>
      </trkpt>
      <trkpt lat="43.71628" lon="5.99272">
        <ele>515.25</ele>
        <time>2013-11-11T11:23:36Z</time>
      </trkpt>
      <trkpt lat="43.71648" lon="5.99264">
        <ele>514.6</ele>
        <time>2013-11-11T11:23:40Z</time>
      </trkpt>
      <trkpt lat="43.71666" lon="5.99261">
        <ele>514.26</ele>
        <time>2013-11-11T11:23:44Z</time>
      </trkpt>
      <trkpt lat="43.71686" lon="5.99259">
        <ele>514.14</ele>
        <time>2013-11-11T11:23:48Z</time>
      </trkpt>
      <trkpt lat="43.71707" lon="5.99261">
        <ele>513.5</ele>
        <time>2013-11-11T11:23:53Z</time>
      </trkpt>
      <trkpt lat="43.71727" lon="5.99262">
        <ele>512.7</ele>
        <time>2013-11-11T11:23:57Z</time>
      </trkpt>
      <trkpt lat="43.71748" lon="5.99251">
        <ele>512.86</ele>
        <time>2013-11-11T11:24:02Z</time>
      </trkpt>
      <trkpt lat="43.71768" lon="5.99237">
        <ele>512.83</ele>
        <time>2013-11-11T11:24:07Z</time>
      </trkpt>
      <trkpt lat="43.71785" lon="5.99226">
        <ele>512.39</ele>
        <time>2013-11-11T11:24:12Z</time>
      </trkpt>
      <trkpt lat="43.71801" lon="5.99208">
        <ele>513.05</ele>
        <time>2013-11-11T11:24:20Z</time>
      </trkpt>
      <trkpt lat="43.7181" lon="5.99183">
        <ele>513.81</ele>
        <time>2013-11-11T11:24:24Z</time>
      </trkpt>
      <trkpt lat="43.71821" lon="5.99162">
        <ele>514.69</ele>
        <time>2013-11-11T11:24:28Z</time>
      </trkpt>
      <trkpt lat="43.71833" lon="5.99137">
        <ele>515</ele>
        <time>2013-11-11T11:24:33Z</time>
      </trkpt>
      <trkpt lat="43.71839" lon="5.99113">
        <ele>513.96</ele>
        <time>2013-11-11T11:24:37Z</time>
      </trkpt>
      <trkpt lat="43.71854" lon="5.99092">
        <ele>513.1</ele>
        <time>2013-11-11T11:24:42Z</time>
      </trkpt>
      <trkpt lat="43.71861" lon="5.99066">
        <ele>512.8</ele>
        <time>2013-11-11T11:24:47Z</time>
      </trkpt>
      <trkpt lat="43.71875" lon="5.99042">
        <ele>512.18</ele>
        <time>2013-11-11T11:24:52Z</time>
      </trkpt>
      <trkpt lat="43.71892" lon="5.99032">
        <ele>512.3</ele>
        <time>2013-11-11T11:24:57Z</time>
      </trkpt>
      <trkpt lat="43.71902" lon="5.99055">
        <ele>514.08</ele>
        <time>2013-11-11T11:25:07Z</time>
      </trkpt>
      <trkpt lat="43.71917" lon="5.99073">
        <ele>516.03</ele>
        <time>2013-11-11T11:25:16Z</time>
      </trkpt>
      <trkpt lat="43.71923" lon="5.99097">
        <ele>517.9</ele>
        <time>2013-11-11T11:25:24Z</time>
      </trkpt>
      <trkpt lat="43.71937" lon="5.99117">
        <ele>520.29</ele>
        <time>2013-11-11T11:25:34Z</time>
      </trkpt>
      <trkpt lat="43.71948" lon="5.99138">
        <ele>522.75</ele>
        <time>2013-11-11T11:25:47Z</time>
      </trkpt>
      <trkpt lat="43.7196" lon="5.99159">
        <ele>524.55</ele>
        <time>2013-11-11T11:25:56Z</time>
      </trkpt>
      <trkpt lat="43.71976" lon="5.99172">
        <ele>527.77</ele>
        <time>2013-11-11T11:26:10Z</time>
      </trkpt>
      <trkpt lat="43.71983" lon="5.99197">
        <ele>529.47</ele>
        <time>2013-11-11T11:26:18Z</time>
      </trkpt>
      <trkpt lat="43.71988" lon="5.99221">
        <ele>531.4</ele>
        <time>2013-11-11T11:26:24Z</time>
      </trkpt>
      <trkpt lat="43.72001" lon="5.99242">
        <ele>530.37</ele>
        <time>2013-11-11T11:26:32Z</time>
      </trkpt>
      <trkpt lat="43.7202" lon="5.99234">
        <ele>529.09</ele>
        <time>2013-11-11T11:26:39Z</time>
      </trkpt>
      <trkpt lat="43.72031" lon="5.99257">
        <ele>530.44</ele>
        <time>2013-11-11T11:26:47Z</time>
      </trkpt>
      <trkpt lat="43.72036" lon="5.99282">
        <ele>531.05</ele>
        <time>2013-11-11T11:26:54Z</time>
      </trkpt>
      <trkpt lat="43.72046" lon="5.99304">
        <ele>533.19</ele>
        <time>2013-11-11T11:27:01Z</time>
      </trkpt>
      <trkpt lat="43.72059" lon="5.99326">
        <ele>534.83</ele>
        <time>2013-11-11T11:27:09Z</time>
      </trkpt>
      <trkpt lat="43.72067" lon="5.99349">
        <ele>535.14</ele>
        <time>2013-11-11T11:27:16Z</time>
      </trkpt>
      <trkpt lat="43.72073" lon="5.99373">
        <ele>537.04</ele>
        <time>2013-11-11T11:27:24Z</time>
      </trkpt>
      <trkpt lat="43.72077" lon="5.99401">
        <ele>536.07</ele>
        <time>2013-11-11T11:27:32Z</time>
      </trkpt>
      <trkpt lat="43.72083" lon="5.99426">
        <ele>537.58</ele>
        <time>2013-11-11T11:27:40Z</time>
      </trkpt>
      <trkpt lat="43.72094" lon="5.99449">
        <ele>540.15</ele>
        <time>2013-11-11T11:27:50Z</time>
      </trkpt>
      <trkpt lat="43.72096" lon="5.99475">
        <ele>537.91</ele>
        <time>2013-11-11T11:27:56Z</time>
      </trkpt>
      <trkpt lat="43.72097" lon="5.99502">
        <ele>538.02</ele>
        <time>2013-11-11T11:28:03Z</time>
      </trkpt>
      <trkpt lat="43.72111" lon="5.99517">
        <ele>536.65</ele>
        <time>2013-11-11T11:28:10Z</time>
      </trkpt>
      <trkpt lat="43.7213" lon="5.99531">
        <ele>535.21</ele>
        <time>2013-11-11T11:28:15Z</time>
      </trkpt>
      <trkpt lat="43.72148" lon="5.9955">
        <ele>534.36</ele>
        <time>2013-11-11T11:28:20Z</time>
      </trkpt>
      <trkpt lat="43.72165" lon="5.99537">
        <ele>533.22</ele>
        <time>2013-11-11T11:28:26Z</time>
      </trkpt>
      <trkpt lat="43.72174" lon="5.99516">
        <ele>533.07</ele>
        <time>2013-11-11T11:28:30Z</time>
      </trkpt>
      <trkpt lat="43.72186" lon="5.99494">
        <ele>533.09</ele>
        <time>2013-11-11T11:28:34Z</time>
      </trkpt>
      <trkpt lat="43.72193" lon="5.9947">
        <ele>533.37</ele>
        <time>2013-11-11T11:28:38Z</time>
      </trkpt>
      <trkpt lat="43.72197" lon="5.99439">
        <ele>532.43</ele>
        <time>2013-11-11T11:28:42Z</time>
      </trkpt>
      <trkpt lat="43.72205" lon="5.99411">
        <ele>532.45</ele>
        <time>2013-11-11T11:28:46Z</time>
      </trkpt>
      <trkpt lat="43.72212" lon="5.99382">
        <ele>533.28</ele>
        <time>2013-11-11T11:28:50Z</time>
      </trkpt>
      <trkpt lat="43.72222" lon="5.99354">
        <ele>533.26</ele>
        <time>2013-11-11T11:28:54Z</time>
      </trkpt>
      <trkpt lat="43.72233" lon="5.99327">
        <ele>532.8</ele>
        <time>2013-11-11T11:28:58Z</time>
      </trkpt>
      <trkpt lat="43.72243" lon="5.99302">
        <ele>532.21</ele>
        <time>2013-11-11T11:29:02Z</time>
      </trkpt>
      <trkpt lat="43.7225" lon="5.99277">
        <ele>532.45</ele>
        <time>2013-11-11T11:29:06Z</time>
      </trkpt>
      <trkpt lat="43.72252" lon="5.9925">
        <ele>532.45</ele>
        <time>2013-11-11T11:29:11Z</time>
      </trkpt>
      <trkpt lat="43.72254" lon="5.99225">
        <ele>534.88</ele>
        <time>2013-11-11T11:29:16Z</time>
      </trkpt>
      <trkpt lat="43.72259" lon="5.99199">
        <ele>535.9</ele>
        <time>2013-11-11T11:29:20Z</time>
      </trkpt>
      <trkpt lat="43.72265" lon="5.9917">
        <ele>536.59</ele>
        <time>2013-11-11T11:29:24Z</time>
      </trkpt>
      <trkpt lat="43.72271" lon="5.99144">
        <ele>536.15</ele>
        <time>2013-11-11T11:29:28Z</time>
      </trkpt>
      <trkpt lat="43.72277" lon="5.99115">
        <ele>536.23</ele>
        <time>2013-11-11T11:29:32Z</time>
      </trkpt>
      <trkpt lat="43.72283" lon="5.99089">
        <ele>535.92</ele>
        <time>2013-11-11T11:29:36Z</time>
      </trkpt>
      <trkpt lat="43.72286" lon="5.99057">
        <ele>536.71</ele>
        <time>2013-11-11T11:29:41Z</time>
      </trkpt>
      <trkpt lat="43.72282" lon="5.99031">
        <ele>535.03</ele>
        <time>2013-11-11T11:29:44Z</time>
      </trkpt>
      <trkpt lat="43.72275" lon="5.99003">
        <ele>533.57</ele>
        <time>2013-11-11T11:29:48Z</time>
      </trkpt>
      <trkpt lat="43.72273" lon="5.9897">
        <ele>531.53</ele>
        <time>2013-11-11T11:29:52Z</time>
      </trkpt>
      <trkpt lat="43.72272" lon="5.98937">
        <ele>530.33</ele>
        <time>2013-11-11T11:29:56Z</time>
      </trkpt>
      <trkpt lat="43.72271" lon="5.9891">
        <ele>528.63</ele>
        <time>2013-11-11T11:29:59Z</time>
      </trkpt>
      <trkpt lat="43.72267" lon="5.98883">
        <ele>527.15</ele>
        <time>2013-11-11T11:30:02Z</time>
      </trkpt>
      <trkpt lat="43.72265" lon="5.98856">
        <ele>525.82</ele>
        <time>2013-11-11T11:30:05Z</time>
      </trkpt>
      <trkpt lat="43.72265" lon="5.9883">
        <ele>525.63</ele>
        <time>2013-11-11T11:30:08Z</time>
      </trkpt>
      <trkpt lat="43.72266" lon="5.98796">
        <ele>525.3</ele>
        <time>2013-11-11T11:30:12Z</time>
      </trkpt>
      <trkpt lat="43.72267" lon="5.98771">
        <ele>525.7</ele>
        <time>2013-11-11T11:30:15Z</time>
      </trkpt>
      <trkpt lat="43.72273" lon="5.98747">
        <ele>526.16</ele>
        <time>2013-11-11T11:30:18Z</time>
      </trkpt>
      <trkpt lat="43.72286" lon="5.98726">
        <ele>524.91</ele>
        <time>2013-11-11T11:30:22Z</time>
      </trkpt>
      <trkpt lat="43.72301" lon="5.98702">
        <ele>525.21</ele>
        <time>2013-11-11T11:30:26Z</time>
      </trkpt>
      <trkpt lat="43.72311" lon="5.98681">
        <ele>524.03</ele>
        <time>2013-11-11T11:30:29Z</time>
      </trkpt>
      <trkpt lat="43.72328" lon="5.98661">
        <ele>521.46</ele>
        <time>2013-11-11T11:30:33Z</time>
      </trkpt>
      <trkpt lat="43.7234" lon="5.98635">
        <ele>520.37</ele>
        <time>2013-11-11T11:30:37Z</time>
      </trkpt>
      <trkpt lat="43.72349" lon="5.98607">
        <ele>520.69</ele>
        <time>2013-11-11T11:30:41Z</time>
      </trkpt>
      <trkpt lat="43.72356" lon="5.9858">
        <ele>521.09</ele>
        <time>2013-11-11T11:30:45Z</time>
      </trkpt>
      <trkpt lat="43.72357" lon="5.98552">
        <ele>521.73</ele>
        <time>2013-11-11T11:30:49Z</time>
      </trkpt>
      <trkpt lat="43.72358" lon="5.98524">
        <ele>521.5</ele>
        <time>2013-11-11T11:30:53Z</time>
      </trkpt>
      <trkpt lat="43.72365" lon="5.985">
        <ele>522.31</ele>
        <time>2013-11-11T11:30:57Z</time>
      </trkpt>
      <trkpt lat="43.72375" lon="5.98475">
        <ele>523.27</ele>
        <time>2013-11-11T11:31:03Z</time>
      </trkpt>
      <trkpt lat="43.72384" lon="5.9845">
        <ele>523.73</ele>
        <time>2013-11-11T11:31:08Z</time>
      </trkpt>
      <trkpt lat="43.72384" lon="5.9842">
        <ele>522.91</ele>
        <time>2013-11-11T11:31:13Z</time>
      </trkpt>
      <trkpt lat="43.72374" lon="5.98395">
        <ele>523.03</ele>
        <time>2013-11-11T11:31:17Z</time>
      </trkpt>
      <trkpt lat="43.72367" lon="5.98371">
        <ele>523.28</ele>
        <time>2013-11-11T11:31:21Z</time>
      </trkpt>
      <trkpt lat="43.72358" lon="5.98349">
        <ele>522.05</ele>
        <time>2013-11-11T11:31:25Z</time>
      </trkpt>
      <trkpt lat="43.72347" lon="5.98328">
        <ele>521.5</ele>
        <time>2013-11-11T11:31:29Z</time>
      </trkpt>
      <trkpt lat="43.72331" lon="5.98311">
        <ele>520.61</ele>
        <time>2013-11-11T11:31:33Z</time>
      </trkpt>
      <trkpt lat="43.7231" lon="5.98299">
        <ele>519.95</ele>
        <time>2013-11-11T11:31:37Z</time>
      </trkpt>
      <trkpt lat="43.72305" lon="5.98275">
        <ele>520.98</ele>
        <time>2013-11-11T11:31:41Z</time>
      </trkpt>
      <trkpt lat="43.72303" lon="5.98247">
        <ele>522.43</ele>
        <time>2013-11-11T11:31:45Z</time>
      </trkpt>
      <trkpt lat="43.72302" lon="5.98217">
        <ele>523.34</ele>
        <time>2013-11-11T11:31:49Z</time>
      </trkpt>
      <trkpt lat="43.72308" lon="5.98193">
        <ele>525.92</ele>
        <time>2013-11-11T11:31:53Z</time>
      </trkpt>
      <trkpt lat="43.72314" lon="5.98165">
        <ele>526.9</ele>
        <time>2013-11-11T11:31:57Z</time>
      </trkpt>
      <trkpt lat="43.72324" lon="5.98138">
        <ele>527.61</ele>
        <time>2013-11-11T11:32:01Z</time>
      </trkpt>
      <trkpt lat="43.72329" lon="5.98109">
        <ele>526.18</ele>
        <time>2013-11-11T11:32:05Z</time>
      </trkpt>
      <trkpt lat="43.72336" lon="5.98083">
        <ele>525.3</ele>
        <time>2013-11-11T11:32:09Z</time>
      </trkpt>
      <trkpt lat="43.72358" lon="5.98078">
        <ele>525.36</ele>
        <time>2013-11-11T11:32:14Z</time>
      </trkpt>
      <trkpt lat="43.7238" lon="5.98076">
        <ele>523.85</ele>
        <time>2013-11-11T11:32:19Z</time>
      </trkpt>
      <trkpt lat="43.724" lon="5.98068">
        <ele>523.56</ele>
        <time>2013-11-11T11:32:23Z</time>
      </trkpt>
      <trkpt lat="43.72419" lon="5.98056">
        <ele>522.02</ele>
        <time>2013-11-11T11:32:27Z</time>
      </trkpt>
      <trkpt lat="43.72439" lon="5.9805">
        <ele>521.81</ele>
        <time>2013-11-11T11:32:31Z</time>
      </trkpt>
      <trkpt lat="43.72457" lon="5.98042">
        <ele>522.5</ele>
        <time>2013-11-11T11:32:35Z</time>
      </trkpt>
      <trkpt lat="43.72478" lon="5.98033">
        <ele>523.42</ele>
        <time>2013-11-11T11:32:40Z</time>
      </trkpt>
      <trkpt lat="43.72497" lon="5.98025">
        <ele>524.07</ele>
        <time>2013-11-11T11:32:45Z</time>
      </trkpt>
      <trkpt lat="43.72516" lon="5.98017">
        <ele>523.79</ele>
        <time>2013-11-11T11:32:50Z</time>
      </trkpt>
      <trkpt lat="43.72535" lon="5.98018">
        <ele>523.36</ele>
        <time>2013-11-11T11:32:54Z</time>
      </trkpt>
      <trkpt lat="43.72553" lon="5.98021">
        <ele>522.11</ele>
        <time>2013-11-11T11:32:58Z</time>
      </trkpt>
      <trkpt lat="43.72572" lon="5.98025">
        <ele>520.3</ele>
        <time>2013-11-11T11:33:02Z</time>
      </trkpt>
      <trkpt lat="43.72594" lon="5.98027">
        <ele>518.15</ele>
        <time>2013-11-11T11:33:06Z</time>
      </trkpt>
      <trkpt lat="43.72613" lon="5.98021">
        <ele>516.52</ele>
        <time>2013-11-11T11:33:09Z</time>
      </trkpt>
      <trkpt lat="43.72632" lon="5.9802">
        <ele>515.11</ele>
        <time>2013-11-11T11:33:12Z</time>
      </trkpt>
      <trkpt lat="43.7265" lon="5.98025">
        <ele>511.81</ele>
        <time>2013-11-11T11:33:18Z</time>
      </trkpt>
      <trkpt lat="43.72664" lon="5.98042">
        <ele>508.36</ele>
        <time>2013-11-11T11:33:23Z</time>
      </trkpt>
      <trkpt lat="43.72684" lon="5.98036">
        <ele>505.66</ele>
        <time>2013-11-11T11:33:27Z</time>
      </trkpt>
      <trkpt lat="43.72702" lon="5.98028">
        <ele>504.51</ele>
        <time>2013-11-11T11:33:30Z</time>
      </trkpt>
      <trkpt lat="43.72718" lon="5.98017">
        <ele>502.84</ele>
        <time>2013-11-11T11:33:33Z</time>
      </trkpt>
      <trkpt lat="43.72734" lon="5.97993">
        <ele>500.55</ele>
        <time>2013-11-11T11:33:37Z</time>
      </trkpt>
      <trkpt lat="43.72751" lon="5.97978">
        <ele>498.49</ele>
        <time>2013-11-11T11:33:42Z</time>
      </trkpt>
      <trkpt lat="43.72769" lon="5.97971">
        <ele>498.79</ele>
        <time>2013-11-11T11:33:48Z</time>
      </trkpt>
      <trkpt lat="43.72788" lon="5.97966">
        <ele>501.1</ele>
        <time>2013-11-11T11:33:55Z</time>
      </trkpt>
      <trkpt lat="43.72805" lon="5.97976">
        <ele>502.07</ele>
        <time>2013-11-11T11:34:01Z</time>
      </trkpt>
      <trkpt lat="43.72823" lon="5.97985">
        <ele>503.71</ele>
        <time>2013-11-11T11:34:07Z</time>
      </trkpt>
      <trkpt lat="43.72841" lon="5.97996">
        <ele>505.95</ele>
        <time>2013-11-11T11:34:13Z</time>
      </trkpt>
      <trkpt lat="43.72855" lon="5.98012">
        <ele>503.77</ele>
        <time>2013-11-11T11:34:18Z</time>
      </trkpt>
      <trkpt lat="43.72872" lon="5.98026">
        <ele>501.58</ele>
        <time>2013-11-11T11:34:23Z</time>
      </trkpt>
      <trkpt lat="43.72891" lon="5.98041">
        <ele>501.46</ele>
        <time>2013-11-11T11:34:28Z</time>
      </trkpt>
      <trkpt lat="43.7291" lon="5.98032">
        <ele>501.44</ele>
        <time>2013-11-11T11:34:32Z</time>
      </trkpt>
      <trkpt lat="43.72929" lon="5.98036">
        <ele>502.42</ele>
        <time>2013-11-11T11:34:38Z</time>
      </trkpt>
      <trkpt lat="43.72948" lon="5.98046">
        <ele>503</ele>
        <time>2013-11-11T11:34:44Z</time>
      </trkpt>
      <trkpt lat="43.72965" lon="5.98059">
        <ele>505.26</ele>
        <time>2013-11-11T11:34:50Z</time>
      </trkpt>
      <trkpt lat="43.72978" lon="5.98079">
        <ele>507.41</ele>
        <time>2013-11-11T11:34:56Z</time>
      </trkpt>
      <trkpt lat="43.72993" lon="5.98092">
        <ele>509.74</ele>
        <time>2013-11-11T11:35:02Z</time>
      </trkpt>
      <trkpt lat="43.73012" lon="5.98101">
        <ele>511.51</ele>
        <time>2013-11-11T11:35:10Z</time>
      </trkpt>
      <trkpt lat="43.7303" lon="5.98104">
        <ele>513.81</ele>
        <time>2013-11-11T11:35:18Z</time>
      </trkpt>
      <trkpt lat="43.73048" lon="5.98112">
        <ele>514.8</ele>
        <time>2013-11-11T11:35:28Z</time>
      </trkpt>
      <trkpt lat="43.73067" lon="5.98116">
        <ele>515.06</ele>
        <time>2013-11-11T11:35:37Z</time>
      </trkpt>
      <trkpt lat="43.73083" lon="5.98129">
        <ele>516.63</ele>
        <time>2013-11-11T11:35:46Z</time>
      </trkpt>
      <trkpt lat="43.73083" lon="5.98155">
        <ele>518.29</ele>
        <time>2013-11-11T11:35:53Z</time>
      </trkpt>
      <trkpt lat="43.73087" lon="5.98179">
        <ele>518.49</ele>
        <time>2013-11-11T11:35:59Z</time>
      </trkpt>
      <trkpt lat="43.73096" lon="5.98203">
        <ele>520.78</ele>
        <time>2013-11-11T11:36:06Z</time>
      </trkpt>
      <trkpt lat="43.73103" lon="5.98226">
        <ele>522.54</ele>
        <time>2013-11-11T11:36:13Z</time>
      </trkpt>
      <trkpt lat="43.73104" lon="5.98252">
        <ele>524.86</ele>
        <time>2013-11-11T11:36:20Z</time>
      </trkpt>
      <trkpt lat="43.73106" lon="5.98279">
        <ele>524.75</ele>
        <time>2013-11-11T11:36:27Z</time>
      </trkpt>
      <trkpt lat="43.73109" lon="5.98305">
        <ele>525.39</ele>
        <time>2013-11-11T11:36:33Z</time>
      </trkpt>
      <trkpt lat="43.73114" lon="5.98333">
        <ele>525.27</ele>
        <time>2013-11-11T11:36:39Z</time>
      </trkpt>
      <trkpt lat="43.73119" lon="5.9836">
        <ele>526.35</ele>
        <time>2013-11-11T11:36:45Z</time>
      </trkpt>
      <trkpt lat="43.73124" lon="5.98387">
        <ele>526.76</ele>
        <time>2013-11-11T11:36:51Z</time>
      </trkpt>
      <trkpt lat="43.7313" lon="5.98415">
        <ele>523.53</ele>
        <time>2013-11-11T11:36:57Z</time>
      </trkpt>
      <trkpt lat="43.73135" lon="5.98442">
        <ele>524.84</ele>
        <time>2013-11-11T11:37:03Z</time>
      </trkpt>
      <trkpt lat="43.73139" lon="5.98469">
        <ele>526.27</ele>
        <time>2013-11-11T11:37:09Z</time>
      </trkpt>
      <trkpt lat="43.73144" lon="5.98493">
        <ele>524.86</ele>
        <time>2013-11-11T11:37:14Z</time>
      </trkpt>
      <trkpt lat="43.73151" lon="5.98517">
        <ele>525.3</ele>
        <time>2013-11-11T11:37:19Z</time>
      </trkpt>
      <trkpt lat="43.7316" lon="5.98544">
        <ele>525.57</ele>
        <time>2013-11-11T11:37:25Z</time>
      </trkpt>
      <trkpt lat="43.73169" lon="5.98567">
        <ele>526.56</ele>
        <time>2013-11-11T11:37:30Z</time>
      </trkpt>
      <trkpt lat="43.73178" lon="5.98591">
        <ele>526.38</ele>
        <time>2013-11-11T11:37:35Z</time>
      </trkpt>
      <trkpt lat="43.73186" lon="5.98615">
        <ele>525.25</ele>
        <time>2013-11-11T11:37:40Z</time>
      </trkpt>
      <trkpt lat="43.73196" lon="5.98642">
        <ele>524.96</ele>
        <time>2013-11-11T11:37:45Z</time>
      </trkpt>
      <trkpt lat="43.73206" lon="5.98668">
        <ele>525.44</ele>
        <time>2013-11-11T11:37:50Z</time>
      </trkpt>
      <trkpt lat="43.73217" lon="5.98693">
        <ele>525.42</ele>
        <time>2013-11-11T11:37:55Z</time>
      </trkpt>
      <trkpt lat="43.73222" lon="5.98718">
        <ele>526.34</ele>
        <time>2013-11-11T11:38:00Z</time>
      </trkpt>
      <trkpt lat="43.73224" lon="5.98747">
        <ele>529.36</ele>
        <time>2013-11-11T11:38:06Z</time>
      </trkpt>
      <trkpt lat="43.73227" lon="5.98776">
        <ele>529.69</ele>
        <time>2013-11-11T11:38:12Z</time>
      </trkpt>
      <trkpt lat="43.7323" lon="5.98805">
        <ele>531.56</ele>
        <time>2013-11-11T11:38:18Z</time>
      </trkpt>
      <trkpt lat="43.73233" lon="5.9883">
        <ele>530.72</ele>
        <time>2013-11-11T11:38:23Z</time>
      </trkpt>
      <trkpt lat="43.73236" lon="5.9886">
        <ele>529.77</ele>
        <time>2013-11-11T11:38:27Z</time>
      </trkpt>
      <trkpt lat="43.73227" lon="5.98887">
        <ele>528.76</ele>
        <time>2013-11-11T11:38:31Z</time>
      </trkpt>
      <trkpt lat="43.73215" lon="5.98911">
        <ele>528.64</ele>
        <time>2013-11-11T11:38:35Z</time>
      </trkpt>
      <trkpt lat="43.73202" lon="5.98936">
        <ele>527.32</ele>
        <time>2013-11-11T11:38:39Z</time>
      </trkpt>
      <trkpt lat="43.73188" lon="5.98954">
        <ele>525.31</ele>
        <time>2013-11-11T11:38:42Z</time>
      </trkpt>
      <trkpt lat="43.73203" lon="5.9897">
        <ele>521.65</ele>
        <time>2013-11-11T11:38:54Z</time>
      </trkpt>
      <trkpt lat="43.73223" lon="5.98969">
        <ele>521.09</ele>
        <time>2013-11-11T11:38:58Z</time>
      </trkpt>
      <trkpt lat="43.73245" lon="5.98965">
        <ele>519.77</ele>
        <time>2013-11-11T11:39:02Z</time>
      </trkpt>
      <trkpt lat="43.73263" lon="5.98957">
        <ele>517.7</ele>
        <time>2013-11-11T11:39:05Z</time>
      </trkpt>
      <trkpt lat="43.73281" lon="5.98937">
        <ele>515.24</ele>
        <time>2013-11-11T11:39:08Z</time>
      </trkpt>
      <trkpt lat="43.73299" lon="5.9891">
        <ele>511.89</ele>
        <time>2013-11-11T11:39:11Z</time>
      </trkpt>
      <trkpt lat="43.73313" lon="5.98892">
        <ele>509.63</ele>
        <time>2013-11-11T11:39:13Z</time>
      </trkpt>
      <trkpt lat="43.73326" lon="5.98873">
        <ele>507.26</ele>
        <time>2013-11-11T11:39:15Z</time>
      </trkpt>
      <trkpt lat="43.73339" lon="5.98853">
        <ele>504.72</ele>
        <time>2013-11-11T11:39:17Z</time>
      </trkpt>
      <trkpt lat="43.73351" lon="5.98833">
        <ele>502.41</ele>
        <time>2013-11-11T11:39:19Z</time>
      </trkpt>
      <trkpt lat="43.73366" lon="5.98819">
        <ele>500.51</ele>
        <time>2013-11-11T11:39:21Z</time>
      </trkpt>
      <trkpt lat="43.73384" lon="5.9881">
        <ele>499.53</ele>
        <time>2013-11-11T11:39:23Z</time>
      </trkpt>
      <trkpt lat="43.73401" lon="5.988">
        <ele>496.84</ele>
        <time>2013-11-11T11:39:25Z</time>
      </trkpt>
      <trkpt lat="43.73423" lon="5.98782">
        <ele>493.9</ele>
        <time>2013-11-11T11:39:28Z</time>
      </trkpt>
      <trkpt lat="43.73447" lon="5.9877">
        <ele>487.9</ele>
        <time>2013-11-11T11:39:31Z</time>
      </trkpt>
      <trkpt lat="43.73465" lon="5.98765">
        <ele>484.63</ele>
        <time>2013-11-11T11:39:33Z</time>
      </trkpt>
      <trkpt lat="43.73483" lon="5.98758">
        <ele>482.21</ele>
        <time>2013-11-11T11:39:35Z</time>
      </trkpt>
      <trkpt lat="43.735" lon="5.98746">
        <ele>480.24</ele>
        <time>2013-11-11T11:39:37Z</time>
      </trkpt>
      <trkpt lat="43.73522" lon="5.9873">
        <ele>475</ele>
        <time>2013-11-11T11:39:40Z</time>
      </trkpt>
      <trkpt lat="43.73544" lon="5.98715">
        <ele>470.56</ele>
        <time>2013-11-11T11:39:43Z</time>
      </trkpt>
      <trkpt lat="43.73559" lon="5.98695">
        <ele>467.02</ele>
        <time>2013-11-11T11:39:46Z</time>
      </trkpt>
      <trkpt lat="43.7358" lon="5.98688">
        <ele>462.12</ele>
        <time>2013-11-11T11:39:50Z</time>
      </trkpt>
      <trkpt lat="43.73599" lon="5.9868">
        <ele>460.1</ele>
        <time>2013-11-11T11:40:28Z</time>
      </trkpt>
      <trkpt lat="43.73615" lon="5.98664">
        <ele>458.31</ele>
        <time>2013-11-11T11:40:31Z</time>
      </trkpt>
      <trkpt lat="43.7363" lon="5.98645">
        <ele>455.71</ele>
        <time>2013-11-11T11:40:34Z</time>
      </trkpt>
      <trkpt lat="43.73645" lon="5.98624">
        <ele>453.94</ele>
        <time>2013-11-11T11:40:37Z</time>
      </trkpt>
      <trkpt lat="43.73657" lon="5.98603">
        <ele>453.39</ele>
        <time>2013-11-11T11:40:40Z</time>
      </trkpt>
      <trkpt lat="43.73675" lon="5.9861">
        <ele>451.79</ele>
        <time>2013-11-11T11:40:46Z</time>
      </trkpt>
      <trkpt lat="43.73685" lon="5.98631">
        <ele>450.73</ele>
        <time>2013-11-11T11:40:50Z</time>
      </trkpt>
      <trkpt lat="43.73701" lon="5.98652">
        <ele>449.72</ele>
        <time>2013-11-11T11:40:54Z</time>
      </trkpt>
      <trkpt lat="43.7372" lon="5.98664">
        <ele>449.32</ele>
        <time>2013-11-11T11:40:58Z</time>
      </trkpt>
      <trkpt lat="43.73741" lon="5.98676">
        <ele>446.12</ele>
        <time>2013-11-11T11:41:02Z</time>
      </trkpt>
      <trkpt lat="43.73761" lon="5.98689">
        <ele>443.55</ele>
        <time>2013-11-11T11:41:06Z</time>
      </trkpt>
      <trkpt lat="43.73785" lon="5.987">
        <ele>440.51</ele>
        <time>2013-11-11T11:41:09Z</time>
      </trkpt>
      <trkpt lat="43.73803" lon="5.98707">
        <ele>438.56</ele>
        <time>2013-11-11T11:41:11Z</time>
      </trkpt>
      <trkpt lat="43.73822" lon="5.98714">
        <ele>435.57</ele>
        <time>2013-11-11T11:41:13Z</time>
      </trkpt>
      <trkpt lat="43.73843" lon="5.98722">
        <ele>433.57</ele>
        <time>2013-11-11T11:41:15Z</time>
      </trkpt>
      <trkpt lat="43.73864" lon="5.98729">
        <ele>430.75</ele>
        <time>2013-11-11T11:41:17Z</time>
      </trkpt>
      <trkpt lat="43.73882" lon="5.98734">
        <ele>428.32</ele>
        <time>2013-11-11T11:41:19Z</time>
      </trkpt>
      <trkpt lat="43.739" lon="5.98747">
        <ele>425.23</ele>
        <time>2013-11-11T11:41:22Z</time>
      </trkpt>
      <trkpt lat="43.73916" lon="5.98778">
        <ele>421.6</ele>
        <time>2013-11-11T11:41:25Z</time>
      </trkpt>
      <trkpt lat="43.7393" lon="5.98794">
        <ele>420.88</ele>
        <time>2013-11-11T11:41:27Z</time>
      </trkpt>
      <trkpt lat="43.7395" lon="5.9881">
        <ele>420.53</ele>
        <time>2013-11-11T11:41:30Z</time>
      </trkpt>
      <trkpt lat="43.73967" lon="5.98798">
        <ele>415.96</ele>
        <time>2013-11-11T11:41:39Z</time>
      </trkpt>
      <trkpt lat="43.73977" lon="5.98776">
        <ele>415.45</ele>
        <time>2013-11-11T11:41:43Z</time>
      </trkpt>
      <trkpt lat="43.73989" lon="5.98752">
        <ele>415.65</ele>
        <time>2013-11-11T11:41:47Z</time>
      </trkpt>
      <trkpt lat="43.74001" lon="5.98732">
        <ele>416.47</ele>
        <time>2013-11-11T11:41:51Z</time>
      </trkpt>
      <trkpt lat="43.74013" lon="5.98711">
        <ele>417.11</ele>
        <time>2013-11-11T11:41:55Z</time>
      </trkpt>
      <trkpt lat="43.74024" lon="5.98691">
        <ele>417.78</ele>
        <time>2013-11-11T11:41:59Z</time>
      </trkpt>
      <trkpt lat="43.74033" lon="5.98669">
        <ele>419.49</ele>
        <time>2013-11-11T11:42:03Z</time>
      </trkpt>
      <trkpt lat="43.74041" lon="5.98643">
        <ele>419.94</ele>
        <time>2013-11-11T11:42:07Z</time>
      </trkpt>
      <trkpt lat="43.74049" lon="5.98621">
        <ele>420.81</ele>
        <time>2013-11-11T11:42:11Z</time>
      </trkpt>
      <trkpt lat="43.74061" lon="5.98599">
        <ele>420.73</ele>
        <time>2013-11-11T11:42:15Z</time>
      </trkpt>
      <trkpt lat="43.74074" lon="5.98574">
        <ele>420.95</ele>
        <time>2013-11-11T11:42:19Z</time>
      </trkpt>
      <trkpt lat="43.74084" lon="5.9855">
        <ele>421.16</ele>
        <time>2013-11-11T11:42:23Z</time>
      </trkpt>
      <trkpt lat="43.74094" lon="5.98523">
        <ele>421.37</ele>
        <time>2013-11-11T11:42:27Z</time>
      </trkpt>
      <trkpt lat="43.74096" lon="5.98497">
        <ele>419.78</ele>
        <time>2013-11-11T11:42:31Z</time>
      </trkpt>
      <trkpt lat="43.741" lon="5.98473">
        <ele>419.21</ele>
        <time>2013-11-11T11:42:35Z</time>
      </trkpt>
      <trkpt lat="43.74103" lon="5.98444">
        <ele>419.37</ele>
        <time>2013-11-11T11:42:39Z</time>
      </trkpt>
      <trkpt lat="43.74098" lon="5.98417">
        <ele>417.38</ele>
        <time>2013-11-11T11:42:43Z</time>
      </trkpt>
      <trkpt lat="43.74084" lon="5.98391">
        <ele>417.25</ele>
        <time>2013-11-11T11:42:48Z</time>
      </trkpt>
      <trkpt lat="43.7407" lon="5.98373">
        <ele>415.46</ele>
        <time>2013-11-11T11:42:52Z</time>
      </trkpt>
      <trkpt lat="43.74062" lon="5.98345">
        <ele>416.73</ele>
        <time>2013-11-11T11:42:58Z</time>
      </trkpt>
      <trkpt lat="43.74054" lon="5.9832">
        <ele>419.38</ele>
        <time>2013-11-11T11:43:02Z</time>
      </trkpt>
      <trkpt lat="43.74035" lon="5.9831">
        <ele>418.83</ele>
        <time>2013-11-11T11:43:06Z</time>
      </trkpt>
      <trkpt lat="43.74018" lon="5.98298">
        <ele>417.9</ele>
        <time>2013-11-11T11:43:10Z</time>
      </trkpt>
      <trkpt lat="43.74021" lon="5.98272">
        <ele>417.4</ele>
        <time>2013-11-11T11:43:15Z</time>
      </trkpt>
      <trkpt lat="43.7403" lon="5.98247">
        <ele>417.5</ele>
        <time>2013-11-11T11:43:20Z</time>
      </trkpt>
      <trkpt lat="43.7403" lon="5.98219">
        <ele>416.91</ele>
        <time>2013-11-11T11:43:24Z</time>
      </trkpt>
      <trkpt lat="43.74017" lon="5.98198">
        <ele>417.21</ele>
        <time>2013-11-11T11:43:28Z</time>
      </trkpt>
      <trkpt lat="43.73998" lon="5.98188">
        <ele>417.28</ele>
        <time>2013-11-11T11:43:32Z</time>
      </trkpt>
      <trkpt lat="43.73979" lon="5.98185">
        <ele>417.16</ele>
        <time>2013-11-11T11:43:36Z</time>
      </trkpt>
      <trkpt lat="43.73965" lon="5.98168">
        <ele>417.75</ele>
        <time>2013-11-11T11:43:41Z</time>
      </trkpt>
      <trkpt lat="43.73962" lon="5.98143">
        <ele>416.43</ele>
        <time>2013-11-11T11:43:45Z</time>
      </trkpt>
      <trkpt lat="43.7396" lon="5.98118">
        <ele>414.57</ele>
        <time>2013-11-11T11:43:49Z</time>
      </trkpt>
      <trkpt lat="43.73956" lon="5.9809">
        <ele>413.5</ele>
        <time>2013-11-11T11:43:53Z</time>
      </trkpt>
      <trkpt lat="43.7395" lon="5.98062">
        <ele>412.59</ele>
        <time>2013-11-11T11:43:57Z</time>
      </trkpt>
      <trkpt lat="43.7394" lon="5.98035">
        <ele>411.98</ele>
        <time>2013-11-11T11:44:01Z</time>
      </trkpt>
      <trkpt lat="43.73931" lon="5.98013">
        <ele>411.96</ele>
        <time>2013-11-11T11:44:04Z</time>
      </trkpt>
      <trkpt lat="43.73917" lon="5.97988">
        <ele>411.39</ele>
        <time>2013-11-11T11:44:08Z</time>
      </trkpt>
      <trkpt lat="43.73914" lon="5.97962">
        <ele>412.1</ele>
        <time>2013-11-11T11:44:12Z</time>
      </trkpt>
      <trkpt lat="43.73932" lon="5.97942">
        <ele>410.87</ele>
        <time>2013-11-11T11:44:16Z</time>
      </trkpt>
      <trkpt lat="43.73944" lon="5.9792">
        <ele>409.58</ele>
        <time>2013-11-11T11:44:19Z</time>
      </trkpt>
      <trkpt lat="43.73952" lon="5.97895">
        <ele>408.4</ele>
        <time>2013-11-11T11:44:22Z</time>
      </trkpt>
      <trkpt lat="43.73953" lon="5.97861">
        <ele>405.87</ele>
        <time>2013-11-11T11:44:25Z</time>
      </trkpt>
      <trkpt lat="43.73942" lon="5.97829">
        <ele>403.1</ele>
        <time>2013-11-11T11:44:28Z</time>
      </trkpt>
      <trkpt lat="43.73924" lon="5.97815">
        <ele>400.35</ele>
        <time>2013-11-11T11:44:31Z</time>
      </trkpt>
      <trkpt lat="43.73904" lon="5.97814">
        <ele>398.27</ele>
        <time>2013-11-11T11:44:34Z</time>
      </trkpt>
      <trkpt lat="43.73883" lon="5.97818">
        <ele>397.68</ele>
        <time>2013-11-11T11:44:37Z</time>
      </trkpt>
      <trkpt lat="43.73863" lon="5.97827">
        <ele>396.48</ele>
        <time>2013-11-11T11:44:40Z</time>
      </trkpt>
      <trkpt lat="43.73843" lon="5.97823">
        <ele>394.46</ele>
        <time>2013-11-11T11:44:44Z</time>
      </trkpt>
      <trkpt lat="43.73847" lon="5.97798">
        <ele>394.41</ele>
        <time>2013-11-11T11:44:47Z</time>
      </trkpt>
      <trkpt lat="43.73855" lon="5.97771">
        <ele>393.19</ele>
        <time>2013-11-11T11:44:50Z</time>
      </trkpt>
      <trkpt lat="43.73865" lon="5.97742">
        <ele>392.09</ele>
        <time>2013-11-11T11:44:53Z</time>
      </trkpt>
      <trkpt lat="43.73873" lon="5.97713">
        <ele>389.93</ele>
        <time>2013-11-11T11:44:56Z</time>
      </trkpt>
      <trkpt lat="43.73883" lon="5.9768">
        <ele>390.34</ele>
        <time>2013-11-11T11:44:59Z</time>
      </trkpt>
      <trkpt lat="43.73892" lon="5.97648">
        <ele>392.08</ele>
        <time>2013-11-11T11:45:02Z</time>
      </trkpt>
      <trkpt lat="43.73901" lon="5.97619">
        <ele>391.32</ele>
        <time>2013-11-11T11:45:05Z</time>
      </trkpt>
      <trkpt lat="43.73919" lon="5.97604">
        <ele>388.23</ele>
        <time>2013-11-11T11:45:08Z</time>
      </trkpt>
      <trkpt lat="43.73944" lon="5.97595">
        <ele>386.47</ele>
        <time>2013-11-11T11:45:11Z</time>
      </trkpt>
      <trkpt lat="43.73962" lon="5.97573">
        <ele>384.68</ele>
        <time>2013-11-11T11:45:14Z</time>
      </trkpt>
      <trkpt lat="43.73974" lon="5.97544">
        <ele>383.27</ele>
        <time>2013-11-11T11:45:17Z</time>
      </trkpt>
      <trkpt lat="43.73983" lon="5.97513">
        <ele>381.11</ele>
        <time>2013-11-11T11:45:20Z</time>
      </trkpt>
      <trkpt lat="43.73989" lon="5.97489">
        <ele>379.81</ele>
        <time>2013-11-11T11:45:22Z</time>
      </trkpt>
      <trkpt lat="43.73989" lon="5.97454">
        <ele>377.83</ele>
        <time>2013-11-11T11:45:25Z</time>
      </trkpt>
      <trkpt lat="43.73971" lon="5.97437">
        <ele>376.25</ele>
        <time>2013-11-11T11:45:28Z</time>
      </trkpt>
      <trkpt lat="43.73953" lon="5.97439">
        <ele>375.64</ele>
        <time>2013-11-11T11:45:31Z</time>
      </trkpt>
      <trkpt lat="43.73934" lon="5.97453">
        <ele>376.4</ele>
        <time>2013-11-11T11:45:35Z</time>
      </trkpt>
      <trkpt lat="43.73916" lon="5.97447">
        <ele>378.06</ele>
        <time>2013-11-11T11:45:39Z</time>
      </trkpt>
      <trkpt lat="43.73902" lon="5.97429">
        <ele>378.19</ele>
        <time>2013-11-11T11:45:43Z</time>
      </trkpt>
      <trkpt lat="43.73885" lon="5.97413">
        <ele>379.87</ele>
        <time>2013-11-11T11:45:48Z</time>
      </trkpt>
      <trkpt lat="43.73876" lon="5.97388">
        <ele>382.29</ele>
        <time>2013-11-11T11:45:54Z</time>
      </trkpt>
      <trkpt lat="43.73885" lon="5.97366">
        <ele>382.01</ele>
        <time>2013-11-11T11:46:01Z</time>
      </trkpt>
      <trkpt lat="43.739" lon="5.97378">
        <ele>384.74</ele>
        <time>2013-11-11T11:46:11Z</time>
      </trkpt>
      <trkpt lat="43.73916" lon="5.97392">
        <ele>389.7</ele>
        <time>2013-11-11T11:51:42Z</time>
      </trkpt>
      <trkpt lat="43.73934" lon="5.9738">
        <ele>394.33</ele>
        <time>2013-11-11T11:52:05Z</time>
      </trkpt>
      <trkpt lat="43.73948" lon="5.97365">
        <ele>395.87</ele>
        <time>2013-11-11T11:52:12Z</time>
      </trkpt>
      <trkpt lat="43.73968" lon="5.97369">
        <ele>396.47</ele>
        <time>2013-11-11T11:52:23Z</time>
      </trkpt>
      <trkpt lat="43.73987" lon="5.97375">
        <ele>394.58</ele>
        <time>2013-11-11T11:52:31Z</time>
      </trkpt>
      <trkpt lat="43.74007" lon="5.97379">
        <ele>394</ele>
        <time>2013-11-11T11:52:39Z</time>
      </trkpt>
      <trkpt lat="43.74025" lon="5.97383">
        <ele>393.34</ele>
        <time>2013-11-11T11:52:46Z</time>
      </trkpt>
      <trkpt lat="43.74043" lon="5.97388">
        <ele>393.44</ele>
        <time>2013-11-11T11:52:53Z</time>
      </trkpt>
      <trkpt lat="43.74062" lon="5.97389">
        <ele>395.02</ele>
        <time>2013-11-11T11:53:02Z</time>
      </trkpt>
      <trkpt lat="43.74082" lon="5.97389">
        <ele>399.84</ele>
        <time>2013-11-11T11:53:12Z</time>
      </trkpt>
      <trkpt lat="43.74101" lon="5.97388">
        <ele>401.98</ele>
        <time>2013-11-11T11:53:23Z</time>
      </trkpt>
      <trkpt lat="43.74119" lon="5.97383">
        <ele>409.44</ele>
        <time>2013-11-11T11:53:35Z</time>
      </trkpt>
      <trkpt lat="43.74136" lon="5.97372">
        <ele>410.06</ele>
        <time>2013-11-11T11:53:45Z</time>
      </trkpt>
      <trkpt lat="43.74156" lon="5.97377">
        <ele>410.46</ele>
        <time>2013-11-11T11:53:53Z</time>
      </trkpt>
      <trkpt lat="43.74176" lon="5.9738">
        <ele>409.7</ele>
        <time>2013-11-11T11:54:01Z</time>
      </trkpt>
      <trkpt lat="43.74194" lon="5.97381">
        <ele>411.11</ele>
        <time>2013-11-11T11:54:09Z</time>
      </trkpt>
      <trkpt lat="43.74212" lon="5.97378">
        <ele>413.01</ele>
        <time>2013-11-11T11:54:17Z</time>
      </trkpt>
      <trkpt lat="43.74232" lon="5.97377">
        <ele>415.98</ele>
        <time>2013-11-11T11:54:25Z</time>
      </trkpt>
      <trkpt lat="43.74252" lon="5.97371">
        <ele>417.25</ele>
        <time>2013-11-11T11:54:33Z</time>
      </trkpt>
      <trkpt lat="43.74267" lon="5.97384">
        <ele>420.27</ele>
        <time>2013-11-11T11:54:42Z</time>
      </trkpt>
      <trkpt lat="43.74276" lon="5.97407">
        <ele>422.16</ele>
        <time>2013-11-11T11:54:54Z</time>
      </trkpt>
      <trkpt lat="43.74287" lon="5.97427">
        <ele>424.45</ele>
        <time>2013-11-11T11:55:06Z</time>
      </trkpt>
      <trkpt lat="43.74306" lon="5.9742">
        <ele>425.83</ele>
        <time>2013-11-11T11:55:19Z</time>
      </trkpt>
      <trkpt lat="43.74287" lon="5.97412">
        <ele>423.11</ele>
        <time>2013-11-11T11:55:33Z</time>
      </trkpt>
      <trkpt lat="43.74273" lon="5.97395">
        <ele>421.04</ele>
        <time>2013-11-11T11:55:38Z</time>
      </trkpt>
      <trkpt lat="43.74273" lon="5.97369">
        <ele>419.24</ele>
        <time>2013-11-11T11:55:42Z</time>
      </trkpt>
      <trkpt lat="43.74285" lon="5.97349">
        <ele>419.75</ele>
        <time>2013-11-11T11:55:47Z</time>
      </trkpt>
      <trkpt lat="43.74301" lon="5.97332">
        <ele>422.29</ele>
        <time>2013-11-11T11:55:54Z</time>
      </trkpt>
      <trkpt lat="43.74315" lon="5.97315">
        <ele>424.07</ele>
        <time>2013-11-11T11:56:01Z</time>
      </trkpt>
      <trkpt lat="43.74329" lon="5.97299">
        <ele>427.12</ele>
        <time>2013-11-11T11:56:08Z</time>
      </trkpt>
      <trkpt lat="43.74344" lon="5.97282">
        <ele>428.59</ele>
        <time>2013-11-11T11:56:15Z</time>
      </trkpt>
      <trkpt lat="43.74358" lon="5.97264">
        <ele>428.69</ele>
        <time>2013-11-11T11:56:22Z</time>
      </trkpt>
      <trkpt lat="43.74372" lon="5.97249">
        <ele>430.71</ele>
        <time>2013-11-11T11:56:29Z</time>
      </trkpt>
      <trkpt lat="43.74385" lon="5.97229">
        <ele>432.6</ele>
        <time>2013-11-11T11:56:39Z</time>
      </trkpt>
      <trkpt lat="43.74399" lon="5.97214">
        <ele>435.69</ele>
        <time>2013-11-11T11:56:51Z</time>
      </trkpt>
      <trkpt lat="43.74416" lon="5.97202">
        <ele>439.17</ele>
        <time>2013-11-11T11:57:03Z</time>
      </trkpt>
      <trkpt lat="43.74429" lon="5.97185">
        <ele>443.7</ele>
        <time>2013-11-11T11:57:15Z</time>
      </trkpt>
      <trkpt lat="43.7444" lon="5.97163">
        <ele>447.13</ele>
        <time>2013-11-11T11:57:27Z</time>
      </trkpt>
      <trkpt lat="43.74457" lon="5.97159">
        <ele>448.37</ele>
        <time>2013-11-11T11:57:42Z</time>
      </trkpt>
      <trkpt lat="43.74475" lon="5.97148">
        <ele>453.83</ele>
        <time>2013-11-11T11:57:58Z</time>
      </trkpt>
      <trkpt lat="43.74493" lon="5.97138">
        <ele>457.29</ele>
        <time>2013-11-11T11:58:12Z</time>
      </trkpt>
      <trkpt lat="43.74511" lon="5.97138">
        <ele>458.91</ele>
        <time>2013-11-11T11:58:23Z</time>
      </trkpt>
      <trkpt lat="43.74529" lon="5.97136">
        <ele>459.48</ele>
        <time>2013-11-11T11:58:33Z</time>
      </trkpt>
      <trkpt lat="43.74549" lon="5.97135">
        <ele>460.68</ele>
        <time>2013-11-11T11:58:42Z</time>
      </trkpt>
      <trkpt lat="43.74569" lon="5.97134">
        <ele>460.31</ele>
        <time>2013-11-11T11:58:49Z</time>
      </trkpt>
      <trkpt lat="43.7458" lon="5.97114">
        <ele>461.62</ele>
        <time>2013-11-11T11:58:55Z</time>
      </trkpt>
      <trkpt lat="43.74599" lon="5.9711">
        <ele>458.84</ele>
        <time>2013-11-11T11:59:07Z</time>
      </trkpt>
      <trkpt lat="43.74617" lon="5.97102">
        <ele>455.07</ele>
        <time>2013-11-11T11:59:11Z</time>
      </trkpt>
      <trkpt lat="43.74632" lon="5.97084">
        <ele>448.84</ele>
        <time>2013-11-11T11:59:15Z</time>
      </trkpt>
      <trkpt lat="43.74647" lon="5.97067">
        <ele>444.7</ele>
        <time>2013-11-11T11:59:18Z</time>
      </trkpt>
      <trkpt lat="43.74663" lon="5.97051">
        <ele>442.27</ele>
        <time>2013-11-11T11:59:21Z</time>
      </trkpt>
      <trkpt lat="43.7468" lon="5.97036">
        <ele>439.97</ele>
        <time>2013-11-11T11:59:24Z</time>
      </trkpt>
      <trkpt lat="43.74699" lon="5.97019">
        <ele>438.53</ele>
        <time>2013-11-11T11:59:27Z</time>
      </trkpt>
      <trkpt lat="43.74718" lon="5.97011">
        <ele>435.89</ele>
        <time>2013-11-11T11:59:31Z</time>
      </trkpt>
      <trkpt lat="43.74739" lon="5.97002">
        <ele>432.16</ele>
        <time>2013-11-11T11:59:34Z</time>
      </trkpt>
      <trkpt lat="43.74762" lon="5.96996">
        <ele>428.99</ele>
        <time>2013-11-11T11:59:37Z</time>
      </trkpt>
      <trkpt lat="43.74783" lon="5.96984">
        <ele>424.7</ele>
        <time>2013-11-11T11:59:40Z</time>
      </trkpt>
      <trkpt lat="43.74803" lon="5.9698">
        <ele>420.97</ele>
        <time>2013-11-11T11:59:43Z</time>
      </trkpt>
      <trkpt lat="43.74827" lon="5.96994">
        <ele>417</ele>
        <time>2013-11-11T11:59:46Z</time>
      </trkpt>
      <trkpt lat="43.74844" lon="5.97001">
        <ele>415.28</ele>
        <time>2013-11-11T11:59:48Z</time>
      </trkpt>
      <trkpt lat="43.74863" lon="5.97002">
        <ele>413.83</ele>
        <time>2013-11-11T11:59:50Z</time>
      </trkpt>
      <trkpt lat="43.74882" lon="5.96999">
        <ele>412.51</ele>
        <time>2013-11-11T11:59:52Z</time>
      </trkpt>
      <trkpt lat="43.74907" lon="5.96994">
        <ele>410.7</ele>
        <time>2013-11-11T11:59:55Z</time>
      </trkpt>
      <trkpt lat="43.7493" lon="5.96989">
        <ele>408.86</ele>
        <time>2013-11-11T11:59:58Z</time>
      </trkpt>
      <trkpt lat="43.74952" lon="5.96978">
        <ele>409.22</ele>
        <time>2013-11-11T12:00:01Z</time>
      </trkpt>
      <trkpt lat="43.74971" lon="5.96968">
        <ele>408.73</ele>
        <time>2013-11-11T12:00:04Z</time>
      </trkpt>
      <trkpt lat="43.74993" lon="5.96955">
        <ele>406.65</ele>
        <time>2013-11-11T12:00:08Z</time>
      </trkpt>
      <trkpt lat="43.75013" lon="5.96952">
        <ele>403.98</ele>
        <time>2013-11-11T12:00:11Z</time>
      </trkpt>
      <trkpt lat="43.75036" lon="5.96946">
        <ele>401.65</ele>
        <time>2013-11-11T12:00:14Z</time>
      </trkpt>
      <trkpt lat="43.75058" lon="5.96943">
        <ele>399.49</ele>
        <time>2013-11-11T12:00:17Z</time>
      </trkpt>
      <trkpt lat="43.75076" lon="5.96948">
        <ele>397.69</ele>
        <time>2013-11-11T12:00:20Z</time>
      </trkpt>
      <trkpt lat="43.75097" lon="5.96945">
        <ele>397</ele>
        <time>2013-11-11T12:00:23Z</time>
      </trkpt>
      <trkpt lat="43.75119" lon="5.96933">
        <ele>396.36</ele>
        <time>2013-11-11T12:00:26Z</time>
      </trkpt>
      <trkpt lat="43.75132" lon="5.96916">
        <ele>397.98</ele>
        <time>2013-11-11T12:00:32Z</time>
      </trkpt>
      <trkpt lat="43.7513" lon="5.96944">
        <ele>399.58</ele>
        <time>2013-11-11T12:00:43Z</time>
      </trkpt>
      <trkpt lat="43.75145" lon="5.96963">
        <ele>400.43</ele>
        <time>2013-11-11T12:00:50Z</time>
      </trkpt>
      <trkpt lat="43.75162" lon="5.96969">
        <ele>403.08</ele>
        <time>2013-11-11T12:00:56Z</time>
      </trkpt>
      <trkpt lat="43.75182" lon="5.96976">
        <ele>404.41</ele>
        <time>2013-11-11T12:01:03Z</time>
      </trkpt>
      <trkpt lat="43.752" lon="5.96978">
        <ele>405.74</ele>
        <time>2013-11-11T12:01:10Z</time>
      </trkpt>
      <trkpt lat="43.75216" lon="5.96964">
        <ele>407.43</ele>
        <time>2013-11-11T12:01:19Z</time>
      </trkpt>
      <trkpt lat="43.75234" lon="5.96963">
        <ele>409.9</ele>
        <time>2013-11-11T12:01:30Z</time>
      </trkpt>
      <trkpt lat="43.75253" lon="5.9696">
        <ele>414.92</ele>
        <time>2013-11-11T12:01:44Z</time>
      </trkpt>
      <trkpt lat="43.75272" lon="5.9696">
        <ele>415.89</ele>
        <time>2013-11-11T12:01:55Z</time>
      </trkpt>
      <trkpt lat="43.7529" lon="5.96959">
        <ele>416.48</ele>
        <time>2013-11-11T12:02:05Z</time>
      </trkpt>
      <trkpt lat="43.75273" lon="5.96948">
        <ele>420.64</ele>
        <time>2013-11-11T12:02:19Z</time>
      </trkpt>
      <trkpt lat="43.7526" lon="5.96929">
        <ele>423.49</ele>
        <time>2013-11-11T12:02:31Z</time>
      </trkpt>
      <trkpt lat="43.75262" lon="5.96904">
        <ele>426.03</ele>
        <time>2013-11-11T12:02:40Z</time>
      </trkpt>
      <trkpt lat="43.75265" lon="5.96875">
        <ele>426.47</ele>
        <time>2013-11-11T12:02:46Z</time>
      </trkpt>
      <trkpt lat="43.75273" lon="5.96851">
        <ele>425.95</ele>
        <time>2013-11-11T12:02:50Z</time>
      </trkpt>
      <trkpt lat="43.75282" lon="5.96827">
        <ele>423.53</ele>
        <time>2013-11-11T12:02:53Z</time>
      </trkpt>
      <trkpt lat="43.75289" lon="5.96804">
        <ele>420.25</ele>
        <time>2013-11-11T12:02:56Z</time>
      </trkpt>
      <trkpt lat="43.75303" lon="5.96777">
        <ele>417.11</ele>
        <time>2013-11-11T12:03:00Z</time>
      </trkpt>
      <trkpt lat="43.7531" lon="5.96751">
        <ele>413.98</ele>
        <time>2013-11-11T12:03:03Z</time>
      </trkpt>
      <trkpt lat="43.75301" lon="5.96723">
        <ele>411.47</ele>
        <time>2013-11-11T12:03:06Z</time>
      </trkpt>
      <trkpt lat="43.75289" lon="5.96696">
        <ele>410.6</ele>
        <time>2013-11-11T12:03:09Z</time>
      </trkpt>
      <trkpt lat="43.75279" lon="5.96668">
        <ele>409.66</ele>
        <time>2013-11-11T12:03:12Z</time>
      </trkpt>
      <trkpt lat="43.75276" lon="5.96638">
        <ele>408.59</ele>
        <time>2013-11-11T12:03:15Z</time>
      </trkpt>
      <trkpt lat="43.75278" lon="5.96606">
        <ele>407.42</ele>
        <time>2013-11-11T12:03:18Z</time>
      </trkpt>
      <trkpt lat="43.75286" lon="5.9657">
        <ele>404.48</ele>
        <time>2013-11-11T12:03:21Z</time>
      </trkpt>
      <trkpt lat="43.75302" lon="5.96543">
        <ele>403.25</ele>
        <time>2013-11-11T12:03:24Z</time>
      </trkpt>
      <trkpt lat="43.75308" lon="5.96511">
        <ele>402.36</ele>
        <time>2013-11-11T12:03:27Z</time>
      </trkpt>
      <trkpt lat="43.75303" lon="5.96483">
        <ele>402.29</ele>
        <time>2013-11-11T12:03:30Z</time>
      </trkpt>
      <trkpt lat="43.75305" lon="5.96456">
        <ele>403.01</ele>
        <time>2013-11-11T12:03:33Z</time>
      </trkpt>
      <trkpt lat="43.7531" lon="5.96432">
        <ele>403.11</ele>
        <time>2013-11-11T12:03:36Z</time>
      </trkpt>
      <trkpt lat="43.75315" lon="5.96406">
        <ele>402.06</ele>
        <time>2013-11-11T12:03:39Z</time>
      </trkpt>
      <trkpt lat="43.75315" lon="5.96375">
        <ele>400.59</ele>
        <time>2013-11-11T12:03:42Z</time>
      </trkpt>
      <trkpt lat="43.75307" lon="5.96342">
        <ele>397.61</ele>
        <time>2013-11-11T12:03:45Z</time>
      </trkpt>
      <trkpt lat="43.75298" lon="5.96309">
        <ele>395.55</ele>
        <time>2013-11-11T12:03:48Z</time>
      </trkpt>
      <trkpt lat="43.75288" lon="5.9628">
        <ele>395.59</ele>
        <time>2013-11-11T12:03:51Z</time>
      </trkpt>
      <trkpt lat="43.75278" lon="5.96253">
        <ele>395.26</ele>
        <time>2013-11-11T12:03:54Z</time>
      </trkpt>
      <trkpt lat="43.75268" lon="5.96229">
        <ele>396.87</ele>
        <time>2013-11-11T12:03:57Z</time>
      </trkpt>
      <trkpt lat="43.75255" lon="5.96207">
        <ele>397.48</ele>
        <time>2013-11-11T12:04:00Z</time>
      </trkpt>
      <trkpt lat="43.75243" lon="5.96184">
        <ele>396.88</ele>
        <time>2013-11-11T12:04:04Z</time>
      </trkpt>
      <trkpt lat="43.75245" lon="5.96157">
        <ele>398.49</ele>
        <time>2013-11-11T12:04:09Z</time>
      </trkpt>
      <trkpt lat="43.7525" lon="5.96133">
        <ele>399.72</ele>
        <time>2013-11-11T12:04:14Z</time>
      </trkpt>
      <trkpt lat="43.75259" lon="5.9611">
        <ele>399.29</ele>
        <time>2013-11-11T12:04:19Z</time>
      </trkpt>
      <trkpt lat="43.75269" lon="5.96087">
        <ele>401.5</ele>
        <time>2013-11-11T12:04:25Z</time>
      </trkpt>
      <trkpt lat="43.75269" lon="5.96062">
        <ele>403.7</ele>
        <time>2013-11-11T12:04:33Z</time>
      </trkpt>
      <trkpt lat="43.7527" lon="5.96035">
        <ele>405.95</ele>
        <time>2013-11-11T12:04:42Z</time>
      </trkpt>
      <trkpt lat="43.75276" lon="5.9601">
        <ele>407.98</ele>
        <time>2013-11-11T12:04:50Z</time>
      </trkpt>
      <trkpt lat="43.7528" lon="5.95985">
        <ele>405.43</ele>
        <time>2013-11-11T12:04:56Z</time>
      </trkpt>
      <trkpt lat="43.75288" lon="5.95961">
        <ele>403.29</ele>
        <time>2013-11-11T12:05:01Z</time>
      </trkpt>
      <trkpt lat="43.75294" lon="5.95935">
        <ele>403.86</ele>
        <time>2013-11-11T12:05:06Z</time>
      </trkpt>
      <trkpt lat="43.7528" lon="5.95918">
        <ele>404.97</ele>
        <time>2013-11-11T12:05:20Z</time>
      </trkpt>
      <trkpt lat="43.75263" lon="5.959">
        <ele>405.26</ele>
        <time>2013-11-11T12:05:27Z</time>
      </trkpt>
      <trkpt lat="43.75255" lon="5.95876">
        <ele>405.52</ele>
        <time>2013-11-11T12:05:32Z</time>
      </trkpt>
      <trkpt lat="43.75251" lon="5.95846">
        <ele>405.89</ele>
        <time>2013-11-11T12:05:37Z</time>
      </trkpt>
      <trkpt lat="43.75248" lon="5.95817">
        <ele>406.47</ele>
        <time>2013-11-11T12:05:42Z</time>
      </trkpt>
      <trkpt lat="43.75238" lon="5.95796">
        <ele>406.56</ele>
        <time>2013-11-11T12:05:46Z</time>
      </trkpt>
      <trkpt lat="43.75229" lon="5.95771">
        <ele>406.34</ele>
        <time>2013-11-11T12:05:50Z</time>
      </trkpt>
      <trkpt lat="43.75224" lon="5.95745">
        <ele>406.47</ele>
        <time>2013-11-11T12:05:54Z</time>
      </trkpt>
      <trkpt lat="43.75223" lon="5.95714">
        <ele>406.89</ele>
        <time>2013-11-11T12:05:58Z</time>
      </trkpt>
      <trkpt lat="43.75225" lon="5.95685">
        <ele>406.75</ele>
        <time>2013-11-11T12:06:02Z</time>
      </trkpt>
      <trkpt lat="43.7523" lon="5.95658">
        <ele>408.56</ele>
        <time>2013-11-11T12:06:07Z</time>
      </trkpt>
      <trkpt lat="43.75233" lon="5.95629">
        <ele>409.72</ele>
        <time>2013-11-11T12:06:13Z</time>
      </trkpt>
      <trkpt lat="43.75226" lon="5.95603">
        <ele>410.28</ele>
        <time>2013-11-11T12:06:19Z</time>
      </trkpt>
      <trkpt lat="43.75219" lon="5.95578">
        <ele>411.51</ele>
        <time>2013-11-11T12:06:25Z</time>
      </trkpt>
      <trkpt lat="43.75215" lon="5.95553">
        <ele>414.1</ele>
        <time>2013-11-11T12:06:33Z</time>
      </trkpt>
      <trkpt lat="43.75211" lon="5.95526">
        <ele>415.42</ele>
        <time>2013-11-11T12:06:42Z</time>
      </trkpt>
      <trkpt lat="43.75217" lon="5.95499">
        <ele>418.41</ele>
        <time>2013-11-11T12:06:50Z</time>
      </trkpt>
      <trkpt lat="43.75225" lon="5.95477">
        <ele>418.66</ele>
        <time>2013-11-11T12:06:57Z</time>
      </trkpt>
      <trkpt lat="43.75231" lon="5.95453">
        <ele>416.88</ele>
        <time>2013-11-11T12:07:07Z</time>
      </trkpt>
      <trkpt lat="43.75241" lon="5.95428">
        <ele>418</ele>
        <time>2013-11-11T12:07:14Z</time>
      </trkpt>
      <trkpt lat="43.75262" lon="5.95422">
        <ele>417.02</ele>
        <time>2013-11-11T12:07:20Z</time>
      </trkpt>
      <trkpt lat="43.75269" lon="5.95398">
        <ele>418.16</ele>
        <time>2013-11-11T12:07:25Z</time>
      </trkpt>
      <trkpt lat="43.75269" lon="5.9537">
        <ele>419.01</ele>
        <time>2013-11-11T12:07:29Z</time>
      </trkpt>
      <trkpt lat="43.75271" lon="5.95341">
        <ele>419.68</ele>
        <time>2013-11-11T12:07:34Z</time>
      </trkpt>
      <trkpt lat="43.75271" lon="5.95316">
        <ele>420.16</ele>
        <time>2013-11-11T12:07:38Z</time>
      </trkpt>
      <trkpt lat="43.75273" lon="5.95287">
        <ele>418.26</ele>
        <time>2013-11-11T12:07:43Z</time>
      </trkpt>
      <trkpt lat="43.75287" lon="5.95263">
        <ele>416.93</ele>
        <time>2013-11-11T12:07:48Z</time>
      </trkpt>
      <trkpt lat="43.75286" lon="5.95236">
        <ele>416.85</ele>
        <time>2013-11-11T12:07:53Z</time>
      </trkpt>
      <trkpt lat="43.75274" lon="5.95214">
        <ele>418.08</ele>
        <time>2013-11-11T12:07:59Z</time>
      </trkpt>
      <trkpt lat="43.75262" lon="5.95196">
        <ele>418.97</ele>
        <time>2013-11-11T12:08:05Z</time>
      </trkpt>
      <trkpt lat="43.75249" lon="5.95173">
        <ele>421.32</ele>
        <time>2013-11-11T12:08:12Z</time>
      </trkpt>
      <trkpt lat="43.75239" lon="5.9515">
        <ele>420.84</ele>
        <time>2013-11-11T12:08:19Z</time>
      </trkpt>
      <trkpt lat="43.7523" lon="5.95125">
        <ele>424.03</ele>
        <time>2013-11-11T12:08:27Z</time>
      </trkpt>
      <trkpt lat="43.7524" lon="5.95103">
        <ele>419.98</ele>
        <time>2013-11-11T12:14:29Z</time>
      </trkpt>
      <trkpt lat="43.7526" lon="5.951">
        <ele>420.42</ele>
        <time>2013-11-11T12:14:37Z</time>
      </trkpt>
      <trkpt lat="43.75278" lon="5.95095">
        <ele>421.34</ele>
        <time>2013-11-11T12:14:43Z</time>
      </trkpt>
      <trkpt lat="43.75297" lon="5.95089">
        <ele>421.72</ele>
        <time>2013-11-11T12:14:49Z</time>
      </trkpt>
      <trkpt lat="43.75315" lon="5.95086">
        <ele>422.25</ele>
        <time>2013-11-11T12:14:55Z</time>
      </trkpt>
      <trkpt lat="43.75333" lon="5.95086">
        <ele>422.8</ele>
        <time>2013-11-11T12:15:01Z</time>
      </trkpt>
      <trkpt lat="43.75353" lon="5.95087">
        <ele>422.63</ele>
        <time>2013-11-11T12:15:07Z</time>
      </trkpt>
      <trkpt lat="43.75372" lon="5.95089">
        <ele>423.04</ele>
        <time>2013-11-11T12:15:13Z</time>
      </trkpt>
      <trkpt lat="43.75391" lon="5.95088">
        <ele>423.29</ele>
        <time>2013-11-11T12:15:19Z</time>
      </trkpt>
      <trkpt lat="43.75404" lon="5.95067">
        <ele>425.47</ele>
        <time>2013-11-11T12:15:26Z</time>
      </trkpt>
      <trkpt lat="43.75402" lon="5.95041">
        <ele>427.13</ele>
        <time>2013-11-11T12:15:32Z</time>
      </trkpt>
      <trkpt lat="43.75393" lon="5.95016">
        <ele>427.91</ele>
        <time>2013-11-11T12:15:40Z</time>
      </trkpt>
      <trkpt lat="43.75388" lon="5.94989">
        <ele>428.12</ele>
        <time>2013-11-11T12:15:47Z</time>
      </trkpt>
      <trkpt lat="43.75381" lon="5.94963">
        <ele>428.04</ele>
        <time>2013-11-11T12:15:54Z</time>
      </trkpt>
      <trkpt lat="43.75367" lon="5.94944">
        <ele>429.08</ele>
        <time>2013-11-11T12:16:15Z</time>
      </trkpt>
      <trkpt lat="43.75348" lon="5.94941">
        <ele>424.14</ele>
        <time>2013-11-11T12:16:22Z</time>
      </trkpt>
      <trkpt lat="43.75338" lon="5.94962">
        <ele>418.44</ele>
        <time>2013-11-11T12:16:32Z</time>
      </trkpt>
      <trkpt lat="43.75339" lon="5.94992">
        <ele>416.52</ele>
        <time>2013-11-11T12:16:36Z</time>
      </trkpt>
      <trkpt lat="43.75319" lon="5.94988">
        <ele>412.24</ele>
        <time>2013-11-11T12:16:51Z</time>
      </trkpt>
      <trkpt lat="43.75301" lon="5.94976">
        <ele>409.45</ele>
        <time>2013-11-11T12:16:56Z</time>
      </trkpt>
      <trkpt lat="43.75278" lon="5.94969">
        <ele>407.17</ele>
        <time>2013-11-11T12:17:00Z</time>
      </trkpt>
      <trkpt lat="43.75259" lon="5.9496">
        <ele>402.55</ele>
        <time>2013-11-11T12:17:05Z</time>
      </trkpt>
      <trkpt lat="43.75243" lon="5.94948">
        <ele>397.27</ele>
        <time>2013-11-11T12:17:13Z</time>
      </trkpt>
      <trkpt lat="43.75226" lon="5.94935">
        <ele>393.64</ele>
        <time>2013-11-11T12:17:19Z</time>
      </trkpt>
      <trkpt lat="43.75216" lon="5.94911">
        <ele>393.37</ele>
        <time>2013-11-11T12:17:25Z</time>
      </trkpt>
      <trkpt lat="43.75214" lon="5.94886">
        <ele>392.42</ele>
        <time>2013-11-11T12:17:31Z</time>
      </trkpt>
      <trkpt lat="43.7522" lon="5.94862">
        <ele>389.07</ele>
        <time>2013-11-11T12:17:37Z</time>
      </trkpt>
      <trkpt lat="43.75228" lon="5.94836">
        <ele>391.53</ele>
        <time>2013-11-11T12:17:43Z</time>
      </trkpt>
      <trkpt lat="43.7523" lon="5.94809">
        <ele>392.76</ele>
        <time>2013-11-11T12:17:50Z</time>
      </trkpt>
      <trkpt lat="43.75235" lon="5.94785">
        <ele>394.63</ele>
        <time>2013-11-11T12:17:57Z</time>
      </trkpt>
      <trkpt lat="43.75232" lon="5.94755">
        <ele>392.85</ele>
        <time>2013-11-11T12:18:02Z</time>
      </trkpt>
      <trkpt lat="43.75221" lon="5.94729">
        <ele>392.98</ele>
        <time>2013-11-11T12:18:07Z</time>
      </trkpt>
      <trkpt lat="43.75206" lon="5.94712">
        <ele>391.52</ele>
        <time>2013-11-11T12:18:12Z</time>
      </trkpt>
      <trkpt lat="43.75201" lon="5.94686">
        <ele>389.87</ele>
        <time>2013-11-11T12:18:18Z</time>
      </trkpt>
      <trkpt lat="43.752" lon="5.94657">
        <ele>389.57</ele>
        <time>2013-11-11T12:18:24Z</time>
      </trkpt>
      <trkpt lat="43.75199" lon="5.94629">
        <ele>389.75</ele>
        <time>2013-11-11T12:18:30Z</time>
      </trkpt>
      <trkpt lat="43.75194" lon="5.94604">
        <ele>390.35</ele>
        <time>2013-11-11T12:18:35Z</time>
      </trkpt>
      <trkpt lat="43.75186" lon="5.94577">
        <ele>390.74</ele>
        <time>2013-11-11T12:18:39Z</time>
      </trkpt>
      <trkpt lat="43.75182" lon="5.94551">
        <ele>389.07</ele>
        <time>2013-11-11T12:18:43Z</time>
      </trkpt>
      <trkpt lat="43.75181" lon="5.94526">
        <ele>388.06</ele>
        <time>2013-11-11T12:18:47Z</time>
      </trkpt>
      <trkpt lat="43.75177" lon="5.94496">
        <ele>389.26</ele>
        <time>2013-11-11T12:18:52Z</time>
      </trkpt>
      <trkpt lat="43.75182" lon="5.94471">
        <ele>390.85</ele>
        <time>2013-11-11T12:19:00Z</time>
      </trkpt>
      <trkpt lat="43.75184" lon="5.94441">
        <ele>388.49</ele>
        <time>2013-11-11T12:19:07Z</time>
      </trkpt>
      <trkpt lat="43.75189" lon="5.94415">
        <ele>387.72</ele>
        <time>2013-11-11T12:19:14Z</time>
      </trkpt>
      <trkpt lat="43.75189" lon="5.94388">
        <ele>385.92</ele>
        <time>2013-11-11T12:19:21Z</time>
      </trkpt>
      <trkpt lat="43.75174" lon="5.94373">
        <ele>382.15</ele>
        <time>2013-11-11T12:19:35Z</time>
      </trkpt>
      <trkpt lat="43.75193" lon="5.94362">
        <ele>378.8</ele>
        <time>2013-11-11T12:19:53Z</time>
      </trkpt>
      <trkpt lat="43.75211" lon="5.94351">
        <ele>375.86</ele>
        <time>2013-11-11T12:20:04Z</time>
      </trkpt>
      <trkpt lat="43.7523" lon="5.94353">
        <ele>374.73</ele>
        <time>2013-11-11T12:20:12Z</time>
      </trkpt>
      <trkpt lat="43.75242" lon="5.94373">
        <ele>374.24</ele>
        <time>2013-11-11T12:20:20Z</time>
      </trkpt>
      <trkpt lat="43.7525" lon="5.94397">
        <ele>375.02</ele>
        <time>2013-11-11T12:20:31Z</time>
      </trkpt>
      <trkpt lat="43.75262" lon="5.94416">
        <ele>375.54</ele>
        <time>2013-11-11T12:20:37Z</time>
      </trkpt>
      <trkpt lat="43.75275" lon="5.94436">
        <ele>376.06</ele>
        <time>2013-11-11T12:20:44Z</time>
      </trkpt>
      <trkpt lat="43.75292" lon="5.94453">
        <ele>375.49</ele>
        <time>2013-11-11T12:20:51Z</time>
      </trkpt>
      <trkpt lat="43.75304" lon="5.94472">
        <ele>375.42</ele>
        <time>2013-11-11T12:20:56Z</time>
      </trkpt>
      <trkpt lat="43.75319" lon="5.94487">
        <ele>374.31</ele>
        <time>2013-11-11T12:21:01Z</time>
      </trkpt>
      <trkpt lat="43.75334" lon="5.94503">
        <ele>373.2</ele>
        <time>2013-11-11T12:21:06Z</time>
      </trkpt>
      <trkpt lat="43.7535" lon="5.94521">
        <ele>372.86</ele>
        <time>2013-11-11T12:21:11Z</time>
      </trkpt>
      <trkpt lat="43.75366" lon="5.94535">
        <ele>371.85</ele>
        <time>2013-11-11T12:21:16Z</time>
      </trkpt>
      <trkpt lat="43.75382" lon="5.94547">
        <ele>370.39</ele>
        <time>2013-11-11T12:21:23Z</time>
      </trkpt>
      <trkpt lat="43.75399" lon="5.94555">
        <ele>369.9</ele>
        <time>2013-11-11T12:21:30Z</time>
      </trkpt>
      <trkpt lat="43.75418" lon="5.94559">
        <ele>370.12</ele>
        <time>2013-11-11T12:21:39Z</time>
      </trkpt>
      <trkpt lat="43.75437" lon="5.94559">
        <ele>370.96</ele>
        <time>2013-11-11T12:22:04Z</time>
      </trkpt>
      <trkpt lat="43.75455" lon="5.94552">
        <ele>371.5</ele>
        <time>2013-11-11T12:22:18Z</time>
      </trkpt>
      <trkpt lat="43.7547" lon="5.94538">
        <ele>370.14</ele>
        <time>2013-11-11T12:22:25Z</time>
      </trkpt>
      <trkpt lat="43.75487" lon="5.94527">
        <ele>369.51</ele>
        <time>2013-11-11T12:22:31Z</time>
      </trkpt>
      <trkpt lat="43.75506" lon="5.94527">
        <ele>368.12</ele>
        <time>2013-11-11T12:22:38Z</time>
      </trkpt>
      <trkpt lat="43.75527" lon="5.94532">
        <ele>365.47</ele>
        <time>2013-11-11T12:22:45Z</time>
      </trkpt>
      <trkpt lat="43.75546" lon="5.94541">
        <ele>363.84</ele>
        <time>2013-11-11T12:22:49Z</time>
      </trkpt>
      <trkpt lat="43.75555" lon="5.94563">
        <ele>366.56</ele>
        <time>2013-11-11T12:23:02Z</time>
      </trkpt>
      <trkpt lat="43.75571" lon="5.94579">
        <ele>368.36</ele>
        <time>2013-11-11T12:23:10Z</time>
      </trkpt>
      <trkpt lat="43.75588" lon="5.94589">
        <ele>367.95</ele>
        <time>2013-11-11T12:23:15Z</time>
      </trkpt>
      <trkpt lat="43.75598" lon="5.94613">
        <ele>370.55</ele>
        <time>2013-11-11T12:23:23Z</time>
      </trkpt>
      <trkpt lat="43.75613" lon="5.94627">
        <ele>368.64</ele>
        <time>2013-11-11T12:23:29Z</time>
      </trkpt>
      <trkpt lat="43.75618" lon="5.94652">
        <ele>369.62</ele>
        <time>2013-11-11T12:23:36Z</time>
      </trkpt>
      <trkpt lat="43.75624" lon="5.94675">
        <ele>368.88</ele>
        <time>2013-11-11T12:23:47Z</time>
      </trkpt>
      <trkpt lat="43.7564" lon="5.94693">
        <ele>370.55</ele>
        <time>2013-11-11T12:23:56Z</time>
      </trkpt>
      <trkpt lat="43.75656" lon="5.94706">
        <ele>369.23</ele>
        <time>2013-11-11T12:24:02Z</time>
      </trkpt>
      <trkpt lat="43.75673" lon="5.94718">
        <ele>368.38</ele>
        <time>2013-11-11T12:24:07Z</time>
      </trkpt>
      <trkpt lat="43.75684" lon="5.94738">
        <ele>368.1</ele>
        <time>2013-11-11T12:24:13Z</time>
      </trkpt>
      <trkpt lat="43.75691" lon="5.94764">
        <ele>371.22</ele>
        <time>2013-11-11T12:24:21Z</time>
      </trkpt>
      <trkpt lat="43.75699" lon="5.94788">
        <ele>376.99</ele>
        <time>2013-11-11T12:24:33Z</time>
      </trkpt>
      <trkpt lat="43.75707" lon="5.94811">
        <ele>379.22</ele>
        <time>2013-11-11T12:24:43Z</time>
      </trkpt>
      <trkpt lat="43.7571" lon="5.94837">
        <ele>383.41</ele>
        <time>2013-11-11T12:24:56Z</time>
      </trkpt>
      <trkpt lat="43.75718" lon="5.94859">
        <ele>384.3</ele>
        <time>2013-11-11T12:25:09Z</time>
      </trkpt>
      <trkpt lat="43.75725" lon="5.94884">
        <ele>388.44</ele>
        <time>2013-11-11T12:25:21Z</time>
      </trkpt>
      <trkpt lat="43.75735" lon="5.94905">
        <ele>388.18</ele>
        <time>2013-11-11T12:25:30Z</time>
      </trkpt>
      <trkpt lat="43.75749" lon="5.94927">
        <ele>387.78</ele>
        <time>2013-11-11T12:25:36Z</time>
      </trkpt>
      <trkpt lat="43.75766" lon="5.94941">
        <ele>387.62</ele>
        <time>2013-11-11T12:25:42Z</time>
      </trkpt>
      <trkpt lat="43.75779" lon="5.94961">
        <ele>387.65</ele>
        <time>2013-11-11T12:25:49Z</time>
      </trkpt>
      <trkpt lat="43.75795" lon="5.94973">
        <ele>385.6</ele>
        <time>2013-11-11T12:25:57Z</time>
      </trkpt>
      <trkpt lat="43.7581" lon="5.94991">
        <ele>384.61</ele>
        <time>2013-11-11T12:26:03Z</time>
      </trkpt>
      <trkpt lat="43.75824" lon="5.95014">
        <ele>384.18</ele>
        <time>2013-11-11T12:26:10Z</time>
      </trkpt>
      <trkpt lat="43.75835" lon="5.95035">
        <ele>384.04</ele>
        <time>2013-11-11T12:26:15Z</time>
      </trkpt>
      <trkpt lat="43.7585" lon="5.95021">
        <ele>383.27</ele>
        <time>2013-11-11T12:26:35Z</time>
      </trkpt>
      <trkpt lat="43.75856" lon="5.94996">
        <ele>384.36</ele>
        <time>2013-11-11T12:26:48Z</time>
      </trkpt>
      <trkpt lat="43.75861" lon="5.94972">
        <ele>389.07</ele>
        <time>2013-11-11T12:27:36Z</time>
      </trkpt>
      <trkpt lat="43.75859" lon="5.94947">
        <ele>389.23</ele>
        <time>2013-11-11T12:27:54Z</time>
      </trkpt>
      <trkpt lat="43.75857" lon="5.9492">
        <ele>392.84</ele>
        <time>2013-11-11T12:28:05Z</time>
      </trkpt>
      <trkpt lat="43.75845" lon="5.949">
        <ele>395.84</ele>
        <time>2013-11-11T12:28:16Z</time>
      </trkpt>
      <trkpt lat="43.75828" lon="5.94888">
        <ele>399.9</ele>
        <time>2013-11-11T12:28:28Z</time>
      </trkpt>
      <trkpt lat="43.75818" lon="5.94865">
        <ele>402.21</ele>
        <time>2013-11-11T12:28:58Z</time>
      </trkpt>
      <trkpt lat="43.75805" lon="5.94849">
        <ele>404.16</ele>
        <time>2013-11-11T12:29:06Z</time>
      </trkpt>
      <trkpt lat="43.75797" lon="5.94824">
        <ele>407.13</ele>
        <time>2013-11-11T12:29:14Z</time>
      </trkpt>
      <trkpt lat="43.75791" lon="5.94798">
        <ele>407.48</ele>
        <time>2013-11-11T12:29:22Z</time>
      </trkpt>
      <trkpt lat="43.75784" lon="5.94775">
        <ele>407.63</ele>
        <time>2013-11-11T12:29:29Z</time>
      </trkpt>
      <trkpt lat="43.75772" lon="5.94755">
        <ele>407.77</ele>
        <time>2013-11-11T12:29:38Z</time>
      </trkpt>
      <trkpt lat="43.75766" lon="5.94732">
        <ele>406.59</ele>
        <time>2013-11-11T12:29:47Z</time>
      </trkpt>
      <trkpt lat="43.75758" lon="5.94708">
        <ele>407.85</ele>
        <time>2013-11-11T12:29:56Z</time>
      </trkpt>
      <trkpt lat="43.75755" lon="5.94682">
        <ele>408.56</ele>
        <time>2013-11-11T12:30:05Z</time>
      </trkpt>
      <trkpt lat="43.7576" lon="5.94658">
        <ele>408.31</ele>
        <time>2013-11-11T12:30:13Z</time>
      </trkpt>
      <trkpt lat="43.75772" lon="5.94635">
        <ele>407.74</ele>
        <time>2013-11-11T12:30:22Z</time>
      </trkpt>
      <trkpt lat="43.75767" lon="5.9461">
        <ele>411.81</ele>
        <time>2013-11-11T12:30:30Z</time>
      </trkpt>
      <trkpt lat="43.75753" lon="5.94593">
        <ele>418.2</ele>
        <time>2013-11-11T12:30:39Z</time>
      </trkpt>
      <trkpt lat="43.75735" lon="5.94582">
        <ele>418.51</ele>
        <time>2013-11-11T12:30:48Z</time>
      </trkpt>
      <trkpt lat="43.75719" lon="5.94569">
        <ele>416.38</ele>
        <time>2013-11-11T12:30:53Z</time>
      </trkpt>
      <trkpt lat="43.7572" lon="5.94544">
        <ele>420.6</ele>
        <time>2013-11-11T12:31:02Z</time>
      </trkpt>
      <trkpt lat="43.75713" lon="5.94518">
        <ele>422.64</ele>
        <time>2013-11-11T12:31:10Z</time>
      </trkpt>
      <trkpt lat="43.75709" lon="5.94491">
        <ele>424.71</ele>
        <time>2013-11-11T12:31:18Z</time>
      </trkpt>
      <trkpt lat="43.75712" lon="5.94465">
        <ele>420.67</ele>
        <time>2013-11-11T12:31:26Z</time>
      </trkpt>
      <trkpt lat="43.75719" lon="5.94442">
        <ele>421.37</ele>
        <time>2013-11-11T12:31:36Z</time>
      </trkpt>
      <trkpt lat="43.75727" lon="5.94416">
        <ele>418.65</ele>
        <time>2013-11-11T12:31:44Z</time>
      </trkpt>
      <trkpt lat="43.75718" lon="5.94394">
        <ele>422.25</ele>
        <time>2013-11-11T12:31:56Z</time>
      </trkpt>
      <trkpt lat="43.757" lon="5.94394">
        <ele>420.05</ele>
        <time>2013-11-11T12:32:03Z</time>
      </trkpt>
      <trkpt lat="43.75683" lon="5.94382">
        <ele>422.6</ele>
        <time>2013-11-11T12:32:14Z</time>
      </trkpt>
      <trkpt lat="43.75666" lon="5.94371">
        <ele>425.68</ele>
        <time>2013-11-11T12:32:21Z</time>
      </trkpt>
      <trkpt lat="43.75645" lon="5.94363">
        <ele>426.1</ele>
        <time>2013-11-11T12:32:27Z</time>
      </trkpt>
      <trkpt lat="43.75629" lon="5.94348">
        <ele>425.78</ele>
        <time>2013-11-11T12:32:33Z</time>
      </trkpt>
      <trkpt lat="43.75628" lon="5.94319">
        <ele>424.83</ele>
        <time>2013-11-11T12:32:41Z</time>
      </trkpt>
      <trkpt lat="43.75629" lon="5.94293">
        <ele>424</ele>
        <time>2013-11-11T12:32:47Z</time>
      </trkpt>
      <trkpt lat="43.75618" lon="5.94272">
        <ele>424.37</ele>
        <time>2013-11-11T12:32:53Z</time>
      </trkpt>
      <trkpt lat="43.75603" lon="5.94259">
        <ele>425.63</ele>
        <time>2013-11-11T12:33:00Z</time>
      </trkpt>
      <trkpt lat="43.75588" lon="5.94243">
        <ele>427.09</ele>
        <time>2013-11-11T12:33:35Z</time>
      </trkpt>
      <trkpt lat="43.75575" lon="5.94226">
        <ele>427.5</ele>
        <time>2013-11-11T12:34:17Z</time>
      </trkpt>
      <trkpt lat="43.75569" lon="5.94199">
        <ele>427.86</ele>
        <time>2013-11-11T12:34:26Z</time>
      </trkpt>
      <trkpt lat="43.75569" lon="5.94173">
        <ele>426.64</ele>
        <time>2013-11-11T12:34:31Z</time>
      </trkpt>
      <trkpt lat="43.75555" lon="5.94152">
        <ele>427.82</ele>
        <time>2013-11-11T12:34:38Z</time>
      </trkpt>
      <trkpt lat="43.75539" lon="5.9414">
        <ele>430.61</ele>
        <time>2013-11-11T12:34:45Z</time>
      </trkpt>
      <trkpt lat="43.75543" lon="5.94116">
        <ele>436.9</ele>
        <time>2013-11-11T12:35:25Z</time>
      </trkpt>
      <trkpt lat="43.7553" lon="5.94098">
        <ele>436.22</ele>
        <time>2013-11-11T12:35:40Z</time>
      </trkpt>
      <trkpt lat="43.75512" lon="5.94098">
        <ele>437.48</ele>
        <time>2013-11-11T12:35:46Z</time>
      </trkpt>
      <trkpt lat="43.75495" lon="5.94109">
        <ele>437.82</ele>
        <time>2013-11-11T12:35:51Z</time>
      </trkpt>
      <trkpt lat="43.75476" lon="5.94117">
        <ele>436.63</ele>
        <time>2013-11-11T12:35:56Z</time>
      </trkpt>
      <trkpt lat="43.75454" lon="5.94104">
        <ele>436.27</ele>
        <time>2013-11-11T12:36:01Z</time>
      </trkpt>
      <trkpt lat="43.75444" lon="5.94081">
        <ele>437.47</ele>
        <time>2013-11-11T12:36:05Z</time>
      </trkpt>
      <trkpt lat="43.75433" lon="5.94058">
        <ele>436.9</ele>
        <time>2013-11-11T12:36:09Z</time>
      </trkpt>
      <trkpt lat="43.75422" lon="5.94033">
        <ele>436.41</ele>
        <time>2013-11-11T12:36:13Z</time>
      </trkpt>
      <trkpt lat="43.75409" lon="5.94011">
        <ele>436.05</ele>
        <time>2013-11-11T12:36:17Z</time>
      </trkpt>
      <trkpt lat="43.75391" lon="5.93994">
        <ele>436.21</ele>
        <time>2013-11-11T12:36:21Z</time>
      </trkpt>
      <trkpt lat="43.75372" lon="5.93982">
        <ele>438.35</ele>
        <time>2013-11-11T12:36:25Z</time>
      </trkpt>
      <trkpt lat="43.75355" lon="5.93966">
        <ele>438.25</ele>
        <time>2013-11-11T12:36:29Z</time>
      </trkpt>
      <trkpt lat="43.75343" lon="5.93946">
        <ele>437.95</ele>
        <time>2013-11-11T12:36:33Z</time>
      </trkpt>
      <trkpt lat="43.7534" lon="5.93919">
        <ele>439.45</ele>
        <time>2013-11-11T12:36:37Z</time>
      </trkpt>
      <trkpt lat="43.75342" lon="5.9389">
        <ele>439.56</ele>
        <time>2013-11-11T12:36:41Z</time>
      </trkpt>
      <trkpt lat="43.75351" lon="5.93866">
        <ele>439.69</ele>
        <time>2013-11-11T12:36:45Z</time>
      </trkpt>
      <trkpt lat="43.75366" lon="5.93849">
        <ele>439.9</ele>
        <time>2013-11-11T12:36:49Z</time>
      </trkpt>
      <trkpt lat="43.75386" lon="5.93841">
        <ele>439.59</ele>
        <time>2013-11-11T12:36:53Z</time>
      </trkpt>
      <trkpt lat="43.75406" lon="5.93838">
        <ele>438.9</ele>
        <time>2013-11-11T12:36:57Z</time>
      </trkpt>
      <trkpt lat="43.75427" lon="5.93835">
        <ele>438</ele>
        <time>2013-11-11T12:37:01Z</time>
      </trkpt>
      <trkpt lat="43.75446" lon="5.93832">
        <ele>437.79</ele>
        <time>2013-11-11T12:37:04Z</time>
      </trkpt>
      <trkpt lat="43.75465" lon="5.93827">
        <ele>437.94</ele>
        <time>2013-11-11T12:37:07Z</time>
      </trkpt>
      <trkpt lat="43.75484" lon="5.93819">
        <ele>437.97</ele>
        <time>2013-11-11T12:37:10Z</time>
      </trkpt>
      <trkpt lat="43.75498" lon="5.93799">
        <ele>438.1</ele>
        <time>2013-11-11T12:37:13Z</time>
      </trkpt>
      <trkpt lat="43.75504" lon="5.93775">
        <ele>438.8</ele>
        <time>2013-11-11T12:37:16Z</time>
      </trkpt>
      <trkpt lat="43.75508" lon="5.9375">
        <ele>439.19</ele>
        <time>2013-11-11T12:37:19Z</time>
      </trkpt>
      <trkpt lat="43.75511" lon="5.93725">
        <ele>438.86</ele>
        <time>2013-11-11T12:37:22Z</time>
      </trkpt>
      <trkpt lat="43.75512" lon="5.93692">
        <ele>440.17</ele>
        <time>2013-11-11T12:37:26Z</time>
      </trkpt>
      <trkpt lat="43.75505" lon="5.93668">
        <ele>441.17</ele>
        <time>2013-11-11T12:37:29Z</time>
      </trkpt>
      <trkpt lat="43.75491" lon="5.9365">
        <ele>441.73</ele>
        <time>2013-11-11T12:37:32Z</time>
      </trkpt>
      <trkpt lat="43.75478" lon="5.93631">
        <ele>442.63</ele>
        <time>2013-11-11T12:37:35Z</time>
      </trkpt>
      <trkpt lat="43.75464" lon="5.93614">
        <ele>442.27</ele>
        <time>2013-11-11T12:37:38Z</time>
      </trkpt>
      <trkpt lat="43.7545" lon="5.93597">
        <ele>442.23</ele>
        <time>2013-11-11T12:37:41Z</time>
      </trkpt>
      <trkpt lat="43.75437" lon="5.93577">
        <ele>443.34</ele>
        <time>2013-11-11T12:37:44Z</time>
      </trkpt>
      <trkpt lat="43.75429" lon="5.93553">
        <ele>442.04</ele>
        <time>2013-11-11T12:37:47Z</time>
      </trkpt>
      <trkpt lat="43.75429" lon="5.93527">
        <ele>441.35</ele>
        <time>2013-11-11T12:37:50Z</time>
      </trkpt>
      <trkpt lat="43.7543" lon="5.935">
        <ele>441.03</ele>
        <time>2013-11-11T12:37:53Z</time>
      </trkpt>
      <trkpt lat="43.75431" lon="5.93473">
        <ele>441.89</ele>
        <time>2013-11-11T12:37:56Z</time>
      </trkpt>
      <trkpt lat="43.75433" lon="5.93445">
        <ele>441.91</ele>
        <time>2013-11-11T12:37:59Z</time>
      </trkpt>
      <trkpt lat="43.75439" lon="5.93418">
        <ele>441.6</ele>
        <time>2013-11-11T12:38:02Z</time>
      </trkpt>
      <trkpt lat="43.75453" lon="5.93398">
        <ele>441.3</ele>
        <time>2013-11-11T12:38:05Z</time>
      </trkpt>
      <trkpt lat="43.75471" lon="5.9338">
        <ele>439.61</ele>
        <time>2013-11-11T12:38:08Z</time>
      </trkpt>
      <trkpt lat="43.75486" lon="5.93362">
        <ele>440.13</ele>
        <time>2013-11-11T12:38:11Z</time>
      </trkpt>
      <trkpt lat="43.75483" lon="5.93335">
        <ele>440.47</ele>
        <time>2013-11-11T12:38:15Z</time>
      </trkpt>
      <trkpt lat="43.75472" lon="5.93315">
        <ele>440.33</ele>
        <time>2013-11-11T12:38:19Z</time>
      </trkpt>
      <trkpt lat="43.75458" lon="5.93292">
        <ele>441.11</ele>
        <time>2013-11-11T12:38:24Z</time>
      </trkpt>
      <trkpt lat="43.75447" lon="5.93272">
        <ele>440.77</ele>
        <time>2013-11-11T12:38:29Z</time>
      </trkpt>
      <trkpt lat="43.75433" lon="5.93252">
        <ele>440.46</ele>
        <time>2013-11-11T12:38:35Z</time>
      </trkpt>
      <trkpt lat="43.75421" lon="5.93229">
        <ele>440.35</ele>
        <time>2013-11-11T12:38:41Z</time>
      </trkpt>
      <trkpt lat="43.75417" lon="5.93204">
        <ele>442.93</ele>
        <time>2013-11-11T12:38:47Z</time>
      </trkpt>
      <trkpt lat="43.75427" lon="5.93183">
        <ele>441.63</ele>
        <time>2013-11-11T12:38:53Z</time>
      </trkpt>
      <trkpt lat="43.75444" lon="5.93163">
        <ele>440.74</ele>
        <time>2013-11-11T12:38:59Z</time>
      </trkpt>
      <trkpt lat="43.75465" lon="5.93152">
        <ele>441.67</ele>
        <time>2013-11-11T12:39:03Z</time>
      </trkpt>
      <trkpt lat="43.75485" lon="5.93138">
        <ele>441.55</ele>
        <time>2013-11-11T12:39:07Z</time>
      </trkpt>
      <trkpt lat="43.75503" lon="5.93122">
        <ele>441.09</ele>
        <time>2013-11-11T12:39:11Z</time>
      </trkpt>
      <trkpt lat="43.75516" lon="5.931">
        <ele>441.06</ele>
        <time>2013-11-11T12:39:15Z</time>
      </trkpt>
      <trkpt lat="43.75525" lon="5.93075">
        <ele>441.89</ele>
        <time>2013-11-11T12:39:19Z</time>
      </trkpt>
      <trkpt lat="43.75538" lon="5.93049">
        <ele>441.36</ele>
        <time>2013-11-11T12:39:24Z</time>
      </trkpt>
      <trkpt lat="43.75552" lon="5.93031">
        <ele>441.82</ele>
        <time>2013-11-11T12:39:28Z</time>
      </trkpt>
      <trkpt lat="43.75565" lon="5.93011">
        <ele>441.68</ele>
        <time>2013-11-11T12:39:32Z</time>
      </trkpt>
      <trkpt lat="43.75579" lon="5.92992">
        <ele>441.42</ele>
        <time>2013-11-11T12:39:36Z</time>
      </trkpt>
      <trkpt lat="43.75599" lon="5.92984">
        <ele>441.88</ele>
        <time>2013-11-11T12:39:40Z</time>
      </trkpt>
      <trkpt lat="43.75619" lon="5.92992">
        <ele>438.31</ele>
        <time>2013-11-11T12:39:44Z</time>
      </trkpt>
      <trkpt lat="43.75634" lon="5.93008">
        <ele>437.51</ele>
        <time>2013-11-11T12:39:47Z</time>
      </trkpt>
      <trkpt lat="43.75647" lon="5.93025">
        <ele>436.59</ele>
        <time>2013-11-11T12:39:50Z</time>
      </trkpt>
      <trkpt lat="43.75667" lon="5.93035">
        <ele>435.41</ele>
        <time>2013-11-11T12:39:53Z</time>
      </trkpt>
      <trkpt lat="43.7569" lon="5.9304">
        <ele>433.29</ele>
        <time>2013-11-11T12:39:56Z</time>
      </trkpt>
      <trkpt lat="43.75712" lon="5.9304">
        <ele>430.66</ele>
        <time>2013-11-11T12:39:59Z</time>
      </trkpt>
      <trkpt lat="43.75734" lon="5.93032">
        <ele>428.69</ele>
        <time>2013-11-11T12:40:02Z</time>
      </trkpt>
      <trkpt lat="43.75744" lon="5.93007">
        <ele>428.39</ele>
        <time>2013-11-11T12:40:05Z</time>
      </trkpt>
      <trkpt lat="43.75757" lon="5.92981">
        <ele>428.98</ele>
        <time>2013-11-11T12:40:09Z</time>
      </trkpt>
      <trkpt lat="43.75773" lon="5.92969">
        <ele>428.21</ele>
        <time>2013-11-11T12:40:12Z</time>
      </trkpt>
      <trkpt lat="43.75795" lon="5.92952">
        <ele>426.24</ele>
        <time>2013-11-11T12:40:15Z</time>
      </trkpt>
      <trkpt lat="43.75816" lon="5.92936">
        <ele>425.07</ele>
        <time>2013-11-11T12:40:18Z</time>
      </trkpt>
      <trkpt lat="43.75833" lon="5.92918">
        <ele>423.68</ele>
        <time>2013-11-11T12:40:21Z</time>
      </trkpt>
      <trkpt lat="43.75839" lon="5.92893">
        <ele>423.97</ele>
        <time>2013-11-11T12:40:24Z</time>
      </trkpt>
      <trkpt lat="43.75843" lon="5.92867">
        <ele>423.16</ele>
        <time>2013-11-11T12:40:27Z</time>
      </trkpt>
      <trkpt lat="43.75842" lon="5.92842">
        <ele>424.72</ele>
        <time>2013-11-11T12:40:30Z</time>
      </trkpt>
      <trkpt lat="43.75845" lon="5.92813">
        <ele>426.16</ele>
        <time>2013-11-11T12:40:34Z</time>
      </trkpt>
      <trkpt lat="43.75853" lon="5.9279">
        <ele>428.52</ele>
        <time>2013-11-11T12:40:38Z</time>
      </trkpt>
      <trkpt lat="43.75861" lon="5.92764">
        <ele>428.03</ele>
        <time>2013-11-11T12:40:42Z</time>
      </trkpt>
      <trkpt lat="43.75869" lon="5.92735">
        <ele>426.66</ele>
        <time>2013-11-11T12:40:46Z</time>
      </trkpt>
      <trkpt lat="43.75873" lon="5.92708">
        <ele>423.97</ele>
        <time>2013-11-11T12:40:49Z</time>
      </trkpt>
      <trkpt lat="43.7587" lon="5.92678">
        <ele>421.15</ele>
        <time>2013-11-11T12:40:52Z</time>
      </trkpt>
      <trkpt lat="43.75869" lon="5.92653">
        <ele>419.66</ele>
        <time>2013-11-11T12:40:56Z</time>
      </trkpt>
      <trkpt lat="43.75892" lon="5.9266">
        <ele>415.49</ele>
        <time>2013-11-11T12:41:09Z</time>
      </trkpt>
      <trkpt lat="43.75906" lon="5.92677">
        <ele>414.32</ele>
        <time>2013-11-11T12:41:12Z</time>
      </trkpt>
      <trkpt lat="43.7592" lon="5.92695">
        <ele>413.15</ele>
        <time>2013-11-11T12:41:15Z</time>
      </trkpt>
      <trkpt lat="43.75933" lon="5.92711">
        <ele>411.48</ele>
        <time>2013-11-11T12:41:18Z</time>
      </trkpt>
      <trkpt lat="43.75939" lon="5.92737">
        <ele>410.43</ele>
        <time>2013-11-11T12:41:21Z</time>
      </trkpt>
      <trkpt lat="43.75943" lon="5.92766">
        <ele>411.5</ele>
        <time>2013-11-11T12:41:25Z</time>
      </trkpt>
      <trkpt lat="43.75946" lon="5.92793">
        <ele>409.02</ele>
        <time>2013-11-11T12:41:29Z</time>
      </trkpt>
      <trkpt lat="43.75948" lon="5.92822">
        <ele>407.72</ele>
        <time>2013-11-11T12:41:33Z</time>
      </trkpt>
      <trkpt lat="43.75952" lon="5.92848">
        <ele>406.8</ele>
        <time>2013-11-11T12:41:36Z</time>
      </trkpt>
      <trkpt lat="43.75955" lon="5.92874">
        <ele>406.3</ele>
        <time>2013-11-11T12:41:39Z</time>
      </trkpt>
      <trkpt lat="43.75957" lon="5.92899">
        <ele>405.89</ele>
        <time>2013-11-11T12:41:42Z</time>
      </trkpt>
      <trkpt lat="43.75944" lon="5.92919">
        <ele>404.64</ele>
        <time>2013-11-11T12:41:46Z</time>
      </trkpt>
      <trkpt lat="43.75925" lon="5.92938">
        <ele>403.8</ele>
        <time>2013-11-11T12:41:50Z</time>
      </trkpt>
      <trkpt lat="43.75909" lon="5.92951">
        <ele>403.9</ele>
        <time>2013-11-11T12:41:53Z</time>
      </trkpt>
      <trkpt lat="43.75893" lon="5.92965">
        <ele>405.16</ele>
        <time>2013-11-11T12:41:57Z</time>
      </trkpt>
      <trkpt lat="43.75886" lon="5.92988">
        <ele>406.25</ele>
        <time>2013-11-11T12:42:01Z</time>
      </trkpt>
      <trkpt lat="43.7589" lon="5.93014">
        <ele>407.7</ele>
        <time>2013-11-11T12:42:05Z</time>
      </trkpt>
      <trkpt lat="43.75911" lon="5.93025">
        <ele>413.86</ele>
        <time>2013-11-11T12:42:10Z</time>
      </trkpt>
      <trkpt lat="43.75928" lon="5.93039">
        <ele>414.05</ele>
        <time>2013-11-11T12:42:15Z</time>
      </trkpt>
      <trkpt lat="43.75943" lon="5.93058">
        <ele>413.55</ele>
        <time>2013-11-11T12:42:20Z</time>
      </trkpt>
      <trkpt lat="43.75947" lon="5.93089">
        <ele>411.46</ele>
        <time>2013-11-11T12:42:25Z</time>
      </trkpt>
      <trkpt lat="43.75944" lon="5.93115">
        <ele>408.29</ele>
        <time>2013-11-11T12:42:29Z</time>
      </trkpt>
      <trkpt lat="43.75945" lon="5.93141">
        <ele>407.2</ele>
        <time>2013-11-11T12:42:32Z</time>
      </trkpt>
      <trkpt lat="43.75948" lon="5.93168">
        <ele>405.72</ele>
        <time>2013-11-11T12:42:35Z</time>
      </trkpt>
      <trkpt lat="43.7596" lon="5.93192">
        <ele>405.9</ele>
        <time>2013-11-11T12:42:38Z</time>
      </trkpt>
      <trkpt lat="43.75978" lon="5.93177">
        <ele>405.27</ele>
        <time>2013-11-11T12:42:42Z</time>
      </trkpt>
      <trkpt lat="43.75995" lon="5.93159">
        <ele>405.96</ele>
        <time>2013-11-11T12:42:46Z</time>
      </trkpt>
      <trkpt lat="43.76017" lon="5.93147">
        <ele>404.69</ele>
        <time>2013-11-11T12:42:50Z</time>
      </trkpt>
      <trkpt lat="43.76039" lon="5.93138">
        <ele>402.71</ele>
        <time>2013-11-11T12:42:54Z</time>
      </trkpt>
      <trkpt lat="43.76059" lon="5.93142">
        <ele>402.86</ele>
        <time>2013-11-11T12:42:57Z</time>
      </trkpt>
      <trkpt lat="43.76078" lon="5.93151">
        <ele>401.89</ele>
        <time>2013-11-11T12:43:00Z</time>
      </trkpt>
      <trkpt lat="43.76098" lon="5.93157">
        <ele>400.71</ele>
        <time>2013-11-11T12:43:03Z</time>
      </trkpt>
      <trkpt lat="43.76117" lon="5.93169">
        <ele>399.73</ele>
        <time>2013-11-11T12:43:06Z</time>
      </trkpt>
      <trkpt lat="43.76131" lon="5.93185">
        <ele>399.2</ele>
        <time>2013-11-11T12:43:09Z</time>
      </trkpt>
      <trkpt lat="43.76147" lon="5.93211">
        <ele>398.37</ele>
        <time>2013-11-11T12:43:13Z</time>
      </trkpt>
      <trkpt lat="43.76161" lon="5.93228">
        <ele>396.71</ele>
        <time>2013-11-11T12:43:16Z</time>
      </trkpt>
      <trkpt lat="43.7617" lon="5.93253">
        <ele>395.54</ele>
        <time>2013-11-11T12:43:19Z</time>
      </trkpt>
      <trkpt lat="43.76171" lon="5.9328">
        <ele>394.74</ele>
        <time>2013-11-11T12:43:22Z</time>
      </trkpt>
      <trkpt lat="43.76171" lon="5.93306">
        <ele>395.15</ele>
        <time>2013-11-11T12:43:25Z</time>
      </trkpt>
      <trkpt lat="43.76177" lon="5.93338">
        <ele>394.69</ele>
        <time>2013-11-11T12:43:29Z</time>
      </trkpt>
      <trkpt lat="43.76183" lon="5.93369">
        <ele>395.79</ele>
        <time>2013-11-11T12:43:33Z</time>
      </trkpt>
      <trkpt lat="43.76188" lon="5.934">
        <ele>393.66</ele>
        <time>2013-11-11T12:43:37Z</time>
      </trkpt>
      <trkpt lat="43.76184" lon="5.93425">
        <ele>391.91</ele>
        <time>2013-11-11T12:43:40Z</time>
      </trkpt>
      <trkpt lat="43.76187" lon="5.93451">
        <ele>393.11</ele>
        <time>2013-11-11T12:43:43Z</time>
      </trkpt>
      <trkpt lat="43.76188" lon="5.93481">
        <ele>391.54</ele>
        <time>2013-11-11T12:43:46Z</time>
      </trkpt>
      <trkpt lat="43.76197" lon="5.93512">
        <ele>389.09</ele>
        <time>2013-11-11T12:43:49Z</time>
      </trkpt>
      <trkpt lat="43.76221" lon="5.93524">
        <ele>387.71</ele>
        <time>2013-11-11T12:43:52Z</time>
      </trkpt>
      <trkpt lat="43.76228" lon="5.9355">
        <ele>387.28</ele>
        <time>2013-11-11T12:43:56Z</time>
      </trkpt>
      <trkpt lat="43.76216" lon="5.9357">
        <ele>386.91</ele>
        <time>2013-11-11T12:43:59Z</time>
      </trkpt>
      <trkpt lat="43.76217" lon="5.93598">
        <ele>387.13</ele>
        <time>2013-11-11T12:44:02Z</time>
      </trkpt>
      <trkpt lat="43.7623" lon="5.93619">
        <ele>389.13</ele>
        <time>2013-11-11T12:44:05Z</time>
      </trkpt>
      <trkpt lat="43.76226" lon="5.9365">
        <ele>390.68</ele>
        <time>2013-11-11T12:44:09Z</time>
      </trkpt>
      <trkpt lat="43.7623" lon="5.93675">
        <ele>392.83</ele>
        <time>2013-11-11T12:44:12Z</time>
      </trkpt>
      <trkpt lat="43.76237" lon="5.93703">
        <ele>392.8</ele>
        <time>2013-11-11T12:44:15Z</time>
      </trkpt>
      <trkpt lat="43.76251" lon="5.93728">
        <ele>393.89</ele>
        <time>2013-11-11T12:44:18Z</time>
      </trkpt>
      <trkpt lat="43.7625" lon="5.93757">
        <ele>395.38</ele>
        <time>2013-11-11T12:44:22Z</time>
      </trkpt>
      <trkpt lat="43.76235" lon="5.93779">
        <ele>392.82</ele>
        <time>2013-11-11T12:44:26Z</time>
      </trkpt>
      <trkpt lat="43.76223" lon="5.93799">
        <ele>392.36</ele>
        <time>2013-11-11T12:44:29Z</time>
      </trkpt>
      <trkpt lat="43.76225" lon="5.93825">
        <ele>390.74</ele>
        <time>2013-11-11T12:44:32Z</time>
      </trkpt>
      <trkpt lat="43.76246" lon="5.93829">
        <ele>391.27</ele>
        <time>2013-11-11T12:44:36Z</time>
      </trkpt>
      <trkpt lat="43.76267" lon="5.93831">
        <ele>390.46</ele>
        <time>2013-11-11T12:44:40Z</time>
      </trkpt>
      <trkpt lat="43.76287" lon="5.9384">
        <ele>389.14</ele>
        <time>2013-11-11T12:44:44Z</time>
      </trkpt>
      <trkpt lat="43.76307" lon="5.93849">
        <ele>389.37</ele>
        <time>2013-11-11T12:44:48Z</time>
      </trkpt>
      <trkpt lat="43.76323" lon="5.93864">
        <ele>389.78</ele>
        <time>2013-11-11T12:44:54Z</time>
      </trkpt>
      <trkpt lat="43.76329" lon="5.93893">
        <ele>390.42</ele>
        <time>2013-11-11T12:45:00Z</time>
      </trkpt>
      <trkpt lat="43.76338" lon="5.93918">
        <ele>390.37</ele>
        <time>2013-11-11T12:45:05Z</time>
      </trkpt>
      <trkpt lat="43.76348" lon="5.93942">
        <ele>391.36</ele>
        <time>2013-11-11T12:45:10Z</time>
      </trkpt>
      <trkpt lat="43.7636" lon="5.93965">
        <ele>390.43</ele>
        <time>2013-11-11T12:45:15Z</time>
      </trkpt>
      <trkpt lat="43.76378" lon="5.93979">
        <ele>389.29</ele>
        <time>2013-11-11T12:45:20Z</time>
      </trkpt>
      <trkpt lat="43.76393" lon="5.9395">
        <ele>384.97</ele>
        <time>2013-11-11T12:46:59Z</time>
      </trkpt>
      <trkpt lat="43.76393" lon="5.93925">
        <ele>386.46</ele>
        <time>2013-11-11T12:47:04Z</time>
      </trkpt>
      <trkpt lat="43.76392" lon="5.939">
        <ele>388.52</ele>
        <time>2013-11-11T12:47:28Z</time>
      </trkpt>
      <trkpt lat="43.76393" lon="5.9387">
        <ele>385.98</ele>
        <time>2013-11-11T12:47:35Z</time>
      </trkpt>
      <trkpt lat="43.76407" lon="5.93851">
        <ele>382.38</ele>
        <time>2013-11-11T12:47:39Z</time>
      </trkpt>
      <trkpt lat="43.76422" lon="5.93835">
        <ele>380.2</ele>
        <time>2013-11-11T12:47:43Z</time>
      </trkpt>
      <trkpt lat="43.76437" lon="5.93819">
        <ele>379.02</ele>
        <time>2013-11-11T12:47:50Z</time>
      </trkpt>
      <trkpt lat="43.76439" lon="5.93794">
        <ele>373.63</ele>
        <time>2013-11-11T12:47:58Z</time>
      </trkpt>
      <trkpt lat="43.76438" lon="5.93767">
        <ele>378.72</ele>
        <time>2013-11-11T12:48:06Z</time>
      </trkpt>
      <trkpt lat="43.76432" lon="5.93742">
        <ele>379.31</ele>
        <time>2013-11-11T12:48:16Z</time>
      </trkpt>
      <trkpt lat="43.76414" lon="5.93732">
        <ele>379.12</ele>
        <time>2013-11-11T12:48:43Z</time>
      </trkpt>
      <trkpt lat="43.76396" lon="5.93735">
        <ele>382.31</ele>
        <time>2013-11-11T12:48:55Z</time>
      </trkpt>
      <trkpt lat="43.76415" lon="5.93734">
        <ele>377.07</ele>
        <time>2013-11-11T12:49:56Z</time>
      </trkpt>
      <trkpt lat="43.76427" lon="5.93752">
        <ele>382.38</ele>
        <time>2013-11-11T12:50:12Z</time>
      </trkpt>
      <trkpt lat="43.76432" lon="5.93779">
        <ele>381.96</ele>
        <time>2013-11-11T12:50:41Z</time>
      </trkpt>
      <trkpt lat="43.76438" lon="5.93804">
        <ele>381.47</ele>
        <time>2013-11-11T12:50:45Z</time>
      </trkpt>
      <trkpt lat="43.76449" lon="5.93824">
        <ele>374.1</ele>
        <time>2013-11-11T12:50:59Z</time>
      </trkpt>
      <trkpt lat="43.76468" lon="5.93827">
        <ele>373.7</ele>
        <time>2013-11-11T12:52:05Z</time>
      </trkpt>
      <trkpt lat="43.7649" lon="5.9382">
        <ele>367.88</ele>
        <time>2013-11-11T12:52:10Z</time>
      </trkpt>
      <trkpt lat="43.76508" lon="5.93815">
        <ele>366.08</ele>
        <time>2013-11-11T12:52:13Z</time>
      </trkpt>
      <trkpt lat="43.76516" lon="5.93787">
        <ele>367.41</ele>
        <time>2013-11-11T12:52:18Z</time>
      </trkpt>
      <trkpt lat="43.76517" lon="5.93761">
        <ele>367.87</ele>
        <time>2013-11-11T12:52:21Z</time>
      </trkpt>
      <trkpt lat="43.7652" lon="5.93726">
        <ele>365.83</ele>
        <time>2013-11-11T12:52:24Z</time>
      </trkpt>
      <trkpt lat="43.76523" lon="5.93699">
        <ele>362.68</ele>
        <time>2013-11-11T12:52:27Z</time>
      </trkpt>
      <trkpt lat="43.76534" lon="5.93669">
        <ele>356.08</ele>
        <time>2013-11-11T12:52:31Z</time>
      </trkpt>
      <trkpt lat="43.76545" lon="5.93643">
        <ele>353.81</ele>
        <time>2013-11-11T12:52:34Z</time>
      </trkpt>
      <trkpt lat="43.76559" lon="5.93625">
        <ele>353.8</ele>
        <time>2013-11-11T12:52:37Z</time>
      </trkpt>
      <trkpt lat="43.76576" lon="5.93613">
        <ele>351.53</ele>
        <time>2013-11-11T12:52:42Z</time>
      </trkpt>
      <trkpt lat="43.766" lon="5.93617">
        <ele>349.2</ele>
        <time>2013-11-11T12:52:46Z</time>
      </trkpt>
      <trkpt lat="43.766" lon="5.93589">
        <ele>346.16</ele>
        <time>2013-11-11T12:52:58Z</time>
      </trkpt>
      <trkpt lat="43.76586" lon="5.93573">
        <ele>348.29</ele>
        <time>2013-11-11T12:53:03Z</time>
      </trkpt>
      <trkpt lat="43.76567" lon="5.93566">
        <ele>351.57</ele>
        <time>2013-11-11T12:53:07Z</time>
      </trkpt>
      <trkpt lat="43.76543" lon="5.93567">
        <ele>352.67</ele>
        <time>2013-11-11T12:53:09Z</time>
      </trkpt>
      <trkpt lat="43.76524" lon="5.93576">
        <ele>350.4</ele>
        <time>2013-11-11T12:53:12Z</time>
      </trkpt>
      <trkpt lat="43.76503" lon="5.93586">
        <ele>351.53</ele>
        <time>2013-11-11T12:53:17Z</time>
      </trkpt>
      <trkpt lat="43.76483" lon="5.936">
        <ele>350</ele>
        <time>2013-11-11T12:53:21Z</time>
      </trkpt>
      <trkpt lat="43.76465" lon="5.93599">
        <ele>355.74</ele>
        <time>2013-11-11T12:53:28Z</time>
      </trkpt>
      <trkpt lat="43.76451" lon="5.93582">
        <ele>357.43</ele>
        <time>2013-11-11T12:53:41Z</time>
      </trkpt>
      <trkpt lat="43.76451" lon="5.93557">
        <ele>358.06</ele>
        <time>2013-11-11T12:53:47Z</time>
      </trkpt>
      <trkpt lat="43.76441" lon="5.93536">
        <ele>361.69</ele>
        <time>2013-11-11T12:53:53Z</time>
      </trkpt>
      <trkpt lat="43.76424" lon="5.93529">
        <ele>359.9</ele>
        <time>2013-11-11T12:54:03Z</time>
      </trkpt>
      <trkpt lat="43.76407" lon="5.93514">
        <ele>354.46</ele>
        <time>2013-11-11T12:54:28Z</time>
      </trkpt>
      <trkpt lat="43.76391" lon="5.93501">
        <ele>348.81</ele>
        <time>2013-11-11T12:55:24Z</time>
      </trkpt>
      <trkpt lat="43.7638" lon="5.93479">
        <ele>355.57</ele>
        <time>2013-11-11T12:55:51Z</time>
      </trkpt>
      <trkpt lat="43.76377" lon="5.93452">
        <ele>360.64</ele>
        <time>2013-11-11T12:56:00Z</time>
      </trkpt>
      <trkpt lat="43.76379" lon="5.93427">
        <ele>365.63</ele>
        <time>2013-11-11T12:56:14Z</time>
      </trkpt>
      <trkpt lat="43.76381" lon="5.93401">
        <ele>365.44</ele>
        <time>2013-11-11T12:56:26Z</time>
      </trkpt>
      <trkpt lat="43.76389" lon="5.93375">
        <ele>366.4</ele>
        <time>2013-11-11T12:56:39Z</time>
      </trkpt>
      <trkpt lat="43.7638" lon="5.93352">
        <ele>368.37</ele>
        <time>2013-11-11T12:56:47Z</time>
      </trkpt>
      <trkpt lat="43.76369" lon="5.93326">
        <ele>369.61</ele>
        <time>2013-11-11T12:56:54Z</time>
      </trkpt>
      <trkpt lat="43.76359" lon="5.93291">
        <ele>367.77</ele>
        <time>2013-11-11T12:56:58Z</time>
      </trkpt>
      <trkpt lat="43.76349" lon="5.93268">
        <ele>374.94</ele>
        <time>2013-11-11T12:57:03Z</time>
      </trkpt>
      <trkpt lat="43.76338" lon="5.93243">
        <ele>375.68</ele>
        <time>2013-11-11T12:57:09Z</time>
      </trkpt>
      <trkpt lat="43.7634" lon="5.93218">
        <ele>374.43</ele>
        <time>2013-11-11T12:57:13Z</time>
      </trkpt>
      <trkpt lat="43.76339" lon="5.93192">
        <ele>371.68</ele>
        <time>2013-11-11T12:57:16Z</time>
      </trkpt>
      <trkpt lat="43.76343" lon="5.93163">
        <ele>368.73</ele>
        <time>2013-11-11T12:57:21Z</time>
      </trkpt>
      <trkpt lat="43.76349" lon="5.93133">
        <ele>365.4</ele>
        <time>2013-11-11T12:57:26Z</time>
      </trkpt>
      <trkpt lat="43.7635" lon="5.93105">
        <ele>357.98</ele>
        <time>2013-11-11T12:57:32Z</time>
      </trkpt>
      <trkpt lat="43.76357" lon="5.93082">
        <ele>354.36</ele>
        <time>2013-11-11T12:57:37Z</time>
      </trkpt>
      <trkpt lat="43.76366" lon="5.93057">
        <ele>353.04</ele>
        <time>2013-11-11T12:57:40Z</time>
      </trkpt>
      <trkpt lat="43.76361" lon="5.93031">
        <ele>352.45</ele>
        <time>2013-11-11T12:57:47Z</time>
      </trkpt>
      <trkpt lat="43.76348" lon="5.93011">
        <ele>355.51</ele>
        <time>2013-11-11T12:58:02Z</time>
      </trkpt>
      <trkpt lat="43.7633" lon="5.92999">
        <ele>353.48</ele>
        <time>2013-11-11T12:58:11Z</time>
      </trkpt>
      <trkpt lat="43.76312" lon="5.92998">
        <ele>347.52</ele>
        <time>2013-11-11T12:58:21Z</time>
      </trkpt>
      <trkpt lat="43.76294" lon="5.93007">
        <ele>347.29</ele>
        <time>2013-11-11T12:58:28Z</time>
      </trkpt>
      <trkpt lat="43.76275" lon="5.93009">
        <ele>351.92</ele>
        <time>2013-11-11T12:58:36Z</time>
      </trkpt>
      <trkpt lat="43.76256" lon="5.93004">
        <ele>359.05</ele>
        <time>2013-11-11T12:58:44Z</time>
      </trkpt>
      <trkpt lat="43.76237" lon="5.92996">
        <ele>361.22</ele>
        <time>2013-11-11T12:58:53Z</time>
      </trkpt>
      <trkpt lat="43.76227" lon="5.92974">
        <ele>358.94</ele>
        <time>2013-11-11T12:59:08Z</time>
      </trkpt>
      <trkpt lat="43.76219" lon="5.92949">
        <ele>360</ele>
        <time>2013-11-11T12:59:18Z</time>
      </trkpt>
      <trkpt lat="43.76218" lon="5.92923">
        <ele>358.14</ele>
        <time>2013-11-11T12:59:25Z</time>
      </trkpt>
      <trkpt lat="43.76221" lon="5.92897">
        <ele>355.11</ele>
        <time>2013-11-11T12:59:34Z</time>
      </trkpt>
      <trkpt lat="43.76223" lon="5.92872">
        <ele>354.06</ele>
        <time>2013-11-11T12:59:41Z</time>
      </trkpt>
      <trkpt lat="43.76223" lon="5.92844">
        <ele>348.69</ele>
        <time>2013-11-11T12:59:48Z</time>
      </trkpt>
      <trkpt lat="43.76217" lon="5.92819">
        <ele>351.48</ele>
        <time>2013-11-11T12:59:55Z</time>
      </trkpt>
      <trkpt lat="43.76199" lon="5.92809">
        <ele>353.55</ele>
        <time>2013-11-11T13:00:04Z</time>
      </trkpt>
      <trkpt lat="43.76183" lon="5.92798">
        <ele>348.24</ele>
        <time>2013-11-11T13:00:18Z</time>
      </trkpt>
      <trkpt lat="43.76166" lon="5.92787">
        <ele>349.65</ele>
        <time>2013-11-11T13:00:25Z</time>
      </trkpt>
      <trkpt lat="43.76146" lon="5.92778">
        <ele>354.78</ele>
        <time>2013-11-11T13:00:31Z</time>
      </trkpt>
      <trkpt lat="43.76128" lon="5.92774">
        <ele>353.59</ele>
        <time>2013-11-11T13:00:36Z</time>
      </trkpt>
      <trkpt lat="43.7611" lon="5.92768">
        <ele>349.35</ele>
        <time>2013-11-11T13:00:41Z</time>
      </trkpt>
      <trkpt lat="43.76091" lon="5.92755">
        <ele>347.92</ele>
        <time>2013-11-11T13:00:48Z</time>
      </trkpt>
      <trkpt lat="43.76076" lon="5.92739">
        <ele>348.47</ele>
        <time>2013-11-11T13:00:53Z</time>
      </trkpt>
      <trkpt lat="43.76062" lon="5.92722">
        <ele>350.66</ele>
        <time>2013-11-11T13:01:01Z</time>
      </trkpt>
      <trkpt lat="43.76059" lon="5.92696">
        <ele>350.03</ele>
        <time>2013-11-11T13:01:07Z</time>
      </trkpt>
      <trkpt lat="43.76054" lon="5.92671">
        <ele>352.05</ele>
        <time>2013-11-11T13:01:15Z</time>
      </trkpt>
      <trkpt lat="43.76052" lon="5.92645">
        <ele>351.75</ele>
        <time>2013-11-11T13:01:21Z</time>
      </trkpt>
      <trkpt lat="43.76046" lon="5.92619">
        <ele>352.31</ele>
        <time>2013-11-11T13:01:27Z</time>
      </trkpt>
      <trkpt lat="43.76039" lon="5.92593">
        <ele>356.03</ele>
        <time>2013-11-11T13:01:36Z</time>
      </trkpt>
      <trkpt lat="43.76029" lon="5.92571">
        <ele>354.26</ele>
        <time>2013-11-11T13:01:43Z</time>
      </trkpt>
      <trkpt lat="43.76019" lon="5.9255">
        <ele>350.36</ele>
        <time>2013-11-11T13:01:49Z</time>
      </trkpt>
      <trkpt lat="43.76012" lon="5.92526">
        <ele>347.8</ele>
        <time>2013-11-11T13:01:56Z</time>
      </trkpt>
      <trkpt lat="43.76003" lon="5.92502">
        <ele>347.76</ele>
        <time>2013-11-11T13:02:12Z</time>
      </trkpt>
      <trkpt lat="43.76002" lon="5.92477">
        <ele>344.9</ele>
        <time>2013-11-11T13:02:23Z</time>
      </trkpt>
      <trkpt lat="43.75996" lon="5.92453">
        <ele>345.43</ele>
        <time>2013-11-11T13:02:29Z</time>
      </trkpt>
      <trkpt lat="43.75985" lon="5.92428">
        <ele>346.99</ele>
        <time>2013-11-11T13:02:35Z</time>
      </trkpt>
      <trkpt lat="43.75973" lon="5.92404">
        <ele>347.84</ele>
        <time>2013-11-11T13:02:41Z</time>
      </trkpt>
      <trkpt lat="43.75959" lon="5.92386">
        <ele>344.41</ele>
        <time>2013-11-11T13:02:46Z</time>
      </trkpt>
      <trkpt lat="43.75948" lon="5.92366">
        <ele>335.95</ele>
        <time>2013-11-11T13:03:07Z</time>
      </trkpt>
      <trkpt lat="43.75946" lon="5.92339">
        <ele>331.82</ele>
        <time>2013-11-11T13:03:18Z</time>
      </trkpt>
      <trkpt lat="43.75939" lon="5.92315">
        <ele>338.34</ele>
        <time>2013-11-11T13:03:25Z</time>
      </trkpt>
      <trkpt lat="43.75932" lon="5.9229">
        <ele>344.98</ele>
        <time>2013-11-11T13:03:31Z</time>
      </trkpt>
      <trkpt lat="43.75924" lon="5.92262">
        <ele>349.16</ele>
        <time>2013-11-11T13:03:37Z</time>
      </trkpt>
      <trkpt lat="43.75922" lon="5.92233">
        <ele>345.71</ele>
        <time>2013-11-11T13:03:41Z</time>
      </trkpt>
      <trkpt lat="43.7592" lon="5.92208">
        <ele>346.22</ele>
        <time>2013-11-11T13:03:45Z</time>
      </trkpt>
      <trkpt lat="43.75911" lon="5.92184">
        <ele>344.63</ele>
        <time>2013-11-11T13:03:50Z</time>
      </trkpt>
      <trkpt lat="43.75898" lon="5.92166">
        <ele>340.48</ele>
        <time>2013-11-11T13:03:54Z</time>
      </trkpt>
      <trkpt lat="43.75883" lon="5.92147">
        <ele>338.93</ele>
        <time>2013-11-11T13:03:59Z</time>
      </trkpt>
      <trkpt lat="43.75864" lon="5.92139">
        <ele>340.12</ele>
        <time>2013-11-11T13:04:09Z</time>
      </trkpt>
      <trkpt lat="43.75844" lon="5.92133">
        <ele>339.55</ele>
        <time>2013-11-11T13:04:17Z</time>
      </trkpt>
      <trkpt lat="43.75829" lon="5.92115">
        <ele>332.58</ele>
        <time>2013-11-11T13:04:28Z</time>
      </trkpt>
      <trkpt lat="43.75817" lon="5.92134">
        <ele>336.99</ele>
        <time>2013-11-11T13:04:36Z</time>
      </trkpt>
      <trkpt lat="43.75807" lon="5.92157">
        <ele>325.17</ele>
        <time>2013-11-11T13:04:41Z</time>
      </trkpt>
      <trkpt lat="43.75804" lon="5.92182">
        <ele>318.04</ele>
        <time>2013-11-11T13:04:47Z</time>
      </trkpt>
      <trkpt lat="43.75799" lon="5.92206">
        <ele>317.31</ele>
        <time>2013-11-11T13:05:00Z</time>
      </trkpt>
      <trkpt lat="43.75796" lon="5.92233">
        <ele>326.41</ele>
        <time>2013-11-11T13:05:14Z</time>
      </trkpt>
      <trkpt lat="43.75794" lon="5.92259">
        <ele>323.54</ele>
        <time>2013-11-11T13:05:20Z</time>
      </trkpt>
      <trkpt lat="43.7578" lon="5.92243">
        <ele>326.88</ele>
        <time>2013-11-11T13:05:34Z</time>
      </trkpt>
      <trkpt lat="43.75769" lon="5.9222">
        <ele>331</ele>
        <time>2013-11-11T13:05:40Z</time>
      </trkpt>
      <trkpt lat="43.75761" lon="5.92193">
        <ele>331.3</ele>
        <time>2013-11-11T13:05:45Z</time>
      </trkpt>
      <trkpt lat="43.75752" lon="5.92167">
        <ele>330.77</ele>
        <time>2013-11-11T13:05:50Z</time>
      </trkpt>
      <trkpt lat="43.75744" lon="5.92143">
        <ele>331.26</ele>
        <time>2013-11-11T13:05:54Z</time>
      </trkpt>
      <trkpt lat="43.75738" lon="5.92117">
        <ele>331.79</ele>
        <time>2013-11-11T13:05:59Z</time>
      </trkpt>
      <trkpt lat="43.75733" lon="5.92087">
        <ele>334.52</ele>
        <time>2013-11-11T13:06:04Z</time>
      </trkpt>
      <trkpt lat="43.75727" lon="5.92063">
        <ele>335.25</ele>
        <time>2013-11-11T13:06:08Z</time>
      </trkpt>
      <trkpt lat="43.75715" lon="5.92038">
        <ele>334.62</ele>
        <time>2013-11-11T13:06:12Z</time>
      </trkpt>
      <trkpt lat="43.75704" lon="5.92012">
        <ele>334.6</ele>
        <time>2013-11-11T13:06:16Z</time>
      </trkpt>
      <trkpt lat="43.75692" lon="5.91986">
        <ele>333.69</ele>
        <time>2013-11-11T13:06:20Z</time>
      </trkpt>
      <trkpt lat="43.75683" lon="5.91956">
        <ele>332.79</ele>
        <time>2013-11-11T13:06:24Z</time>
      </trkpt>
      <trkpt lat="43.75675" lon="5.91927">
        <ele>331.73</ele>
        <time>2013-11-11T13:06:28Z</time>
      </trkpt>
      <trkpt lat="43.75667" lon="5.91903">
        <ele>331.87</ele>
        <time>2013-11-11T13:06:31Z</time>
      </trkpt>
      <trkpt lat="43.75655" lon="5.91879">
        <ele>330.11</ele>
        <time>2013-11-11T13:06:34Z</time>
      </trkpt>
      <trkpt lat="43.75642" lon="5.91857">
        <ele>330.09</ele>
        <time>2013-11-11T13:06:37Z</time>
      </trkpt>
      <trkpt lat="43.75631" lon="5.91832">
        <ele>329.65</ele>
        <time>2013-11-11T13:06:40Z</time>
      </trkpt>
      <trkpt lat="43.7562" lon="5.9181">
        <ele>330.26</ele>
        <time>2013-11-11T13:06:43Z</time>
      </trkpt>
      <trkpt lat="43.75611" lon="5.91788">
        <ele>329.91</ele>
        <time>2013-11-11T13:06:46Z</time>
      </trkpt>
      <trkpt lat="43.75607" lon="5.91755">
        <ele>328.83</ele>
        <time>2013-11-11T13:06:50Z</time>
      </trkpt>
      <trkpt lat="43.75607" lon="5.91725">
        <ele>326.65</ele>
        <time>2013-11-11T13:06:54Z</time>
      </trkpt>
      <trkpt lat="43.75608" lon="5.917">
        <ele>324.53</ele>
        <time>2013-11-11T13:06:57Z</time>
      </trkpt>
      <trkpt lat="43.75612" lon="5.91673">
        <ele>322.49</ele>
        <time>2013-11-11T13:07:00Z</time>
      </trkpt>
      <trkpt lat="43.75618" lon="5.91646">
        <ele>320.69</ele>
        <time>2013-11-11T13:07:03Z</time>
      </trkpt>
      <trkpt lat="43.75623" lon="5.91618">
        <ele>321.63</ele>
        <time>2013-11-11T13:07:06Z</time>
      </trkpt>
      <trkpt lat="43.75627" lon="5.91593">
        <ele>321.24</ele>
        <time>2013-11-11T13:07:09Z</time>
      </trkpt>
      <trkpt lat="43.7563" lon="5.91567">
        <ele>321.64</ele>
        <time>2013-11-11T13:07:12Z</time>
      </trkpt>
      <trkpt lat="43.75637" lon="5.91541">
        <ele>321.73</ele>
        <time>2013-11-11T13:07:15Z</time>
      </trkpt>
      <trkpt lat="43.75642" lon="5.91514">
        <ele>321.08</ele>
        <time>2013-11-11T13:07:18Z</time>
      </trkpt>
      <trkpt lat="43.75648" lon="5.91482">
        <ele>320.14</ele>
        <time>2013-11-11T13:07:22Z</time>
      </trkpt>
      <trkpt lat="43.75653" lon="5.91455">
        <ele>318.39</ele>
        <time>2013-11-11T13:07:27Z</time>
      </trkpt>
      <trkpt lat="43.75635" lon="5.91445">
        <ele>319.22</ele>
        <time>2013-11-11T13:07:32Z</time>
      </trkpt>
      <trkpt lat="43.7562" lon="5.91471">
        <ele>319.9</ele>
        <time>2013-11-11T13:07:36Z</time>
      </trkpt>
      <trkpt lat="43.75609" lon="5.91493">
        <ele>320.11</ele>
        <time>2013-11-11T13:07:39Z</time>
      </trkpt>
      <trkpt lat="43.75592" lon="5.91515">
        <ele>319.65</ele>
        <time>2013-11-11T13:07:43Z</time>
      </trkpt>
      <trkpt lat="43.75571" lon="5.91522">
        <ele>317.03</ele>
        <time>2013-11-11T13:07:46Z</time>
      </trkpt>
      <trkpt lat="43.75548" lon="5.91527">
        <ele>315.59</ele>
        <time>2013-11-11T13:07:49Z</time>
      </trkpt>
      <trkpt lat="43.75527" lon="5.9153">
        <ele>315.14</ele>
        <time>2013-11-11T13:07:52Z</time>
      </trkpt>
      <trkpt lat="43.75504" lon="5.91534">
        <ele>314.62</ele>
        <time>2013-11-11T13:07:55Z</time>
      </trkpt>
      <trkpt lat="43.75479" lon="5.9154">
        <ele>312.11</ele>
        <time>2013-11-11T13:07:58Z</time>
      </trkpt>
      <trkpt lat="43.75456" lon="5.91545">
        <ele>310.41</ele>
        <time>2013-11-11T13:08:01Z</time>
      </trkpt>
      <trkpt lat="43.75435" lon="5.9155">
        <ele>308.44</ele>
        <time>2013-11-11T13:08:04Z</time>
      </trkpt>
      <trkpt lat="43.75413" lon="5.91544">
        <ele>306.91</ele>
        <time>2013-11-11T13:08:08Z</time>
      </trkpt>
      <trkpt lat="43.75403" lon="5.91514">
        <ele>305.21</ele>
        <time>2013-11-11T13:08:12Z</time>
      </trkpt>
      <trkpt lat="43.75395" lon="5.91491">
        <ele>304.41</ele>
        <time>2013-11-11T13:08:15Z</time>
      </trkpt>
      <trkpt lat="43.75387" lon="5.91466">
        <ele>304.16</ele>
        <time>2013-11-11T13:08:18Z</time>
      </trkpt>
      <trkpt lat="43.75383" lon="5.9144">
        <ele>304.48</ele>
        <time>2013-11-11T13:08:21Z</time>
      </trkpt>
      <trkpt lat="43.75379" lon="5.91412">
        <ele>304.21</ele>
        <time>2013-11-11T13:08:24Z</time>
      </trkpt>
      <trkpt lat="43.75374" lon="5.91384">
        <ele>303.69</ele>
        <time>2013-11-11T13:08:27Z</time>
      </trkpt>
      <trkpt lat="43.75369" lon="5.91353">
        <ele>303.46</ele>
        <time>2013-11-11T13:08:30Z</time>
      </trkpt>
      <trkpt lat="43.75366" lon="5.91328">
        <ele>302.91</ele>
        <time>2013-11-11T13:08:33Z</time>
      </trkpt>
      <trkpt lat="43.75366" lon="5.91293">
        <ele>304.94</ele>
        <time>2013-11-11T13:08:37Z</time>
      </trkpt>
      <trkpt lat="43.75364" lon="5.91263">
        <ele>304.63</ele>
        <time>2013-11-11T13:08:40Z</time>
      </trkpt>
      <trkpt lat="43.75364" lon="5.91234">
        <ele>303.4</ele>
        <time>2013-11-11T13:08:43Z</time>
      </trkpt>
      <trkpt lat="43.75364" lon="5.91207">
        <ele>302.22</ele>
        <time>2013-11-11T13:08:46Z</time>
      </trkpt>
      <trkpt lat="43.75365" lon="5.91181">
        <ele>301.58</ele>
        <time>2013-11-11T13:08:49Z</time>
      </trkpt>
      <trkpt lat="43.75363" lon="5.91154">
        <ele>302.86</ele>
        <time>2013-11-11T13:08:53Z</time>
      </trkpt>
      <trkpt lat="43.75364" lon="5.91125">
        <ele>303.53</ele>
        <time>2013-11-11T13:08:57Z</time>
      </trkpt>
      <trkpt lat="43.75367" lon="5.91097">
        <ele>303.44</ele>
        <time>2013-11-11T13:09:00Z</time>
      </trkpt>
      <trkpt lat="43.75369" lon="5.9107">
        <ele>304.02</ele>
        <time>2013-11-11T13:09:03Z</time>
      </trkpt>
      <trkpt lat="43.75369" lon="5.91043">
        <ele>304.3</ele>
        <time>2013-11-11T13:09:06Z</time>
      </trkpt>
      <trkpt lat="43.75371" lon="5.91015">
        <ele>303.87</ele>
        <time>2013-11-11T13:09:09Z</time>
      </trkpt>
      <trkpt lat="43.75374" lon="5.90987">
        <ele>303.75</ele>
        <time>2013-11-11T13:09:12Z</time>
      </trkpt>
      <trkpt lat="43.75378" lon="5.90962">
        <ele>302.73</ele>
        <time>2013-11-11T13:09:15Z</time>
      </trkpt>
      <trkpt lat="43.75386" lon="5.90939">
        <ele>303.49</ele>
        <time>2013-11-11T13:09:18Z</time>
      </trkpt>
      <trkpt lat="43.75394" lon="5.90914">
        <ele>304.39</ele>
        <time>2013-11-11T13:09:21Z</time>
      </trkpt>
      <trkpt lat="43.75402" lon="5.90891">
        <ele>302.71</ele>
        <time>2013-11-11T13:09:24Z</time>
      </trkpt>
      <trkpt lat="43.75409" lon="5.90867">
        <ele>302.06</ele>
        <time>2013-11-11T13:09:27Z</time>
      </trkpt>
      <trkpt lat="43.75417" lon="5.90844">
        <ele>302.83</ele>
        <time>2013-11-11T13:09:30Z</time>
      </trkpt>
      <trkpt lat="43.75423" lon="5.9082">
        <ele>302.77</ele>
        <time>2013-11-11T13:09:33Z</time>
      </trkpt>
      <trkpt lat="43.75428" lon="5.90788">
        <ele>303.33</ele>
        <time>2013-11-11T13:09:37Z</time>
      </trkpt>
      <trkpt lat="43.75434" lon="5.90763">
        <ele>302.9</ele>
        <time>2013-11-11T13:09:41Z</time>
      </trkpt>
      <trkpt lat="43.75436" lon="5.90737">
        <ele>301.13</ele>
        <time>2013-11-11T13:09:45Z</time>
      </trkpt>
      <trkpt lat="43.75437" lon="5.90707">
        <ele>303.23</ele>
        <time>2013-11-11T13:09:49Z</time>
      </trkpt>
      <trkpt lat="43.75437" lon="5.9068">
        <ele>303.89</ele>
        <time>2013-11-11T13:09:52Z</time>
      </trkpt>
      <trkpt lat="43.75438" lon="5.90654">
        <ele>303.95</ele>
        <time>2013-11-11T13:09:55Z</time>
      </trkpt>
      <trkpt lat="43.7544" lon="5.90627">
        <ele>303.76</ele>
        <time>2013-11-11T13:09:58Z</time>
      </trkpt>
      <trkpt lat="43.75442" lon="5.90602">
        <ele>302.98</ele>
        <time>2013-11-11T13:10:01Z</time>
      </trkpt>
      <trkpt lat="43.75448" lon="5.90576">
        <ele>303.18</ele>
        <time>2013-11-11T13:10:04Z</time>
      </trkpt>
      <trkpt lat="43.75454" lon="5.90544">
        <ele>303.2</ele>
        <time>2013-11-11T13:10:07Z</time>
      </trkpt>
      <trkpt lat="43.75456" lon="5.90519">
        <ele>303.16</ele>
        <time>2013-11-11T13:10:10Z</time>
      </trkpt>
      <trkpt lat="43.75455" lon="5.9049">
        <ele>303.49</ele>
        <time>2013-11-11T13:10:13Z</time>
      </trkpt>
      <trkpt lat="43.75453" lon="5.90463">
        <ele>304.62</ele>
        <time>2013-11-11T13:10:16Z</time>
      </trkpt>
      <trkpt lat="43.75449" lon="5.90439">
        <ele>304.76</ele>
        <time>2013-11-11T13:10:19Z</time>
      </trkpt>
      <trkpt lat="43.75449" lon="5.90409">
        <ele>304.31</ele>
        <time>2013-11-11T13:10:22Z</time>
      </trkpt>
      <trkpt lat="43.75449" lon="5.90378">
        <ele>304.41</ele>
        <time>2013-11-11T13:10:25Z</time>
      </trkpt>
      <trkpt lat="43.75447" lon="5.90347">
        <ele>304.6</ele>
        <time>2013-11-11T13:10:28Z</time>
      </trkpt>
      <trkpt lat="43.75446" lon="5.90319">
        <ele>304.22</ele>
        <time>2013-11-11T13:10:31Z</time>
      </trkpt>
      <trkpt lat="43.75442" lon="5.90291">
        <ele>303.8</ele>
        <time>2013-11-11T13:10:34Z</time>
      </trkpt>
      <trkpt lat="43.75435" lon="5.90263">
        <ele>302.64</ele>
        <time>2013-11-11T13:10:37Z</time>
      </trkpt>
      <trkpt lat="43.75429" lon="5.90237">
        <ele>305.73</ele>
        <time>2013-11-11T13:10:41Z</time>
      </trkpt>
      <trkpt lat="43.7542" lon="5.90209">
        <ele>307.9</ele>
        <time>2013-11-11T13:10:45Z</time>
      </trkpt>
      <trkpt lat="43.7541" lon="5.90178">
        <ele>308.61</ele>
        <time>2013-11-11T13:10:49Z</time>
      </trkpt>
      <trkpt lat="43.75408" lon="5.90153">
        <ele>308.48</ele>
        <time>2013-11-11T13:10:52Z</time>
      </trkpt>
      <trkpt lat="43.75404" lon="5.90125">
        <ele>306.42</ele>
        <time>2013-11-11T13:10:55Z</time>
      </trkpt>
      <trkpt lat="43.75403" lon="5.90099">
        <ele>305.78</ele>
        <time>2013-11-11T13:10:58Z</time>
      </trkpt>
      <trkpt lat="43.75399" lon="5.90072">
        <ele>304.51</ele>
        <time>2013-11-11T13:11:01Z</time>
      </trkpt>
      <trkpt lat="43.75395" lon="5.90045">
        <ele>303.55</ele>
        <time>2013-11-11T13:11:04Z</time>
      </trkpt>
      <trkpt lat="43.75386" lon="5.90019">
        <ele>304.11</ele>
        <time>2013-11-11T13:11:07Z</time>
      </trkpt>
      <trkpt lat="43.75379" lon="5.89995">
        <ele>304.44</ele>
        <time>2013-11-11T13:11:10Z</time>
      </trkpt>
      <trkpt lat="43.75375" lon="5.89964">
        <ele>304.68</ele>
        <time>2013-11-11T13:11:14Z</time>
      </trkpt>
      <trkpt lat="43.75374" lon="5.89936">
        <ele>305.27</ele>
        <time>2013-11-11T13:11:17Z</time>
      </trkpt>
      <trkpt lat="43.75371" lon="5.89903">
        <ele>305.12</ele>
        <time>2013-11-11T13:11:20Z</time>
      </trkpt>
      <trkpt lat="43.75369" lon="5.89872">
        <ele>305.94</ele>
        <time>2013-11-11T13:11:23Z</time>
      </trkpt>
      <trkpt lat="43.7537" lon="5.89841">
        <ele>306.27</ele>
        <time>2013-11-11T13:11:26Z</time>
      </trkpt>
      <trkpt lat="43.75371" lon="5.89812">
        <ele>305.22</ele>
        <time>2013-11-11T13:11:29Z</time>
      </trkpt>
      <trkpt lat="43.75371" lon="5.89782">
        <ele>305.31</ele>
        <time>2013-11-11T13:11:32Z</time>
      </trkpt>
      <trkpt lat="43.75375" lon="5.89752">
        <ele>306.45</ele>
        <time>2013-11-11T13:11:35Z</time>
      </trkpt>
      <trkpt lat="43.75376" lon="5.89726">
        <ele>306.76</ele>
        <time>2013-11-11T13:11:38Z</time>
      </trkpt>
      <trkpt lat="43.75381" lon="5.89699">
        <ele>306.31</ele>
        <time>2013-11-11T13:11:41Z</time>
      </trkpt>
      <trkpt lat="43.75379" lon="5.89673">
        <ele>305.96</ele>
        <time>2013-11-11T13:11:44Z</time>
      </trkpt>
      <trkpt lat="43.7538" lon="5.89645">
        <ele>305.42</ele>
        <time>2013-11-11T13:11:47Z</time>
      </trkpt>
      <trkpt lat="43.75382" lon="5.89617">
        <ele>304.3</ele>
        <time>2013-11-11T13:11:50Z</time>
      </trkpt>
      <trkpt lat="43.75383" lon="5.89591">
        <ele>302.31</ele>
        <time>2013-11-11T13:11:53Z</time>
      </trkpt>
      <trkpt lat="43.75385" lon="5.89559">
        <ele>301.88</ele>
        <time>2013-11-11T13:11:57Z</time>
      </trkpt>
      <trkpt lat="43.75387" lon="5.89529">
        <ele>301.59</ele>
        <time>2013-11-11T13:12:01Z</time>
      </trkpt>
      <trkpt lat="43.75389" lon="5.89503">
        <ele>300.41</ele>
        <time>2013-11-11T13:12:04Z</time>
      </trkpt>
      <trkpt lat="43.75391" lon="5.89473">
        <ele>299.45</ele>
        <time>2013-11-11T13:12:07Z</time>
      </trkpt>
      <trkpt lat="43.75392" lon="5.89444">
        <ele>299.54</ele>
        <time>2013-11-11T13:12:10Z</time>
      </trkpt>
      <trkpt lat="43.75395" lon="5.89417">
        <ele>300.15</ele>
        <time>2013-11-11T13:12:13Z</time>
      </trkpt>
      <trkpt lat="43.75398" lon="5.89389">
        <ele>301.34</ele>
        <time>2013-11-11T13:12:16Z</time>
      </trkpt>
      <trkpt lat="43.75401" lon="5.89361">
        <ele>301.79</ele>
        <time>2013-11-11T13:12:19Z</time>
      </trkpt>
      <trkpt lat="43.75403" lon="5.89333">
        <ele>301.39</ele>
        <time>2013-11-11T13:12:22Z</time>
      </trkpt>
      <trkpt lat="43.75403" lon="5.89307">
        <ele>301.66</ele>
        <time>2013-11-11T13:12:25Z</time>
      </trkpt>
      <trkpt lat="43.75401" lon="5.89282">
        <ele>302.26</ele>
        <time>2013-11-11T13:12:28Z</time>
      </trkpt>
      <trkpt lat="43.75401" lon="5.89256">
        <ele>302.27</ele>
        <time>2013-11-11T13:12:32Z</time>
      </trkpt>
      <trkpt lat="43.75404" lon="5.89228">
        <ele>304.65</ele>
        <time>2013-11-11T13:12:39Z</time>
      </trkpt>
      <trkpt lat="43.75406" lon="5.89197">
        <ele>306.1</ele>
        <time>2013-11-11T13:12:44Z</time>
      </trkpt>
      <trkpt lat="43.75407" lon="5.89172">
        <ele>305.87</ele>
        <time>2013-11-11T13:12:47Z</time>
      </trkpt>
      <trkpt lat="43.75411" lon="5.89141">
        <ele>305.47</ele>
        <time>2013-11-11T13:12:51Z</time>
      </trkpt>
      <trkpt lat="43.75426" lon="5.8912">
        <ele>305.77</ele>
        <time>2013-11-11T13:12:56Z</time>
      </trkpt>
      <trkpt lat="43.75439" lon="5.89104">
        <ele>307.53</ele>
        <time>2013-11-11T13:13:03Z</time>
      </trkpt>
      <trkpt lat="43.75439" lon="5.89077">
        <ele>310.62</ele>
        <time>2013-11-11T13:13:08Z</time>
      </trkpt>
      <trkpt lat="43.75438" lon="5.8905">
        <ele>313.23</ele>
        <time>2013-11-11T13:13:13Z</time>
      </trkpt>
      <trkpt lat="43.75435" lon="5.89023">
        <ele>315.16</ele>
        <time>2013-11-11T13:13:19Z</time>
      </trkpt>
      <trkpt lat="43.75433" lon="5.88997">
        <ele>320.83</ele>
        <time>2013-11-11T13:13:29Z</time>
      </trkpt>
      <trkpt lat="43.75451" lon="5.89002">
        <ele>318.86</ele>
        <time>2013-11-11T13:13:45Z</time>
      </trkpt>
      <trkpt lat="43.75469" lon="5.8899">
        <ele>320.7</ele>
        <time>2013-11-11T13:13:55Z</time>
      </trkpt>
      <trkpt lat="43.75483" lon="5.88971">
        <ele>322.14</ele>
        <time>2013-11-11T13:14:03Z</time>
      </trkpt>
      <trkpt lat="43.75497" lon="5.88953">
        <ele>324.85</ele>
        <time>2013-11-11T13:14:11Z</time>
      </trkpt>
      <trkpt lat="43.75511" lon="5.88936">
        <ele>328.82</ele>
        <time>2013-11-11T13:14:20Z</time>
      </trkpt>
      <trkpt lat="43.75523" lon="5.88916">
        <ele>329.66</ele>
        <time>2013-11-11T13:14:28Z</time>
      </trkpt>
      <trkpt lat="43.75534" lon="5.88895">
        <ele>334.81</ele>
        <time>2013-11-11T13:14:36Z</time>
      </trkpt>
      <trkpt lat="43.75543" lon="5.88873">
        <ele>337.28</ele>
        <time>2013-11-11T13:14:44Z</time>
      </trkpt>
      <trkpt lat="43.75552" lon="5.8885">
        <ele>337.67</ele>
        <time>2013-11-11T13:14:50Z</time>
      </trkpt>
      <trkpt lat="43.75562" lon="5.88826">
        <ele>337.8</ele>
        <time>2013-11-11T13:14:56Z</time>
      </trkpt>
      <trkpt lat="43.75572" lon="5.888">
        <ele>338.33</ele>
        <time>2013-11-11T13:15:02Z</time>
      </trkpt>
      <trkpt lat="43.7558" lon="5.88777">
        <ele>339.07</ele>
        <time>2013-11-11T13:15:07Z</time>
      </trkpt>
      <trkpt lat="43.7559" lon="5.88753">
        <ele>339.89</ele>
        <time>2013-11-11T13:15:13Z</time>
      </trkpt>
      <trkpt lat="43.75599" lon="5.8873">
        <ele>343.38</ele>
        <time>2013-11-11T13:15:19Z</time>
      </trkpt>
      <trkpt lat="43.75609" lon="5.88708">
        <ele>347.03</ele>
        <time>2013-11-11T13:15:26Z</time>
      </trkpt>
      <trkpt lat="43.75622" lon="5.88689">
        <ele>349.75</ele>
        <time>2013-11-11T13:15:34Z</time>
      </trkpt>
      <trkpt lat="43.75634" lon="5.8867">
        <ele>349.1</ele>
        <time>2013-11-11T13:15:42Z</time>
      </trkpt>
      <trkpt lat="43.75652" lon="5.88657">
        <ele>348.13</ele>
        <time>2013-11-11T13:15:49Z</time>
      </trkpt>
      <trkpt lat="43.75669" lon="5.88652">
        <ele>350.03</ele>
        <time>2013-11-11T13:15:55Z</time>
      </trkpt>
      <trkpt lat="43.75686" lon="5.88639">
        <ele>352.18</ele>
        <time>2013-11-11T13:16:01Z</time>
      </trkpt>
      <trkpt lat="43.75706" lon="5.88631">
        <ele>355.8</ele>
        <time>2013-11-11T13:16:08Z</time>
      </trkpt>
      <trkpt lat="43.75723" lon="5.8862">
        <ele>351.65</ele>
        <time>2013-11-11T13:16:17Z</time>
      </trkpt>
      <trkpt lat="43.75742" lon="5.8861">
        <ele>350.1</ele>
        <time>2013-11-11T13:16:24Z</time>
      </trkpt>
      <trkpt lat="43.75754" lon="5.88591">
        <ele>341.85</ele>
        <time>2013-11-11T13:19:21Z</time>
      </trkpt>
    </trkseg>
  </trk>
</gpx>